<?xml version="1.0" encoding="UTF-8" standalone="no" ?>
<gpx xmlns="http://www.topografix.com/GPX/1/1" xmlns:xsi="http://www.w3.org/2001/XMLSchema-instance" xsi:schemaLocation="http://www.topografix.com/GPX/1/1 http://www.topografix.com/GPX/1/1/gpx.xsd" version="1.1" creator="VisuGPX - https://www.visugpx.com">
  <metadata>
    <name>05-JUIN-14 16:24:58</name>
    <desc><![CDATA[

]]></desc>
  </metadata>
  <trk>
    <name><![CDATA[05-JUIN-14 16:24:58]]></name>
    <trkseg>
      <trkpt lat="44.59129" lon="2.23126">
        <ele>219.32</ele>
        <time>2014-06-05T06:33:02Z</time>
      </trkpt>
      <trkpt lat="44.59129" lon="2.23124">
        <ele>219.8</ele>
        <time>2014-06-05T06:33:16Z</time>
      </trkpt>
      <trkpt lat="44.59135" lon="2.23119">
        <ele>219.8</ele>
        <time>2014-06-05T06:33:28Z</time>
      </trkpt>
      <trkpt lat="44.59139" lon="2.2311">
        <ele>220.76</ele>
        <time>2014-06-05T06:33:39Z</time>
      </trkpt>
      <trkpt lat="44.59141" lon="2.23098">
        <ele>220.28</ele>
        <time>2014-06-05T06:33:52Z</time>
      </trkpt>
      <trkpt lat="44.5914" lon="2.23095">
        <ele>220.28</ele>
        <time>2014-06-05T06:33:54Z</time>
      </trkpt>
      <trkpt lat="44.59134" lon="2.23076">
        <ele>218.36</ele>
        <time>2014-06-05T06:34:10Z</time>
      </trkpt>
      <trkpt lat="44.59131" lon="2.23057">
        <ele>217.4</ele>
        <time>2014-06-05T06:34:25Z</time>
      </trkpt>
      <trkpt lat="44.59126" lon="2.2304">
        <ele>215.47</ele>
        <time>2014-06-05T06:34:39Z</time>
      </trkpt>
      <trkpt lat="44.59126" lon="2.23039">
        <ele>215.47</ele>
        <time>2014-06-05T06:34:53Z</time>
      </trkpt>
      <trkpt lat="44.59129" lon="2.23029">
        <ele>215.95</ele>
        <time>2014-06-05T06:35:12Z</time>
      </trkpt>
      <trkpt lat="44.59134" lon="2.23018">
        <ele>214.51</ele>
        <time>2014-06-05T06:35:23Z</time>
      </trkpt>
      <trkpt lat="44.59144" lon="2.22994">
        <ele>213.55</ele>
        <time>2014-06-05T06:35:42Z</time>
      </trkpt>
      <trkpt lat="44.59154" lon="2.22979">
        <ele>213.07</ele>
        <time>2014-06-05T06:35:54Z</time>
      </trkpt>
      <trkpt lat="44.59158" lon="2.22967">
        <ele>212.11</ele>
        <time>2014-06-05T06:36:02Z</time>
      </trkpt>
      <trkpt lat="44.59171" lon="2.22939">
        <ele>212.11</ele>
        <time>2014-06-05T06:36:18Z</time>
      </trkpt>
      <trkpt lat="44.59178" lon="2.22915">
        <ele>210.19</ele>
        <time>2014-06-05T06:36:36Z</time>
      </trkpt>
      <trkpt lat="44.59187" lon="2.22892">
        <ele>208.74</ele>
        <time>2014-06-05T06:36:50Z</time>
      </trkpt>
      <trkpt lat="44.59199" lon="2.22863">
        <ele>206.34</ele>
        <time>2014-06-05T06:37:09Z</time>
      </trkpt>
      <trkpt lat="44.59202" lon="2.2286">
        <ele>205.38</ele>
        <time>2014-06-05T06:37:14Z</time>
      </trkpt>
      <trkpt lat="44.59218" lon="2.2284">
        <ele>204.42</ele>
        <time>2014-06-05T06:37:32Z</time>
      </trkpt>
      <trkpt lat="44.59218" lon="2.22839">
        <ele>204.9</ele>
        <time>2014-06-05T06:37:33Z</time>
      </trkpt>
      <trkpt lat="44.59217" lon="2.22827">
        <ele>204.9</ele>
        <time>2014-06-05T06:37:40Z</time>
      </trkpt>
      <trkpt lat="44.59217" lon="2.2282">
        <ele>203.94</ele>
        <time>2014-06-05T06:37:44Z</time>
      </trkpt>
      <trkpt lat="44.59218" lon="2.22819">
        <ele>202.98</ele>
        <time>2014-06-05T06:37:45Z</time>
      </trkpt>
      <trkpt lat="44.59233" lon="2.22813">
        <ele>201.05</ele>
        <time>2014-06-05T06:37:58Z</time>
      </trkpt>
      <trkpt lat="44.59254" lon="2.22808">
        <ele>200.09</ele>
        <time>2014-06-05T06:38:18Z</time>
      </trkpt>
      <trkpt lat="44.59272" lon="2.22798">
        <ele>198.17</ele>
        <time>2014-06-05T06:38:38Z</time>
      </trkpt>
      <trkpt lat="44.59288" lon="2.22788">
        <ele>196.25</ele>
        <time>2014-06-05T06:38:55Z</time>
      </trkpt>
      <trkpt lat="44.59305" lon="2.22772">
        <ele>195.77</ele>
        <time>2014-06-05T06:39:12Z</time>
      </trkpt>
      <trkpt lat="44.5931" lon="2.22763">
        <ele>195.28</ele>
        <time>2014-06-05T06:39:22Z</time>
      </trkpt>
      <trkpt lat="44.59321" lon="2.22753">
        <ele>194.8</ele>
        <time>2014-06-05T06:39:36Z</time>
      </trkpt>
      <trkpt lat="44.59325" lon="2.2275">
        <ele>194.32</ele>
        <time>2014-06-05T06:39:41Z</time>
      </trkpt>
      <trkpt lat="44.59344" lon="2.22741">
        <ele>193.84</ele>
        <time>2014-06-05T06:39:58Z</time>
      </trkpt>
      <trkpt lat="44.59359" lon="2.22728">
        <ele>193.36</ele>
        <time>2014-06-05T06:40:16Z</time>
      </trkpt>
      <trkpt lat="44.59376" lon="2.22716">
        <ele>193.84</ele>
        <time>2014-06-05T06:40:34Z</time>
      </trkpt>
      <trkpt lat="44.59395" lon="2.22708">
        <ele>193.84</ele>
        <time>2014-06-05T06:40:52Z</time>
      </trkpt>
      <trkpt lat="44.59416" lon="2.22697">
        <ele>194.32</ele>
        <time>2014-06-05T06:41:11Z</time>
      </trkpt>
      <trkpt lat="44.59435" lon="2.22689">
        <ele>193.84</ele>
        <time>2014-06-05T06:41:29Z</time>
      </trkpt>
      <trkpt lat="44.59457" lon="2.22674">
        <ele>193.84</ele>
        <time>2014-06-05T06:41:49Z</time>
      </trkpt>
      <trkpt lat="44.59477" lon="2.22659">
        <ele>194.32</ele>
        <time>2014-06-05T06:42:09Z</time>
      </trkpt>
      <trkpt lat="44.59496" lon="2.22658">
        <ele>195.77</ele>
        <time>2014-06-05T06:42:27Z</time>
      </trkpt>
      <trkpt lat="44.5951" lon="2.22658">
        <ele>197.21</ele>
        <time>2014-06-05T06:42:38Z</time>
      </trkpt>
      <trkpt lat="44.59526" lon="2.22655">
        <ele>197.21</ele>
        <time>2014-06-05T06:42:55Z</time>
      </trkpt>
      <trkpt lat="44.59544" lon="2.22663">
        <ele>199.61</ele>
        <time>2014-06-05T06:43:14Z</time>
      </trkpt>
      <trkpt lat="44.59559" lon="2.22666">
        <ele>202.98</ele>
        <time>2014-06-05T06:43:31Z</time>
      </trkpt>
      <trkpt lat="44.59561" lon="2.22666">
        <ele>202.01</ele>
        <time>2014-06-05T06:43:32Z</time>
      </trkpt>
      <trkpt lat="44.59575" lon="2.22668">
        <ele>202.01</ele>
        <time>2014-06-05T06:43:48Z</time>
      </trkpt>
      <trkpt lat="44.59582" lon="2.22672">
        <ele>204.9</ele>
        <time>2014-06-05T06:43:55Z</time>
      </trkpt>
      <trkpt lat="44.59585" lon="2.22673">
        <ele>205.86</ele>
        <time>2014-06-05T06:44:00Z</time>
      </trkpt>
      <trkpt lat="44.59587" lon="2.22673">
        <ele>203.94</ele>
        <time>2014-06-05T06:44:02Z</time>
      </trkpt>
      <trkpt lat="44.59591" lon="2.22673">
        <ele>207.3</ele>
        <time>2014-06-05T06:44:08Z</time>
      </trkpt>
      <trkpt lat="44.59603" lon="2.22678">
        <ele>210.67</ele>
        <time>2014-06-05T06:44:23Z</time>
      </trkpt>
      <trkpt lat="44.59616" lon="2.22685">
        <ele>213.07</ele>
        <time>2014-06-05T06:44:42Z</time>
      </trkpt>
      <trkpt lat="44.59627" lon="2.22682">
        <ele>216.43</ele>
        <time>2014-06-05T06:44:54Z</time>
      </trkpt>
      <trkpt lat="44.59633" lon="2.22677">
        <ele>216.43</ele>
        <time>2014-06-05T06:45:03Z</time>
      </trkpt>
      <trkpt lat="44.59645" lon="2.22673">
        <ele>219.8</ele>
        <time>2014-06-05T06:45:17Z</time>
      </trkpt>
      <trkpt lat="44.59655" lon="2.22664">
        <ele>223.16</ele>
        <time>2014-06-05T06:45:32Z</time>
      </trkpt>
      <trkpt lat="44.59655" lon="2.22664">
        <ele>223.16</ele>
        <time>2014-06-05T06:45:33Z</time>
      </trkpt>
      <trkpt lat="44.59657" lon="2.22663">
        <ele>221.24</ele>
        <time>2014-06-05T06:45:35Z</time>
      </trkpt>
      <trkpt lat="44.59665" lon="2.22655">
        <ele>224.61</ele>
        <time>2014-06-05T06:45:48Z</time>
      </trkpt>
      <trkpt lat="44.59673" lon="2.22646">
        <ele>226.53</ele>
        <time>2014-06-05T06:46:00Z</time>
      </trkpt>
      <trkpt lat="44.59675" lon="2.22645">
        <ele>225.09</ele>
        <time>2014-06-05T06:46:03Z</time>
      </trkpt>
      <trkpt lat="44.59682" lon="2.22641">
        <ele>228.45</ele>
        <time>2014-06-05T06:46:12Z</time>
      </trkpt>
      <trkpt lat="44.59683" lon="2.2264">
        <ele>227.49</ele>
        <time>2014-06-05T06:46:13Z</time>
      </trkpt>
      <trkpt lat="44.59705" lon="2.22628">
        <ele>229.41</ele>
        <time>2014-06-05T06:46:37Z</time>
      </trkpt>
      <trkpt lat="44.59716" lon="2.22627">
        <ele>233.26</ele>
        <time>2014-06-05T06:46:49Z</time>
      </trkpt>
      <trkpt lat="44.59721" lon="2.22628">
        <ele>233.74</ele>
        <time>2014-06-05T06:46:55Z</time>
      </trkpt>
      <trkpt lat="44.59724" lon="2.22629">
        <ele>233.74</ele>
        <time>2014-06-05T06:46:59Z</time>
      </trkpt>
      <trkpt lat="44.59731" lon="2.22632">
        <ele>235.66</ele>
        <time>2014-06-05T06:47:07Z</time>
      </trkpt>
      <trkpt lat="44.59742" lon="2.22635">
        <ele>238.54</ele>
        <time>2014-06-05T06:47:21Z</time>
      </trkpt>
      <trkpt lat="44.59751" lon="2.22637">
        <ele>242.39</ele>
        <time>2014-06-05T06:47:33Z</time>
      </trkpt>
      <trkpt lat="44.59761" lon="2.22643">
        <ele>241.91</ele>
        <time>2014-06-05T06:47:44Z</time>
      </trkpt>
      <trkpt lat="44.59764" lon="2.22645">
        <ele>243.83</ele>
        <time>2014-06-05T06:47:47Z</time>
      </trkpt>
      <trkpt lat="44.59779" lon="2.2265">
        <ele>245.75</ele>
        <time>2014-06-05T06:48:05Z</time>
      </trkpt>
      <trkpt lat="44.59793" lon="2.22655">
        <ele>248.64</ele>
        <time>2014-06-05T06:48:21Z</time>
      </trkpt>
      <trkpt lat="44.59802" lon="2.22658">
        <ele>249.6</ele>
        <time>2014-06-05T06:48:31Z</time>
      </trkpt>
      <trkpt lat="44.59804" lon="2.22658">
        <ele>248.16</ele>
        <time>2014-06-05T06:48:33Z</time>
      </trkpt>
      <trkpt lat="44.59818" lon="2.22663">
        <ele>251.52</ele>
        <time>2014-06-05T06:48:49Z</time>
      </trkpt>
      <trkpt lat="44.59827" lon="2.22666">
        <ele>252.48</ele>
        <time>2014-06-05T06:49:05Z</time>
      </trkpt>
      <trkpt lat="44.59847" lon="2.22675">
        <ele>254.41</ele>
        <time>2014-06-05T06:49:26Z</time>
      </trkpt>
      <trkpt lat="44.59853" lon="2.22679">
        <ele>256.33</ele>
        <time>2014-06-05T06:49:33Z</time>
      </trkpt>
      <trkpt lat="44.59866" lon="2.22684">
        <ele>259.69</ele>
        <time>2014-06-05T06:49:48Z</time>
      </trkpt>
      <trkpt lat="44.59867" lon="2.22685">
        <ele>259.21</ele>
        <time>2014-06-05T06:49:49Z</time>
      </trkpt>
      <trkpt lat="44.59879" lon="2.22692">
        <ele>261.62</ele>
        <time>2014-06-05T06:50:02Z</time>
      </trkpt>
      <trkpt lat="44.59893" lon="2.22694">
        <ele>262.58</ele>
        <time>2014-06-05T06:50:17Z</time>
      </trkpt>
      <trkpt lat="44.59901" lon="2.22694">
        <ele>265.94</ele>
        <time>2014-06-05T06:50:24Z</time>
      </trkpt>
      <trkpt lat="44.59908" lon="2.22697">
        <ele>266.9</ele>
        <time>2014-06-05T06:50:32Z</time>
      </trkpt>
      <trkpt lat="44.59909" lon="2.22695">
        <ele>266.42</ele>
        <time>2014-06-05T06:50:34Z</time>
      </trkpt>
      <trkpt lat="44.59913" lon="2.22684">
        <ele>267.38</ele>
        <time>2014-06-05T06:50:48Z</time>
      </trkpt>
      <trkpt lat="44.59911" lon="2.22684">
        <ele>266.9</ele>
        <time>2014-06-05T06:51:27Z</time>
      </trkpt>
      <trkpt lat="44.59911" lon="2.22701">
        <ele>267.86</ele>
        <time>2014-06-05T06:51:41Z</time>
      </trkpt>
      <trkpt lat="44.59913" lon="2.22697">
        <ele>266.9</ele>
        <time>2014-06-05T06:52:06Z</time>
      </trkpt>
      <trkpt lat="44.59912" lon="2.22699">
        <ele>260.17</ele>
        <time>2014-06-05T06:52:13Z</time>
      </trkpt>
      <trkpt lat="44.59912" lon="2.22699">
        <ele>268.35</ele>
        <time>2014-06-05T06:52:14Z</time>
      </trkpt>
      <trkpt lat="44.59912" lon="2.22699">
        <ele>265.46</ele>
        <time>2014-06-05T06:52:15Z</time>
      </trkpt>
      <trkpt lat="44.59912" lon="2.22699">
        <ele>269.79</ele>
        <time>2014-06-05T06:52:21Z</time>
      </trkpt>
      <trkpt lat="44.59912" lon="2.22699">
        <ele>265.94</ele>
        <time>2014-06-05T06:52:22Z</time>
      </trkpt>
      <trkpt lat="44.59914" lon="2.22697">
        <ele>270.27</ele>
        <time>2014-06-05T06:52:27Z</time>
      </trkpt>
      <trkpt lat="44.59915" lon="2.22697">
        <ele>266.42</ele>
        <time>2014-06-05T06:52:29Z</time>
      </trkpt>
      <trkpt lat="44.59915" lon="2.22695">
        <ele>272.67</ele>
        <time>2014-06-05T06:52:36Z</time>
      </trkpt>
      <trkpt lat="44.59912" lon="2.22697">
        <ele>269.79</ele>
        <time>2014-06-05T06:52:37Z</time>
      </trkpt>
      <trkpt lat="44.59913" lon="2.22699">
        <ele>266.9</ele>
        <time>2014-06-05T06:52:39Z</time>
      </trkpt>
      <trkpt lat="44.59915" lon="2.22699">
        <ele>265.46</ele>
        <time>2014-06-05T06:52:41Z</time>
      </trkpt>
      <trkpt lat="44.59914" lon="2.227">
        <ele>270.27</ele>
        <time>2014-06-05T06:52:43Z</time>
      </trkpt>
      <trkpt lat="44.59914" lon="2.22699">
        <ele>267.38</ele>
        <time>2014-06-05T06:52:44Z</time>
      </trkpt>
      <trkpt lat="44.59912" lon="2.22701">
        <ele>266.9</ele>
        <time>2014-06-05T06:53:07Z</time>
      </trkpt>
      <trkpt lat="44.59914" lon="2.22702">
        <ele>266.9</ele>
        <time>2014-06-05T06:53:43Z</time>
      </trkpt>
      <trkpt lat="44.59911" lon="2.22698">
        <ele>266.42</ele>
        <time>2014-06-05T06:54:03Z</time>
      </trkpt>
      <trkpt lat="44.59913" lon="2.227">
        <ele>265.94</ele>
        <time>2014-06-05T06:54:34Z</time>
      </trkpt>
      <trkpt lat="44.59917" lon="2.22698">
        <ele>266.9</ele>
        <time>2014-06-05T06:55:03Z</time>
      </trkpt>
      <trkpt lat="44.59917" lon="2.22695">
        <ele>267.86</ele>
        <time>2014-06-05T06:55:28Z</time>
      </trkpt>
      <trkpt lat="44.59923" lon="2.22695">
        <ele>267.38</ele>
        <time>2014-06-05T06:55:33Z</time>
      </trkpt>
      <trkpt lat="44.59939" lon="2.22695">
        <ele>269.79</ele>
        <time>2014-06-05T06:55:49Z</time>
      </trkpt>
      <trkpt lat="44.59956" lon="2.22696">
        <ele>270.27</ele>
        <time>2014-06-05T06:56:07Z</time>
      </trkpt>
      <trkpt lat="44.59965" lon="2.22698">
        <ele>272.19</ele>
        <time>2014-06-05T06:56:17Z</time>
      </trkpt>
      <trkpt lat="44.59981" lon="2.22705">
        <ele>273.63</ele>
        <time>2014-06-05T06:56:34Z</time>
      </trkpt>
      <trkpt lat="44.59991" lon="2.22712">
        <ele>276.52</ele>
        <time>2014-06-05T06:56:46Z</time>
      </trkpt>
      <trkpt lat="44.60001" lon="2.22717">
        <ele>277.96</ele>
        <time>2014-06-05T06:56:58Z</time>
      </trkpt>
      <trkpt lat="44.60004" lon="2.22719">
        <ele>277.48</ele>
        <time>2014-06-05T06:57:01Z</time>
      </trkpt>
      <trkpt lat="44.60015" lon="2.22725">
        <ele>279.88</ele>
        <time>2014-06-05T06:57:12Z</time>
      </trkpt>
      <trkpt lat="44.60032" lon="2.22728">
        <ele>282.28</ele>
        <time>2014-06-05T06:57:29Z</time>
      </trkpt>
      <trkpt lat="44.60043" lon="2.22726">
        <ele>283.73</ele>
        <time>2014-06-05T06:57:39Z</time>
      </trkpt>
      <trkpt lat="44.6005" lon="2.22723">
        <ele>285.17</ele>
        <time>2014-06-05T06:57:45Z</time>
      </trkpt>
      <trkpt lat="44.60051" lon="2.22722">
        <ele>286.13</ele>
        <time>2014-06-05T06:57:47Z</time>
      </trkpt>
      <trkpt lat="44.60068" lon="2.22717">
        <ele>288.05</ele>
        <time>2014-06-05T06:58:01Z</time>
      </trkpt>
      <trkpt lat="44.60088" lon="2.22715">
        <ele>289.97</ele>
        <time>2014-06-05T06:58:20Z</time>
      </trkpt>
      <trkpt lat="44.60093" lon="2.22717">
        <ele>289.01</ele>
        <time>2014-06-05T06:58:26Z</time>
      </trkpt>
      <trkpt lat="44.60114" lon="2.22718">
        <ele>291.42</ele>
        <time>2014-06-05T06:58:45Z</time>
      </trkpt>
      <trkpt lat="44.60124" lon="2.22714">
        <ele>293.34</ele>
        <time>2014-06-05T06:58:55Z</time>
      </trkpt>
      <trkpt lat="44.60129" lon="2.22712">
        <ele>293.34</ele>
        <time>2014-06-05T06:59:00Z</time>
      </trkpt>
      <trkpt lat="44.60132" lon="2.22712">
        <ele>292.38</ele>
        <time>2014-06-05T06:59:02Z</time>
      </trkpt>
      <trkpt lat="44.60135" lon="2.22711">
        <ele>293.82</ele>
        <time>2014-06-05T06:59:05Z</time>
      </trkpt>
      <trkpt lat="44.60154" lon="2.22708">
        <ele>294.78</ele>
        <time>2014-06-05T06:59:24Z</time>
      </trkpt>
      <trkpt lat="44.6016" lon="2.22705">
        <ele>296.7</ele>
        <time>2014-06-05T06:59:31Z</time>
      </trkpt>
      <trkpt lat="44.60177" lon="2.22706">
        <ele>297.18</ele>
        <time>2014-06-05T06:59:50Z</time>
      </trkpt>
      <trkpt lat="44.6018" lon="2.22711">
        <ele>298.15</ele>
        <time>2014-06-05T07:00:06Z</time>
      </trkpt>
      <trkpt lat="44.60186" lon="2.227">
        <ele>299.11</ele>
        <time>2014-06-05T07:00:33Z</time>
      </trkpt>
      <trkpt lat="44.60205" lon="2.22691">
        <ele>301.51</ele>
        <time>2014-06-05T07:00:55Z</time>
      </trkpt>
      <trkpt lat="44.6022" lon="2.22689">
        <ele>302.95</ele>
        <time>2014-06-05T07:01:13Z</time>
      </trkpt>
      <trkpt lat="44.60234" lon="2.22687">
        <ele>306.32</ele>
        <time>2014-06-05T07:01:31Z</time>
      </trkpt>
      <trkpt lat="44.60244" lon="2.22686">
        <ele>307.28</ele>
        <time>2014-06-05T07:01:42Z</time>
      </trkpt>
      <trkpt lat="44.60263" lon="2.22686">
        <ele>309.68</ele>
        <time>2014-06-05T07:02:01Z</time>
      </trkpt>
      <trkpt lat="44.60281" lon="2.22684">
        <ele>312.09</ele>
        <time>2014-06-05T07:02:19Z</time>
      </trkpt>
      <trkpt lat="44.60291" lon="2.22682">
        <ele>311.6</ele>
        <time>2014-06-05T07:02:35Z</time>
      </trkpt>
      <trkpt lat="44.60294" lon="2.22681">
        <ele>313.05</ele>
        <time>2014-06-05T07:02:43Z</time>
      </trkpt>
      <trkpt lat="44.60302" lon="2.22677">
        <ele>314.49</ele>
        <time>2014-06-05T07:02:54Z</time>
      </trkpt>
      <trkpt lat="44.6032" lon="2.2267">
        <ele>316.41</ele>
        <time>2014-06-05T07:03:13Z</time>
      </trkpt>
      <trkpt lat="44.60325" lon="2.22668">
        <ele>316.89</ele>
        <time>2014-06-05T07:03:18Z</time>
      </trkpt>
      <trkpt lat="44.6033" lon="2.22666">
        <ele>317.85</ele>
        <time>2014-06-05T07:03:25Z</time>
      </trkpt>
      <trkpt lat="44.60342" lon="2.2266">
        <ele>318.33</ele>
        <time>2014-06-05T07:03:43Z</time>
      </trkpt>
      <trkpt lat="44.60344" lon="2.22659">
        <ele>319.3</ele>
        <time>2014-06-05T07:03:45Z</time>
      </trkpt>
      <trkpt lat="44.60366" lon="2.22654">
        <ele>321.22</ele>
        <time>2014-06-05T07:04:05Z</time>
      </trkpt>
      <trkpt lat="44.60385" lon="2.22651">
        <ele>323.62</ele>
        <time>2014-06-05T07:04:26Z</time>
      </trkpt>
      <trkpt lat="44.60399" lon="2.22653">
        <ele>326.5</ele>
        <time>2014-06-05T07:04:41Z</time>
      </trkpt>
      <trkpt lat="44.60416" lon="2.22652">
        <ele>327.95</ele>
        <time>2014-06-05T07:04:59Z</time>
      </trkpt>
      <trkpt lat="44.60418" lon="2.22652">
        <ele>326.99</ele>
        <time>2014-06-05T07:05:01Z</time>
      </trkpt>
      <trkpt lat="44.6042" lon="2.22651">
        <ele>327.95</ele>
        <time>2014-06-05T07:05:03Z</time>
      </trkpt>
      <trkpt lat="44.60422" lon="2.22651">
        <ele>327.47</ele>
        <time>2014-06-05T07:05:05Z</time>
      </trkpt>
      <trkpt lat="44.60439" lon="2.22649">
        <ele>330.83</ele>
        <time>2014-06-05T07:05:22Z</time>
      </trkpt>
      <trkpt lat="44.60455" lon="2.22645">
        <ele>331.31</ele>
        <time>2014-06-05T07:05:40Z</time>
      </trkpt>
      <trkpt lat="44.6046" lon="2.22642">
        <ele>333.71</ele>
        <time>2014-06-05T07:05:47Z</time>
      </trkpt>
      <trkpt lat="44.60475" lon="2.22627">
        <ele>334.68</ele>
        <time>2014-06-05T07:06:05Z</time>
      </trkpt>
      <trkpt lat="44.6049" lon="2.22614">
        <ele>336.12</ele>
        <time>2014-06-05T07:06:24Z</time>
      </trkpt>
      <trkpt lat="44.60503" lon="2.22604">
        <ele>337.56</ele>
        <time>2014-06-05T07:06:41Z</time>
      </trkpt>
      <trkpt lat="44.60525" lon="2.22592">
        <ele>338.04</ele>
        <time>2014-06-05T07:07:03Z</time>
      </trkpt>
      <trkpt lat="44.60539" lon="2.22571">
        <ele>339</ele>
        <time>2014-06-05T07:07:21Z</time>
      </trkpt>
      <trkpt lat="44.60541" lon="2.22545">
        <ele>339</ele>
        <time>2014-06-05T07:07:39Z</time>
      </trkpt>
      <trkpt lat="44.60554" lon="2.22541">
        <ele>339.48</ele>
        <time>2014-06-05T07:07:55Z</time>
      </trkpt>
      <trkpt lat="44.60569" lon="2.22536">
        <ele>338.52</ele>
        <time>2014-06-05T07:08:11Z</time>
      </trkpt>
      <trkpt lat="44.60572" lon="2.22535">
        <ele>339</ele>
        <time>2014-06-05T07:08:14Z</time>
      </trkpt>
      <trkpt lat="44.60589" lon="2.22533">
        <ele>338.04</ele>
        <time>2014-06-05T07:08:31Z</time>
      </trkpt>
      <trkpt lat="44.60608" lon="2.22531">
        <ele>337.56</ele>
        <time>2014-06-05T07:08:50Z</time>
      </trkpt>
      <trkpt lat="44.60618" lon="2.22528">
        <ele>337.08</ele>
        <time>2014-06-05T07:09:07Z</time>
      </trkpt>
      <trkpt lat="44.60638" lon="2.22524">
        <ele>336.6</ele>
        <time>2014-06-05T07:09:27Z</time>
      </trkpt>
      <trkpt lat="44.60664" lon="2.22511">
        <ele>335.64</ele>
        <time>2014-06-05T07:09:49Z</time>
      </trkpt>
      <trkpt lat="44.60683" lon="2.22501">
        <ele>335.64</ele>
        <time>2014-06-05T07:10:07Z</time>
      </trkpt>
      <trkpt lat="44.60695" lon="2.22497">
        <ele>334.2</ele>
        <time>2014-06-05T07:10:23Z</time>
      </trkpt>
      <trkpt lat="44.60714" lon="2.2249">
        <ele>333.71</ele>
        <time>2014-06-05T07:10:42Z</time>
      </trkpt>
      <trkpt lat="44.60736" lon="2.22481">
        <ele>333.71</ele>
        <time>2014-06-05T07:11:01Z</time>
      </trkpt>
      <trkpt lat="44.60757" lon="2.22473">
        <ele>333.23</ele>
        <time>2014-06-05T07:11:20Z</time>
      </trkpt>
      <trkpt lat="44.60774" lon="2.22464">
        <ele>332.27</ele>
        <time>2014-06-05T07:11:38Z</time>
      </trkpt>
      <trkpt lat="44.60794" lon="2.22454">
        <ele>331.79</ele>
        <time>2014-06-05T07:11:57Z</time>
      </trkpt>
      <trkpt lat="44.60813" lon="2.22451">
        <ele>332.27</ele>
        <time>2014-06-05T07:12:15Z</time>
      </trkpt>
      <trkpt lat="44.60816" lon="2.22449">
        <ele>331.79</ele>
        <time>2014-06-05T07:12:18Z</time>
      </trkpt>
      <trkpt lat="44.60835" lon="2.2244">
        <ele>331.31</ele>
        <time>2014-06-05T07:12:37Z</time>
      </trkpt>
      <trkpt lat="44.60856" lon="2.22431">
        <ele>329.87</ele>
        <time>2014-06-05T07:12:56Z</time>
      </trkpt>
      <trkpt lat="44.60876" lon="2.22425">
        <ele>329.39</ele>
        <time>2014-06-05T07:13:15Z</time>
      </trkpt>
      <trkpt lat="44.60895" lon="2.22415">
        <ele>328.91</ele>
        <time>2014-06-05T07:13:33Z</time>
      </trkpt>
      <trkpt lat="44.60911" lon="2.22399">
        <ele>328.43</ele>
        <time>2014-06-05T07:13:51Z</time>
      </trkpt>
      <trkpt lat="44.60935" lon="2.22387">
        <ele>326.99</ele>
        <time>2014-06-05T07:14:13Z</time>
      </trkpt>
      <trkpt lat="44.6096" lon="2.22376">
        <ele>326.02</ele>
        <time>2014-06-05T07:14:34Z</time>
      </trkpt>
      <trkpt lat="44.60976" lon="2.22366">
        <ele>326.5</ele>
        <time>2014-06-05T07:14:53Z</time>
      </trkpt>
      <trkpt lat="44.60997" lon="2.2236">
        <ele>325.54</ele>
        <time>2014-06-05T07:15:11Z</time>
      </trkpt>
      <trkpt lat="44.61014" lon="2.22341">
        <ele>326.5</ele>
        <time>2014-06-05T07:15:28Z</time>
      </trkpt>
      <trkpt lat="44.6102" lon="2.2232">
        <ele>327.95</ele>
        <time>2014-06-05T07:15:45Z</time>
      </trkpt>
      <trkpt lat="44.6102" lon="2.22317">
        <ele>326.99</ele>
        <time>2014-06-05T07:15:47Z</time>
      </trkpt>
      <trkpt lat="44.61025" lon="2.22298">
        <ele>327.95</ele>
        <time>2014-06-05T07:16:04Z</time>
      </trkpt>
      <trkpt lat="44.61027" lon="2.2226">
        <ele>326.99</ele>
        <time>2014-06-05T07:16:22Z</time>
      </trkpt>
      <trkpt lat="44.61031" lon="2.22223">
        <ele>326.99</ele>
        <time>2014-06-05T07:16:43Z</time>
      </trkpt>
      <trkpt lat="44.61034" lon="2.22192">
        <ele>326.5</ele>
        <time>2014-06-05T07:17:01Z</time>
      </trkpt>
      <trkpt lat="44.61043" lon="2.22158">
        <ele>326.02</ele>
        <time>2014-06-05T07:17:21Z</time>
      </trkpt>
      <trkpt lat="44.61055" lon="2.22131">
        <ele>326.99</ele>
        <time>2014-06-05T07:17:40Z</time>
      </trkpt>
      <trkpt lat="44.61072" lon="2.22101">
        <ele>327.47</ele>
        <time>2014-06-05T07:18:01Z</time>
      </trkpt>
      <trkpt lat="44.61086" lon="2.22081">
        <ele>327.47</ele>
        <time>2014-06-05T07:18:19Z</time>
      </trkpt>
      <trkpt lat="44.61101" lon="2.22058">
        <ele>326.5</ele>
        <time>2014-06-05T07:18:37Z</time>
      </trkpt>
      <trkpt lat="44.61108" lon="2.22048">
        <ele>326.99</ele>
        <time>2014-06-05T07:18:46Z</time>
      </trkpt>
      <trkpt lat="44.6111" lon="2.22041">
        <ele>327.47</ele>
        <time>2014-06-05T07:18:50Z</time>
      </trkpt>
      <trkpt lat="44.61119" lon="2.22019">
        <ele>328.43</ele>
        <time>2014-06-05T07:19:05Z</time>
      </trkpt>
      <trkpt lat="44.6112" lon="2.22017">
        <ele>327.95</ele>
        <time>2014-06-05T07:19:06Z</time>
      </trkpt>
      <trkpt lat="44.61131" lon="2.21996">
        <ele>327.95</ele>
        <time>2014-06-05T07:19:22Z</time>
      </trkpt>
      <trkpt lat="44.61141" lon="2.2198">
        <ele>329.39</ele>
        <time>2014-06-05T07:19:35Z</time>
      </trkpt>
      <trkpt lat="44.61153" lon="2.21962">
        <ele>329.39</ele>
        <time>2014-06-05T07:19:51Z</time>
      </trkpt>
      <trkpt lat="44.61167" lon="2.21936">
        <ele>329.87</ele>
        <time>2014-06-05T07:20:10Z</time>
      </trkpt>
      <trkpt lat="44.61178" lon="2.21918">
        <ele>329.87</ele>
        <time>2014-06-05T07:20:25Z</time>
      </trkpt>
      <trkpt lat="44.61187" lon="2.21899">
        <ele>330.35</ele>
        <time>2014-06-05T07:20:41Z</time>
      </trkpt>
      <trkpt lat="44.61193" lon="2.21888">
        <ele>330.35</ele>
        <time>2014-06-05T07:20:55Z</time>
      </trkpt>
      <trkpt lat="44.61214" lon="2.21867">
        <ele>331.79</ele>
        <time>2014-06-05T07:21:14Z</time>
      </trkpt>
      <trkpt lat="44.61224" lon="2.21849">
        <ele>332.75</ele>
        <time>2014-06-05T07:21:26Z</time>
      </trkpt>
      <trkpt lat="44.61237" lon="2.21828">
        <ele>331.79</ele>
        <time>2014-06-05T07:21:43Z</time>
      </trkpt>
      <trkpt lat="44.61247" lon="2.21813">
        <ele>332.75</ele>
        <time>2014-06-05T07:21:55Z</time>
      </trkpt>
      <trkpt lat="44.61258" lon="2.218">
        <ele>332.27</ele>
        <time>2014-06-05T07:22:09Z</time>
      </trkpt>
      <trkpt lat="44.6127" lon="2.2178">
        <ele>333.23</ele>
        <time>2014-06-05T07:22:26Z</time>
      </trkpt>
      <trkpt lat="44.6127" lon="2.21781">
        <ele>332.75</ele>
        <time>2014-06-05T07:22:34Z</time>
      </trkpt>
      <trkpt lat="44.61282" lon="2.2175">
        <ele>332.27</ele>
        <time>2014-06-05T07:22:51Z</time>
      </trkpt>
      <trkpt lat="44.61284" lon="2.21747">
        <ele>332.27</ele>
        <time>2014-06-05T07:23:10Z</time>
      </trkpt>
      <trkpt lat="44.61284" lon="2.21718">
        <ele>331.31</ele>
        <time>2014-06-05T07:23:27Z</time>
      </trkpt>
      <trkpt lat="44.61285" lon="2.21707">
        <ele>331.31</ele>
        <time>2014-06-05T07:23:36Z</time>
      </trkpt>
      <trkpt lat="44.61289" lon="2.21671">
        <ele>330.83</ele>
        <time>2014-06-05T07:23:57Z</time>
      </trkpt>
      <trkpt lat="44.61295" lon="2.21638">
        <ele>331.31</ele>
        <time>2014-06-05T07:24:18Z</time>
      </trkpt>
      <trkpt lat="44.61308" lon="2.21606">
        <ele>331.79</ele>
        <time>2014-06-05T07:24:40Z</time>
      </trkpt>
      <trkpt lat="44.61319" lon="2.2158">
        <ele>332.27</ele>
        <time>2014-06-05T07:25:00Z</time>
      </trkpt>
      <trkpt lat="44.61321" lon="2.21577">
        <ele>332.75</ele>
        <time>2014-06-05T07:25:03Z</time>
      </trkpt>
      <trkpt lat="44.61341" lon="2.21551">
        <ele>333.23</ele>
        <time>2014-06-05T07:25:26Z</time>
      </trkpt>
      <trkpt lat="44.6135" lon="2.21539">
        <ele>333.23</ele>
        <time>2014-06-05T07:25:35Z</time>
      </trkpt>
      <trkpt lat="44.61368" lon="2.21515">
        <ele>331.79</ele>
        <time>2014-06-05T07:25:57Z</time>
      </trkpt>
      <trkpt lat="44.61382" lon="2.21488">
        <ele>331.79</ele>
        <time>2014-06-05T07:26:17Z</time>
      </trkpt>
      <trkpt lat="44.61382" lon="2.21474">
        <ele>332.27</ele>
        <time>2014-06-05T07:26:27Z</time>
      </trkpt>
      <trkpt lat="44.61384" lon="2.21442">
        <ele>331.79</ele>
        <time>2014-06-05T07:26:47Z</time>
      </trkpt>
      <trkpt lat="44.61388" lon="2.21418">
        <ele>333.23</ele>
        <time>2014-06-05T07:27:02Z</time>
      </trkpt>
      <trkpt lat="44.61397" lon="2.2139">
        <ele>334.2</ele>
        <time>2014-06-05T07:27:21Z</time>
      </trkpt>
      <trkpt lat="44.6141" lon="2.21368">
        <ele>334.68</ele>
        <time>2014-06-05T07:27:40Z</time>
      </trkpt>
      <trkpt lat="44.61425" lon="2.2134">
        <ele>334.68</ele>
        <time>2014-06-05T07:28:04Z</time>
      </trkpt>
      <trkpt lat="44.61436" lon="2.21306">
        <ele>335.64</ele>
        <time>2014-06-05T07:28:25Z</time>
      </trkpt>
      <trkpt lat="44.61447" lon="2.21279">
        <ele>337.08</ele>
        <time>2014-06-05T07:28:47Z</time>
      </trkpt>
      <trkpt lat="44.61451" lon="2.2126">
        <ele>337.08</ele>
        <time>2014-06-05T07:29:04Z</time>
      </trkpt>
      <trkpt lat="44.61447" lon="2.21261">
        <ele>338.04</ele>
        <time>2014-06-05T07:29:11Z</time>
      </trkpt>
      <trkpt lat="44.61442" lon="2.21262">
        <ele>339</ele>
        <time>2014-06-05T07:29:17Z</time>
      </trkpt>
      <trkpt lat="44.61433" lon="2.21263">
        <ele>341.89</ele>
        <time>2014-06-05T07:29:27Z</time>
      </trkpt>
      <trkpt lat="44.61432" lon="2.21263">
        <ele>340.92</ele>
        <time>2014-06-05T07:29:28Z</time>
      </trkpt>
      <trkpt lat="44.61419" lon="2.21268">
        <ele>343.33</ele>
        <time>2014-06-05T07:29:43Z</time>
      </trkpt>
      <trkpt lat="44.61412" lon="2.21266">
        <ele>344.77</ele>
        <time>2014-06-05T07:29:51Z</time>
      </trkpt>
      <trkpt lat="44.61407" lon="2.21266">
        <ele>345.73</ele>
        <time>2014-06-05T07:29:56Z</time>
      </trkpt>
      <trkpt lat="44.61394" lon="2.21263">
        <ele>346.69</ele>
        <time>2014-06-05T07:30:12Z</time>
      </trkpt>
      <trkpt lat="44.61399" lon="2.21242">
        <ele>348.13</ele>
        <time>2014-06-05T07:30:30Z</time>
      </trkpt>
      <trkpt lat="44.61404" lon="2.21221">
        <ele>351.5</ele>
        <time>2014-06-05T07:30:46Z</time>
      </trkpt>
      <trkpt lat="44.61404" lon="2.21219">
        <ele>351.98</ele>
        <time>2014-06-05T07:30:47Z</time>
      </trkpt>
      <trkpt lat="44.61408" lon="2.21196">
        <ele>352.94</ele>
        <time>2014-06-05T07:31:05Z</time>
      </trkpt>
      <trkpt lat="44.6141" lon="2.21186">
        <ele>353.42</ele>
        <time>2014-06-05T07:31:21Z</time>
      </trkpt>
      <trkpt lat="44.61417" lon="2.2116">
        <ele>355.83</ele>
        <time>2014-06-05T07:31:38Z</time>
      </trkpt>
      <trkpt lat="44.61424" lon="2.21139">
        <ele>356.79</ele>
        <time>2014-06-05T07:31:54Z</time>
      </trkpt>
      <trkpt lat="44.61428" lon="2.21128">
        <ele>356.79</ele>
        <time>2014-06-05T07:32:03Z</time>
      </trkpt>
      <trkpt lat="44.6143" lon="2.21125">
        <ele>358.23</ele>
        <time>2014-06-05T07:32:06Z</time>
      </trkpt>
      <trkpt lat="44.61441" lon="2.21101">
        <ele>360.15</ele>
        <time>2014-06-05T07:32:25Z</time>
      </trkpt>
      <trkpt lat="44.61448" lon="2.21078">
        <ele>361.11</ele>
        <time>2014-06-05T07:32:43Z</time>
      </trkpt>
      <trkpt lat="44.6146" lon="2.21056">
        <ele>363.04</ele>
        <time>2014-06-05T07:33:03Z</time>
      </trkpt>
      <trkpt lat="44.61469" lon="2.21037">
        <ele>365.92</ele>
        <time>2014-06-05T07:33:21Z</time>
      </trkpt>
      <trkpt lat="44.61468" lon="2.21036">
        <ele>365.92</ele>
        <time>2014-06-05T07:33:39Z</time>
      </trkpt>
      <trkpt lat="44.61471" lon="2.21031">
        <ele>365.44</ele>
        <time>2014-06-05T07:34:08Z</time>
      </trkpt>
      <trkpt lat="44.61478" lon="2.21018">
        <ele>366.4</ele>
        <time>2014-06-05T07:34:26Z</time>
      </trkpt>
      <trkpt lat="44.61491" lon="2.20995">
        <ele>368.32</ele>
        <time>2014-06-05T07:34:44Z</time>
      </trkpt>
      <trkpt lat="44.6149" lon="2.2097">
        <ele>369.28</ele>
        <time>2014-06-05T07:35:01Z</time>
      </trkpt>
      <trkpt lat="44.61491" lon="2.2096">
        <ele>369.76</ele>
        <time>2014-06-05T07:35:14Z</time>
      </trkpt>
      <trkpt lat="44.61498" lon="2.20943">
        <ele>370.24</ele>
        <time>2014-06-05T07:35:29Z</time>
      </trkpt>
      <trkpt lat="44.61505" lon="2.20923">
        <ele>371.69</ele>
        <time>2014-06-05T07:35:45Z</time>
      </trkpt>
      <trkpt lat="44.61511" lon="2.20915">
        <ele>372.17</ele>
        <time>2014-06-05T07:35:54Z</time>
      </trkpt>
      <trkpt lat="44.61524" lon="2.20897">
        <ele>373.61</ele>
        <time>2014-06-05T07:36:09Z</time>
      </trkpt>
      <trkpt lat="44.61536" lon="2.2088">
        <ele>374.09</ele>
        <time>2014-06-05T07:36:25Z</time>
      </trkpt>
      <trkpt lat="44.61548" lon="2.20863">
        <ele>376.01</ele>
        <time>2014-06-05T07:36:40Z</time>
      </trkpt>
      <trkpt lat="44.61556" lon="2.20844">
        <ele>377.45</ele>
        <time>2014-06-05T07:36:56Z</time>
      </trkpt>
      <trkpt lat="44.61565" lon="2.20825">
        <ele>379.86</ele>
        <time>2014-06-05T07:37:12Z</time>
      </trkpt>
      <trkpt lat="44.6157" lon="2.20816">
        <ele>380.82</ele>
        <time>2014-06-05T07:37:21Z</time>
      </trkpt>
      <trkpt lat="44.61577" lon="2.20782">
        <ele>383.7</ele>
        <time>2014-06-05T07:37:44Z</time>
      </trkpt>
      <trkpt lat="44.6158" lon="2.20758">
        <ele>384.66</ele>
        <time>2014-06-05T07:38:02Z</time>
      </trkpt>
      <trkpt lat="44.61581" lon="2.20749">
        <ele>385.63</ele>
        <time>2014-06-05T07:38:08Z</time>
      </trkpt>
      <trkpt lat="44.61584" lon="2.20727">
        <ele>386.11</ele>
        <time>2014-06-05T07:38:23Z</time>
      </trkpt>
      <trkpt lat="44.61589" lon="2.20715">
        <ele>387.55</ele>
        <time>2014-06-05T07:38:33Z</time>
      </trkpt>
      <trkpt lat="44.61594" lon="2.20712">
        <ele>388.51</ele>
        <time>2014-06-05T07:38:47Z</time>
      </trkpt>
      <trkpt lat="44.61593" lon="2.20722">
        <ele>388.03</ele>
        <time>2014-06-05T07:39:11Z</time>
      </trkpt>
      <trkpt lat="44.61592" lon="2.20718">
        <ele>388.03</ele>
        <time>2014-06-05T07:39:40Z</time>
      </trkpt>
      <trkpt lat="44.61591" lon="2.20715">
        <ele>388.03</ele>
        <time>2014-06-05T07:40:11Z</time>
      </trkpt>
      <trkpt lat="44.61594" lon="2.20718">
        <ele>388.99</ele>
        <time>2014-06-05T07:40:34Z</time>
      </trkpt>
      <trkpt lat="44.61594" lon="2.20716">
        <ele>388.51</ele>
        <time>2014-06-05T07:41:05Z</time>
      </trkpt>
      <trkpt lat="44.61594" lon="2.20719">
        <ele>389.47</ele>
        <time>2014-06-05T07:41:26Z</time>
      </trkpt>
      <trkpt lat="44.61594" lon="2.20717">
        <ele>388.99</ele>
        <time>2014-06-05T07:41:53Z</time>
      </trkpt>
      <trkpt lat="44.61595" lon="2.20719">
        <ele>388.99</ele>
        <time>2014-06-05T07:42:08Z</time>
      </trkpt>
      <trkpt lat="44.61596" lon="2.2072">
        <ele>389.47</ele>
        <time>2014-06-05T07:42:22Z</time>
      </trkpt>
      <trkpt lat="44.61595" lon="2.20714">
        <ele>389.47</ele>
        <time>2014-06-05T07:42:42Z</time>
      </trkpt>
      <trkpt lat="44.61598" lon="2.20719">
        <ele>388.99</ele>
        <time>2014-06-05T07:43:10Z</time>
      </trkpt>
      <trkpt lat="44.61599" lon="2.20717">
        <ele>389.47</ele>
        <time>2014-06-05T07:43:31Z</time>
      </trkpt>
      <trkpt lat="44.61596" lon="2.20713">
        <ele>389.95</ele>
        <time>2014-06-05T07:43:48Z</time>
      </trkpt>
      <trkpt lat="44.61596" lon="2.20712">
        <ele>389.95</ele>
        <time>2014-06-05T07:44:02Z</time>
      </trkpt>
      <trkpt lat="44.61595" lon="2.20712">
        <ele>389.95</ele>
        <time>2014-06-05T07:44:31Z</time>
      </trkpt>
      <trkpt lat="44.61594" lon="2.20714">
        <ele>389.95</ele>
        <time>2014-06-05T07:44:58Z</time>
      </trkpt>
      <trkpt lat="44.61592" lon="2.20715">
        <ele>389.95</ele>
        <time>2014-06-05T07:45:00Z</time>
      </trkpt>
      <trkpt lat="44.61588" lon="2.20716">
        <ele>389.95</ele>
        <time>2014-06-05T07:45:11Z</time>
      </trkpt>
      <trkpt lat="44.61593" lon="2.20711">
        <ele>389.95</ele>
        <time>2014-06-05T07:45:29Z</time>
      </trkpt>
      <trkpt lat="44.61595" lon="2.20709">
        <ele>389.95</ele>
        <time>2014-06-05T07:45:49Z</time>
      </trkpt>
      <trkpt lat="44.61592" lon="2.20706">
        <ele>389.95</ele>
        <time>2014-06-05T07:46:05Z</time>
      </trkpt>
      <trkpt lat="44.61595" lon="2.20708">
        <ele>390.91</ele>
        <time>2014-06-05T07:46:18Z</time>
      </trkpt>
      <trkpt lat="44.61595" lon="2.2071">
        <ele>390.43</ele>
        <time>2014-06-05T07:46:23Z</time>
      </trkpt>
      <trkpt lat="44.61592" lon="2.2071">
        <ele>390.91</ele>
        <time>2014-06-05T07:46:35Z</time>
      </trkpt>
      <trkpt lat="44.61593" lon="2.20705">
        <ele>390.43</ele>
        <time>2014-06-05T07:46:49Z</time>
      </trkpt>
      <trkpt lat="44.61597" lon="2.2069">
        <ele>391.87</ele>
        <time>2014-06-05T07:47:03Z</time>
      </trkpt>
      <trkpt lat="44.61601" lon="2.20673">
        <ele>393.32</ele>
        <time>2014-06-05T07:47:14Z</time>
      </trkpt>
      <trkpt lat="44.61609" lon="2.20653">
        <ele>394.76</ele>
        <time>2014-06-05T07:47:29Z</time>
      </trkpt>
      <trkpt lat="44.6161" lon="2.20649">
        <ele>394.76</ele>
        <time>2014-06-05T07:47:32Z</time>
      </trkpt>
      <trkpt lat="44.61612" lon="2.20642">
        <ele>396.2</ele>
        <time>2014-06-05T07:47:36Z</time>
      </trkpt>
      <trkpt lat="44.6162" lon="2.20622">
        <ele>396.68</ele>
        <time>2014-06-05T07:47:52Z</time>
      </trkpt>
      <trkpt lat="44.61623" lon="2.20598">
        <ele>398.12</ele>
        <time>2014-06-05T07:48:07Z</time>
      </trkpt>
      <trkpt lat="44.61629" lon="2.20578">
        <ele>399.57</ele>
        <time>2014-06-05T07:48:20Z</time>
      </trkpt>
      <trkpt lat="44.61638" lon="2.20554">
        <ele>401.01</ele>
        <time>2014-06-05T07:48:38Z</time>
      </trkpt>
      <trkpt lat="44.61647" lon="2.20521">
        <ele>401.97</ele>
        <time>2014-06-05T07:48:58Z</time>
      </trkpt>
      <trkpt lat="44.61652" lon="2.20506">
        <ele>402.45</ele>
        <time>2014-06-05T07:49:08Z</time>
      </trkpt>
      <trkpt lat="44.61663" lon="2.20475">
        <ele>403.89</ele>
        <time>2014-06-05T07:49:31Z</time>
      </trkpt>
      <trkpt lat="44.61667" lon="2.20457">
        <ele>404.85</ele>
        <time>2014-06-05T07:49:42Z</time>
      </trkpt>
      <trkpt lat="44.61669" lon="2.2042">
        <ele>404.37</ele>
        <time>2014-06-05T07:50:03Z</time>
      </trkpt>
      <trkpt lat="44.6167" lon="2.20415">
        <ele>404.85</ele>
        <time>2014-06-05T07:50:06Z</time>
      </trkpt>
      <trkpt lat="44.61672" lon="2.20384">
        <ele>405.33</ele>
        <time>2014-06-05T07:50:25Z</time>
      </trkpt>
      <trkpt lat="44.61674" lon="2.20351">
        <ele>404.85</ele>
        <time>2014-06-05T07:50:45Z</time>
      </trkpt>
      <trkpt lat="44.61675" lon="2.20321">
        <ele>406.29</ele>
        <time>2014-06-05T07:51:04Z</time>
      </trkpt>
      <trkpt lat="44.61678" lon="2.20287">
        <ele>405.81</ele>
        <time>2014-06-05T07:51:25Z</time>
      </trkpt>
      <trkpt lat="44.61683" lon="2.20258">
        <ele>406.29</ele>
        <time>2014-06-05T07:51:44Z</time>
      </trkpt>
      <trkpt lat="44.61683" lon="2.20256">
        <ele>405.81</ele>
        <time>2014-06-05T07:51:45Z</time>
      </trkpt>
      <trkpt lat="44.61684" lon="2.20224">
        <ele>406.29</ele>
        <time>2014-06-05T07:52:05Z</time>
      </trkpt>
      <trkpt lat="44.61684" lon="2.20216">
        <ele>407.74</ele>
        <time>2014-06-05T07:52:10Z</time>
      </trkpt>
      <trkpt lat="44.61685" lon="2.20175">
        <ele>407.26</ele>
        <time>2014-06-05T07:52:33Z</time>
      </trkpt>
      <trkpt lat="44.61687" lon="2.20148">
        <ele>406.29</ele>
        <time>2014-06-05T07:52:53Z</time>
      </trkpt>
      <trkpt lat="44.61684" lon="2.2011">
        <ele>406.29</ele>
        <time>2014-06-05T07:53:14Z</time>
      </trkpt>
      <trkpt lat="44.61681" lon="2.20082">
        <ele>406.29</ele>
        <time>2014-06-05T07:53:33Z</time>
      </trkpt>
      <trkpt lat="44.61678" lon="2.20058">
        <ele>407.74</ele>
        <time>2014-06-05T07:53:47Z</time>
      </trkpt>
      <trkpt lat="44.6167" lon="2.20031">
        <ele>409.18</ele>
        <time>2014-06-05T07:54:02Z</time>
      </trkpt>
      <trkpt lat="44.61664" lon="2.19999">
        <ele>409.66</ele>
        <time>2014-06-05T07:54:24Z</time>
      </trkpt>
      <trkpt lat="44.61653" lon="2.19974">
        <ele>409.66</ele>
        <time>2014-06-05T07:54:45Z</time>
      </trkpt>
      <trkpt lat="44.61643" lon="2.19964">
        <ele>408.7</ele>
        <time>2014-06-05T07:54:53Z</time>
      </trkpt>
      <trkpt lat="44.61614" lon="2.19943">
        <ele>407.26</ele>
        <time>2014-06-05T07:55:16Z</time>
      </trkpt>
      <trkpt lat="44.61591" lon="2.19929">
        <ele>405.81</ele>
        <time>2014-06-05T07:55:36Z</time>
      </trkpt>
      <trkpt lat="44.61582" lon="2.19905">
        <ele>404.85</ele>
        <time>2014-06-05T07:55:55Z</time>
      </trkpt>
      <trkpt lat="44.61594" lon="2.19869">
        <ele>405.81</ele>
        <time>2014-06-05T07:56:17Z</time>
      </trkpt>
      <trkpt lat="44.616" lon="2.1985">
        <ele>405.81</ele>
        <time>2014-06-05T07:56:27Z</time>
      </trkpt>
      <trkpt lat="44.61611" lon="2.19821">
        <ele>408.22</ele>
        <time>2014-06-05T07:56:50Z</time>
      </trkpt>
      <trkpt lat="44.61625" lon="2.19793">
        <ele>408.7</ele>
        <time>2014-06-05T07:57:16Z</time>
      </trkpt>
      <trkpt lat="44.61631" lon="2.19765">
        <ele>408.7</ele>
        <time>2014-06-05T07:57:37Z</time>
      </trkpt>
      <trkpt lat="44.61631" lon="2.19734">
        <ele>408.22</ele>
        <time>2014-06-05T07:57:59Z</time>
      </trkpt>
      <trkpt lat="44.6163" lon="2.19683">
        <ele>405.81</ele>
        <time>2014-06-05T07:58:22Z</time>
      </trkpt>
      <trkpt lat="44.61646" lon="2.19658">
        <ele>405.81</ele>
        <time>2014-06-05T07:58:44Z</time>
      </trkpt>
      <trkpt lat="44.61659" lon="2.19638">
        <ele>406.77</ele>
        <time>2014-06-05T07:59:06Z</time>
      </trkpt>
      <trkpt lat="44.61665" lon="2.1962">
        <ele>408.7</ele>
        <time>2014-06-05T07:59:17Z</time>
      </trkpt>
      <trkpt lat="44.61686" lon="2.1959">
        <ele>411.1</ele>
        <time>2014-06-05T07:59:38Z</time>
      </trkpt>
      <trkpt lat="44.61689" lon="2.19582">
        <ele>411.1</ele>
        <time>2014-06-05T07:59:43Z</time>
      </trkpt>
      <trkpt lat="44.61697" lon="2.1955">
        <ele>412.06</ele>
        <time>2014-06-05T08:00:05Z</time>
      </trkpt>
      <trkpt lat="44.617" lon="2.19545">
        <ele>412.06</ele>
        <time>2014-06-05T08:00:20Z</time>
      </trkpt>
      <trkpt lat="44.61698" lon="2.19531">
        <ele>412.06</ele>
        <time>2014-06-05T08:00:45Z</time>
      </trkpt>
      <trkpt lat="44.61697" lon="2.19531">
        <ele>412.06</ele>
        <time>2014-06-05T08:00:49Z</time>
      </trkpt>
      <trkpt lat="44.61701" lon="2.19524">
        <ele>413.02</ele>
        <time>2014-06-05T08:01:07Z</time>
      </trkpt>
      <trkpt lat="44.61699" lon="2.195">
        <ele>413.02</ele>
        <time>2014-06-05T08:01:24Z</time>
      </trkpt>
      <trkpt lat="44.61699" lon="2.195">
        <ele>412.54</ele>
        <time>2014-06-05T08:01:25Z</time>
      </trkpt>
      <trkpt lat="44.61699" lon="2.19499">
        <ele>413.5</ele>
        <time>2014-06-05T08:01:33Z</time>
      </trkpt>
      <trkpt lat="44.61701" lon="2.19478">
        <ele>412.06</ele>
        <time>2014-06-05T08:01:46Z</time>
      </trkpt>
      <trkpt lat="44.61703" lon="2.19453">
        <ele>409.66</ele>
        <time>2014-06-05T08:02:06Z</time>
      </trkpt>
      <trkpt lat="44.61702" lon="2.19437">
        <ele>408.22</ele>
        <time>2014-06-05T08:02:25Z</time>
      </trkpt>
      <trkpt lat="44.61696" lon="2.1942">
        <ele>407.26</ele>
        <time>2014-06-05T08:02:45Z</time>
      </trkpt>
      <trkpt lat="44.61696" lon="2.19402">
        <ele>405.81</ele>
        <time>2014-06-05T08:03:05Z</time>
      </trkpt>
      <trkpt lat="44.61696" lon="2.1938">
        <ele>404.85</ele>
        <time>2014-06-05T08:03:24Z</time>
      </trkpt>
      <trkpt lat="44.61693" lon="2.19366">
        <ele>404.37</ele>
        <time>2014-06-05T08:03:41Z</time>
      </trkpt>
      <trkpt lat="44.61696" lon="2.19383">
        <ele>404.37</ele>
        <time>2014-06-05T08:03:56Z</time>
      </trkpt>
      <trkpt lat="44.61696" lon="2.19365">
        <ele>403.89</ele>
        <time>2014-06-05T08:04:13Z</time>
      </trkpt>
      <trkpt lat="44.61696" lon="2.19343">
        <ele>404.37</ele>
        <time>2014-06-05T08:04:33Z</time>
      </trkpt>
      <trkpt lat="44.61699" lon="2.19319">
        <ele>403.89</ele>
        <time>2014-06-05T08:04:51Z</time>
      </trkpt>
      <trkpt lat="44.61703" lon="2.19293">
        <ele>402.45</ele>
        <time>2014-06-05T08:05:09Z</time>
      </trkpt>
      <trkpt lat="44.61707" lon="2.19282">
        <ele>401.97</ele>
        <time>2014-06-05T08:05:25Z</time>
      </trkpt>
      <trkpt lat="44.61709" lon="2.1927">
        <ele>401.97</ele>
        <time>2014-06-05T08:05:42Z</time>
      </trkpt>
      <trkpt lat="44.61715" lon="2.19259">
        <ele>401.97</ele>
        <time>2014-06-05T08:05:57Z</time>
      </trkpt>
      <trkpt lat="44.61724" lon="2.19254">
        <ele>402.93</ele>
        <time>2014-06-05T08:06:04Z</time>
      </trkpt>
      <trkpt lat="44.61746" lon="2.1925">
        <ele>404.37</ele>
        <time>2014-06-05T08:06:24Z</time>
      </trkpt>
      <trkpt lat="44.6175" lon="2.19242">
        <ele>405.33</ele>
        <time>2014-06-05T08:06:38Z</time>
      </trkpt>
      <trkpt lat="44.6175" lon="2.19236">
        <ele>405.81</ele>
        <time>2014-06-05T08:06:42Z</time>
      </trkpt>
      <trkpt lat="44.6176" lon="2.19218">
        <ele>406.77</ele>
        <time>2014-06-05T08:06:59Z</time>
      </trkpt>
      <trkpt lat="44.61762" lon="2.19216">
        <ele>408.22</ele>
        <time>2014-06-05T08:07:03Z</time>
      </trkpt>
      <trkpt lat="44.61773" lon="2.19198">
        <ele>409.66</ele>
        <time>2014-06-05T08:07:20Z</time>
      </trkpt>
      <trkpt lat="44.61784" lon="2.1918">
        <ele>410.62</ele>
        <time>2014-06-05T08:07:37Z</time>
      </trkpt>
      <trkpt lat="44.61787" lon="2.19177">
        <ele>411.58</ele>
        <time>2014-06-05T08:07:41Z</time>
      </trkpt>
      <trkpt lat="44.61796" lon="2.19164">
        <ele>413.5</ele>
        <time>2014-06-05T08:07:57Z</time>
      </trkpt>
      <trkpt lat="44.61803" lon="2.19154">
        <ele>414.95</ele>
        <time>2014-06-05T08:08:08Z</time>
      </trkpt>
      <trkpt lat="44.61818" lon="2.19138">
        <ele>416.39</ele>
        <time>2014-06-05T08:08:28Z</time>
      </trkpt>
      <trkpt lat="44.6182" lon="2.19124">
        <ele>417.35</ele>
        <time>2014-06-05T08:08:42Z</time>
      </trkpt>
      <trkpt lat="44.61819" lon="2.19117">
        <ele>418.31</ele>
        <time>2014-06-05T08:08:59Z</time>
      </trkpt>
      <trkpt lat="44.61815" lon="2.19123">
        <ele>417.83</ele>
        <time>2014-06-05T08:09:19Z</time>
      </trkpt>
      <trkpt lat="44.61822" lon="2.19115">
        <ele>419.27</ele>
        <time>2014-06-05T08:09:39Z</time>
      </trkpt>
      <trkpt lat="44.61825" lon="2.19119">
        <ele>418.31</ele>
        <time>2014-06-05T08:10:09Z</time>
      </trkpt>
      <trkpt lat="44.61829" lon="2.19098">
        <ele>418.79</ele>
        <time>2014-06-05T08:10:29Z</time>
      </trkpt>
      <trkpt lat="44.61829" lon="2.19077">
        <ele>420.23</ele>
        <time>2014-06-05T08:10:49Z</time>
      </trkpt>
      <trkpt lat="44.61831" lon="2.19074">
        <ele>419.75</ele>
        <time>2014-06-05T08:11:05Z</time>
      </trkpt>
      <trkpt lat="44.61832" lon="2.19073">
        <ele>420.71</ele>
        <time>2014-06-05T08:11:34Z</time>
      </trkpt>
      <trkpt lat="44.61833" lon="2.1907">
        <ele>421.19</ele>
        <time>2014-06-05T08:12:06Z</time>
      </trkpt>
      <trkpt lat="44.61834" lon="2.19072">
        <ele>421.19</ele>
        <time>2014-06-05T08:12:35Z</time>
      </trkpt>
      <trkpt lat="44.61831" lon="2.19073">
        <ele>419.75</ele>
        <time>2014-06-05T08:12:46Z</time>
      </trkpt>
      <trkpt lat="44.61833" lon="2.19073">
        <ele>420.23</ele>
        <time>2014-06-05T08:12:51Z</time>
      </trkpt>
      <trkpt lat="44.61833" lon="2.19072">
        <ele>420.71</ele>
        <time>2014-06-05T08:12:58Z</time>
      </trkpt>
      <trkpt lat="44.61832" lon="2.19071">
        <ele>415.91</ele>
        <time>2014-06-05T08:13:09Z</time>
      </trkpt>
      <trkpt lat="44.61833" lon="2.19071">
        <ele>422.16</ele>
        <time>2014-06-05T08:13:10Z</time>
      </trkpt>
      <trkpt lat="44.61833" lon="2.19071">
        <ele>424.08</ele>
        <time>2014-06-05T08:13:12Z</time>
      </trkpt>
      <trkpt lat="44.61833" lon="2.19072">
        <ele>419.75</ele>
        <time>2014-06-05T08:13:13Z</time>
      </trkpt>
      <trkpt lat="44.61833" lon="2.19072">
        <ele>421.68</ele>
        <time>2014-06-05T08:13:14Z</time>
      </trkpt>
      <trkpt lat="44.61833" lon="2.19072">
        <ele>417.35</ele>
        <time>2014-06-05T08:13:18Z</time>
      </trkpt>
      <trkpt lat="44.61834" lon="2.19072">
        <ele>422.16</ele>
        <time>2014-06-05T08:13:19Z</time>
      </trkpt>
      <trkpt lat="44.61835" lon="2.19068">
        <ele>417.83</ele>
        <time>2014-06-05T08:13:44Z</time>
      </trkpt>
      <trkpt lat="44.61835" lon="2.19068">
        <ele>426</ele>
        <time>2014-06-05T08:13:45Z</time>
      </trkpt>
      <trkpt lat="44.61835" lon="2.19068">
        <ele>421.68</ele>
        <time>2014-06-05T08:13:46Z</time>
      </trkpt>
      <trkpt lat="44.61839" lon="2.19069">
        <ele>421.68</ele>
        <time>2014-06-05T08:14:21Z</time>
      </trkpt>
      <trkpt lat="44.61837" lon="2.19069">
        <ele>418.31</ele>
        <time>2014-06-05T08:14:35Z</time>
      </trkpt>
      <trkpt lat="44.61837" lon="2.19069">
        <ele>423.12</ele>
        <time>2014-06-05T08:14:37Z</time>
      </trkpt>
      <trkpt lat="44.61836" lon="2.19069">
        <ele>422.16</ele>
        <time>2014-06-05T08:14:38Z</time>
      </trkpt>
      <trkpt lat="44.61833" lon="2.19069">
        <ele>422.16</ele>
        <time>2014-06-05T08:14:51Z</time>
      </trkpt>
      <trkpt lat="44.61832" lon="2.1907">
        <ele>420.71</ele>
        <time>2014-06-05T08:14:53Z</time>
      </trkpt>
      <trkpt lat="44.61832" lon="2.19071">
        <ele>425.52</ele>
        <time>2014-06-05T08:14:55Z</time>
      </trkpt>
      <trkpt lat="44.61834" lon="2.19071">
        <ele>422.64</ele>
        <time>2014-06-05T08:14:56Z</time>
      </trkpt>
      <trkpt lat="44.61836" lon="2.19072">
        <ele>421.19</ele>
        <time>2014-06-05T08:14:58Z</time>
      </trkpt>
      <trkpt lat="44.61837" lon="2.19073">
        <ele>422.16</ele>
        <time>2014-06-05T08:15:34Z</time>
      </trkpt>
      <trkpt lat="44.61832" lon="2.19073">
        <ele>421.19</ele>
        <time>2014-06-05T08:16:00Z</time>
      </trkpt>
      <trkpt lat="44.61832" lon="2.19071">
        <ele>421.68</ele>
        <time>2014-06-05T08:16:35Z</time>
      </trkpt>
      <trkpt lat="44.61833" lon="2.19075">
        <ele>422.16</ele>
        <time>2014-06-05T08:17:08Z</time>
      </trkpt>
      <trkpt lat="44.61833" lon="2.19075">
        <ele>421.68</ele>
        <time>2014-06-05T08:17:16Z</time>
      </trkpt>
      <trkpt lat="44.61832" lon="2.19075">
        <ele>421.68</ele>
        <time>2014-06-05T08:17:51Z</time>
      </trkpt>
      <trkpt lat="44.61833" lon="2.19075">
        <ele>421.68</ele>
        <time>2014-06-05T08:18:22Z</time>
      </trkpt>
      <trkpt lat="44.61833" lon="2.19072">
        <ele>422.16</ele>
        <time>2014-06-05T08:18:51Z</time>
      </trkpt>
      <trkpt lat="44.61835" lon="2.19058">
        <ele>421.68</ele>
        <time>2014-06-05T08:19:07Z</time>
      </trkpt>
      <trkpt lat="44.61834" lon="2.19055">
        <ele>420.23</ele>
        <time>2014-06-05T08:19:21Z</time>
      </trkpt>
      <trkpt lat="44.61828" lon="2.19044">
        <ele>421.19</ele>
        <time>2014-06-05T08:19:34Z</time>
      </trkpt>
      <trkpt lat="44.61819" lon="2.1904">
        <ele>421.19</ele>
        <time>2014-06-05T08:19:43Z</time>
      </trkpt>
      <trkpt lat="44.61805" lon="2.19027">
        <ele>421.68</ele>
        <time>2014-06-05T08:20:02Z</time>
      </trkpt>
      <trkpt lat="44.61789" lon="2.19017">
        <ele>421.68</ele>
        <time>2014-06-05T08:20:19Z</time>
      </trkpt>
      <trkpt lat="44.61775" lon="2.19009">
        <ele>419.75</ele>
        <time>2014-06-05T08:20:36Z</time>
      </trkpt>
      <trkpt lat="44.61764" lon="2.18993">
        <ele>418.31</ele>
        <time>2014-06-05T08:20:52Z</time>
      </trkpt>
      <trkpt lat="44.61757" lon="2.18978">
        <ele>416.87</ele>
        <time>2014-06-05T08:21:10Z</time>
      </trkpt>
      <trkpt lat="44.6175" lon="2.18966">
        <ele>415.43</ele>
        <time>2014-06-05T08:21:23Z</time>
      </trkpt>
      <trkpt lat="44.61749" lon="2.18963">
        <ele>414.47</ele>
        <time>2014-06-05T08:21:25Z</time>
      </trkpt>
      <trkpt lat="44.6174" lon="2.18947">
        <ele>413.02</ele>
        <time>2014-06-05T08:21:42Z</time>
      </trkpt>
      <trkpt lat="44.6173" lon="2.18928">
        <ele>411.1</ele>
        <time>2014-06-05T08:22:02Z</time>
      </trkpt>
      <trkpt lat="44.61718" lon="2.18905">
        <ele>408.22</ele>
        <time>2014-06-05T08:22:21Z</time>
      </trkpt>
      <trkpt lat="44.61709" lon="2.18883">
        <ele>406.29</ele>
        <time>2014-06-05T08:22:40Z</time>
      </trkpt>
      <trkpt lat="44.61698" lon="2.18876">
        <ele>404.85</ele>
        <time>2014-06-05T08:22:56Z</time>
      </trkpt>
      <trkpt lat="44.61702" lon="2.18869">
        <ele>404.37</ele>
        <time>2014-06-05T08:23:10Z</time>
      </trkpt>
      <trkpt lat="44.61701" lon="2.18866">
        <ele>403.89</ele>
        <time>2014-06-05T08:23:12Z</time>
      </trkpt>
      <trkpt lat="44.61711" lon="2.18824">
        <ele>402.45</ele>
        <time>2014-06-05T08:23:34Z</time>
      </trkpt>
      <trkpt lat="44.61724" lon="2.18801">
        <ele>399.08</ele>
        <time>2014-06-05T08:23:50Z</time>
      </trkpt>
      <trkpt lat="44.61739" lon="2.18784">
        <ele>397.16</ele>
        <time>2014-06-05T08:24:09Z</time>
      </trkpt>
      <trkpt lat="44.61745" lon="2.1878">
        <ele>396.2</ele>
        <time>2014-06-05T08:24:16Z</time>
      </trkpt>
      <trkpt lat="44.61757" lon="2.18781">
        <ele>394.76</ele>
        <time>2014-06-05T08:24:27Z</time>
      </trkpt>
      <trkpt lat="44.61778" lon="2.1878">
        <ele>392.36</ele>
        <time>2014-06-05T08:24:46Z</time>
      </trkpt>
      <trkpt lat="44.61799" lon="2.18779">
        <ele>388.99</ele>
        <time>2014-06-05T08:25:04Z</time>
      </trkpt>
      <trkpt lat="44.61818" lon="2.18779">
        <ele>386.59</ele>
        <time>2014-06-05T08:25:23Z</time>
      </trkpt>
      <trkpt lat="44.61838" lon="2.18778">
        <ele>384.18</ele>
        <time>2014-06-05T08:25:42Z</time>
      </trkpt>
      <trkpt lat="44.61859" lon="2.18773">
        <ele>381.3</ele>
        <time>2014-06-05T08:26:03Z</time>
      </trkpt>
      <trkpt lat="44.61871" lon="2.18762">
        <ele>379.38</ele>
        <time>2014-06-05T08:26:21Z</time>
      </trkpt>
      <trkpt lat="44.61884" lon="2.18743">
        <ele>377.94</ele>
        <time>2014-06-05T08:26:35Z</time>
      </trkpt>
      <trkpt lat="44.61899" lon="2.18721">
        <ele>376.49</ele>
        <time>2014-06-05T08:26:55Z</time>
      </trkpt>
      <trkpt lat="44.61904" lon="2.18704">
        <ele>373.61</ele>
        <time>2014-06-05T08:27:08Z</time>
      </trkpt>
      <trkpt lat="44.61912" lon="2.18681">
        <ele>371.69</ele>
        <time>2014-06-05T08:27:28Z</time>
      </trkpt>
      <trkpt lat="44.61913" lon="2.18678">
        <ele>371.21</ele>
        <time>2014-06-05T08:27:30Z</time>
      </trkpt>
      <trkpt lat="44.61913" lon="2.18659">
        <ele>369.76</ele>
        <time>2014-06-05T08:27:46Z</time>
      </trkpt>
      <trkpt lat="44.6191" lon="2.18637">
        <ele>369.76</ele>
        <time>2014-06-05T08:28:04Z</time>
      </trkpt>
      <trkpt lat="44.61909" lon="2.18632">
        <ele>368.32</ele>
        <time>2014-06-05T08:28:07Z</time>
      </trkpt>
      <trkpt lat="44.61909" lon="2.18607">
        <ele>367.84</ele>
        <time>2014-06-05T08:28:25Z</time>
      </trkpt>
      <trkpt lat="44.61912" lon="2.18579">
        <ele>366.88</ele>
        <time>2014-06-05T08:28:44Z</time>
      </trkpt>
      <trkpt lat="44.61913" lon="2.18556">
        <ele>367.36</ele>
        <time>2014-06-05T08:29:02Z</time>
      </trkpt>
      <trkpt lat="44.61916" lon="2.18532">
        <ele>367.84</ele>
        <time>2014-06-05T08:29:18Z</time>
      </trkpt>
      <trkpt lat="44.61915" lon="2.18507">
        <ele>371.21</ele>
        <time>2014-06-05T08:29:34Z</time>
      </trkpt>
      <trkpt lat="44.61916" lon="2.18471">
        <ele>372.65</ele>
        <time>2014-06-05T08:29:57Z</time>
      </trkpt>
      <trkpt lat="44.61917" lon="2.1844">
        <ele>375.05</ele>
        <time>2014-06-05T08:30:17Z</time>
      </trkpt>
      <trkpt lat="44.61917" lon="2.1842">
        <ele>376.49</ele>
        <time>2014-06-05T08:30:32Z</time>
      </trkpt>
      <trkpt lat="44.61917" lon="2.18419">
        <ele>376.01</ele>
        <time>2014-06-05T08:30:33Z</time>
      </trkpt>
      <trkpt lat="44.61919" lon="2.18401">
        <ele>376.97</ele>
        <time>2014-06-05T08:30:46Z</time>
      </trkpt>
      <trkpt lat="44.61919" lon="2.1837">
        <ele>378.9</ele>
        <time>2014-06-05T08:31:06Z</time>
      </trkpt>
      <trkpt lat="44.61919" lon="2.18339">
        <ele>380.34</ele>
        <time>2014-06-05T08:31:26Z</time>
      </trkpt>
      <trkpt lat="44.61919" lon="2.18309">
        <ele>381.78</ele>
        <time>2014-06-05T08:31:45Z</time>
      </trkpt>
      <trkpt lat="44.61922" lon="2.1828">
        <ele>383.7</ele>
        <time>2014-06-05T08:32:05Z</time>
      </trkpt>
      <trkpt lat="44.61922" lon="2.18255">
        <ele>385.15</ele>
        <time>2014-06-05T08:32:20Z</time>
      </trkpt>
      <trkpt lat="44.61929" lon="2.18223">
        <ele>387.55</ele>
        <time>2014-06-05T08:32:40Z</time>
      </trkpt>
      <trkpt lat="44.61932" lon="2.18194">
        <ele>388.99</ele>
        <time>2014-06-05T08:32:57Z</time>
      </trkpt>
      <trkpt lat="44.6192" lon="2.18175">
        <ele>389.47</ele>
        <time>2014-06-05T08:33:15Z</time>
      </trkpt>
      <trkpt lat="44.61909" lon="2.18161">
        <ele>388.99</ele>
        <time>2014-06-05T08:33:32Z</time>
      </trkpt>
      <trkpt lat="44.61891" lon="2.18154">
        <ele>389.95</ele>
        <time>2014-06-05T08:33:53Z</time>
      </trkpt>
      <trkpt lat="44.61863" lon="2.1815">
        <ele>391.87</ele>
        <time>2014-06-05T08:34:16Z</time>
      </trkpt>
      <trkpt lat="44.61843" lon="2.18148">
        <ele>392.84</ele>
        <time>2014-06-05T08:34:34Z</time>
      </trkpt>
      <trkpt lat="44.61825" lon="2.18144">
        <ele>393.32</ele>
        <time>2014-06-05T08:34:51Z</time>
      </trkpt>
      <trkpt lat="44.61804" lon="2.18136">
        <ele>393.8</ele>
        <time>2014-06-05T08:35:09Z</time>
      </trkpt>
      <trkpt lat="44.61785" lon="2.18117">
        <ele>395.24</ele>
        <time>2014-06-05T08:35:29Z</time>
      </trkpt>
      <trkpt lat="44.61765" lon="2.18101">
        <ele>396.2</ele>
        <time>2014-06-05T08:35:48Z</time>
      </trkpt>
      <trkpt lat="44.61747" lon="2.18088">
        <ele>396.68</ele>
        <time>2014-06-05T08:36:05Z</time>
      </trkpt>
      <trkpt lat="44.61727" lon="2.18071">
        <ele>397.64</ele>
        <time>2014-06-05T08:36:26Z</time>
      </trkpt>
      <trkpt lat="44.61706" lon="2.18052">
        <ele>397.64</ele>
        <time>2014-06-05T08:36:46Z</time>
      </trkpt>
      <trkpt lat="44.61689" lon="2.18033">
        <ele>397.16</ele>
        <time>2014-06-05T08:37:04Z</time>
      </trkpt>
      <trkpt lat="44.61685" lon="2.18006">
        <ele>398.6</ele>
        <time>2014-06-05T08:37:22Z</time>
      </trkpt>
      <trkpt lat="44.61685" lon="2.17995">
        <ele>399.57</ele>
        <time>2014-06-05T08:37:29Z</time>
      </trkpt>
      <trkpt lat="44.61688" lon="2.17984">
        <ele>399.08</ele>
        <time>2014-06-05T08:37:44Z</time>
      </trkpt>
      <trkpt lat="44.61693" lon="2.1797">
        <ele>399.57</ele>
        <time>2014-06-05T08:38:03Z</time>
      </trkpt>
      <trkpt lat="44.61698" lon="2.17959">
        <ele>399.57</ele>
        <time>2014-06-05T08:38:15Z</time>
      </trkpt>
      <trkpt lat="44.61699" lon="2.17956">
        <ele>400.05</ele>
        <time>2014-06-05T08:38:19Z</time>
      </trkpt>
      <trkpt lat="44.6171" lon="2.17938">
        <ele>400.53</ele>
        <time>2014-06-05T08:38:38Z</time>
      </trkpt>
      <trkpt lat="44.61715" lon="2.17921">
        <ele>399.57</ele>
        <time>2014-06-05T08:38:51Z</time>
      </trkpt>
      <trkpt lat="44.61707" lon="2.17897">
        <ele>397.64</ele>
        <time>2014-06-05T08:39:11Z</time>
      </trkpt>
      <trkpt lat="44.61697" lon="2.17881">
        <ele>395.72</ele>
        <time>2014-06-05T08:39:25Z</time>
      </trkpt>
      <trkpt lat="44.61698" lon="2.17869">
        <ele>396.68</ele>
        <time>2014-06-05T08:39:38Z</time>
      </trkpt>
      <trkpt lat="44.617" lon="2.17875">
        <ele>396.68</ele>
        <time>2014-06-05T08:39:53Z</time>
      </trkpt>
      <trkpt lat="44.61704" lon="2.17873">
        <ele>396.2</ele>
        <time>2014-06-05T08:40:00Z</time>
      </trkpt>
      <trkpt lat="44.61715" lon="2.17852">
        <ele>394.76</ele>
        <time>2014-06-05T08:40:19Z</time>
      </trkpt>
      <trkpt lat="44.61723" lon="2.17848">
        <ele>395.72</ele>
        <time>2014-06-05T08:40:25Z</time>
      </trkpt>
      <trkpt lat="44.61735" lon="2.17857">
        <ele>396.68</ele>
        <time>2014-06-05T08:40:41Z</time>
      </trkpt>
      <trkpt lat="44.61744" lon="2.17854">
        <ele>397.16</ele>
        <time>2014-06-05T08:40:55Z</time>
      </trkpt>
      <trkpt lat="44.61759" lon="2.17845">
        <ele>395.72</ele>
        <time>2014-06-05T08:41:16Z</time>
      </trkpt>
      <trkpt lat="44.61763" lon="2.17836">
        <ele>394.76</ele>
        <time>2014-06-05T08:41:30Z</time>
      </trkpt>
      <trkpt lat="44.6177" lon="2.17815">
        <ele>392.84</ele>
        <time>2014-06-05T08:41:46Z</time>
      </trkpt>
      <trkpt lat="44.61781" lon="2.17793">
        <ele>391.87</ele>
        <time>2014-06-05T08:42:05Z</time>
      </trkpt>
      <trkpt lat="44.61793" lon="2.17776">
        <ele>388.99</ele>
        <time>2014-06-05T08:42:21Z</time>
      </trkpt>
      <trkpt lat="44.61811" lon="2.17777">
        <ele>388.03</ele>
        <time>2014-06-05T08:42:38Z</time>
      </trkpt>
      <trkpt lat="44.61825" lon="2.17775">
        <ele>386.59</ele>
        <time>2014-06-05T08:42:53Z</time>
      </trkpt>
      <trkpt lat="44.61839" lon="2.1777">
        <ele>384.66</ele>
        <time>2014-06-05T08:43:10Z</time>
      </trkpt>
      <trkpt lat="44.61844" lon="2.17766">
        <ele>384.18</ele>
        <time>2014-06-05T08:43:23Z</time>
      </trkpt>
      <trkpt lat="44.61845" lon="2.17764">
        <ele>383.22</ele>
        <time>2014-06-05T08:43:25Z</time>
      </trkpt>
      <trkpt lat="44.61852" lon="2.17751">
        <ele>382.26</ele>
        <time>2014-06-05T08:43:35Z</time>
      </trkpt>
      <trkpt lat="44.61865" lon="2.17729">
        <ele>382.26</ele>
        <time>2014-06-05T08:43:53Z</time>
      </trkpt>
      <trkpt lat="44.61868" lon="2.1771">
        <ele>384.18</ele>
        <time>2014-06-05T08:44:11Z</time>
      </trkpt>
      <trkpt lat="44.61869" lon="2.17697">
        <ele>387.07</ele>
        <time>2014-06-05T08:44:20Z</time>
      </trkpt>
      <trkpt lat="44.61872" lon="2.17687">
        <ele>386.11</ele>
        <time>2014-06-05T08:44:26Z</time>
      </trkpt>
      <trkpt lat="44.61875" lon="2.17682">
        <ele>387.55</ele>
        <time>2014-06-05T08:44:29Z</time>
      </trkpt>
      <trkpt lat="44.61883" lon="2.17665">
        <ele>387.07</ele>
        <time>2014-06-05T08:44:43Z</time>
      </trkpt>
      <trkpt lat="44.61884" lon="2.17657">
        <ele>387.55</ele>
        <time>2014-06-05T08:44:48Z</time>
      </trkpt>
      <trkpt lat="44.61883" lon="2.17646">
        <ele>387.07</ele>
        <time>2014-06-05T08:44:56Z</time>
      </trkpt>
      <trkpt lat="44.61889" lon="2.1763">
        <ele>387.07</ele>
        <time>2014-06-05T08:45:11Z</time>
      </trkpt>
      <trkpt lat="44.61894" lon="2.17612">
        <ele>387.55</ele>
        <time>2014-06-05T08:45:23Z</time>
      </trkpt>
      <trkpt lat="44.61901" lon="2.17604">
        <ele>387.55</ele>
        <time>2014-06-05T08:45:30Z</time>
      </trkpt>
      <trkpt lat="44.61915" lon="2.17598">
        <ele>387.55</ele>
        <time>2014-06-05T08:45:43Z</time>
      </trkpt>
      <trkpt lat="44.61925" lon="2.17589">
        <ele>387.55</ele>
        <time>2014-06-05T08:45:54Z</time>
      </trkpt>
      <trkpt lat="44.61928" lon="2.17586">
        <ele>387.55</ele>
        <time>2014-06-05T08:45:58Z</time>
      </trkpt>
      <trkpt lat="44.61931" lon="2.17579">
        <ele>387.07</ele>
        <time>2014-06-05T08:46:06Z</time>
      </trkpt>
      <trkpt lat="44.61942" lon="2.17556">
        <ele>386.11</ele>
        <time>2014-06-05T08:46:23Z</time>
      </trkpt>
      <trkpt lat="44.61951" lon="2.17535">
        <ele>385.63</ele>
        <time>2014-06-05T08:46:40Z</time>
      </trkpt>
      <trkpt lat="44.61956" lon="2.1753">
        <ele>385.15</ele>
        <time>2014-06-05T08:46:59Z</time>
      </trkpt>
      <trkpt lat="44.6196" lon="2.17525">
        <ele>384.66</ele>
        <time>2014-06-05T08:47:04Z</time>
      </trkpt>
      <trkpt lat="44.61964" lon="2.17512">
        <ele>383.7</ele>
        <time>2014-06-05T08:47:20Z</time>
      </trkpt>
      <trkpt lat="44.61971" lon="2.17496">
        <ele>383.22</ele>
        <time>2014-06-05T08:47:34Z</time>
      </trkpt>
      <trkpt lat="44.61979" lon="2.17478">
        <ele>381.3</ele>
        <time>2014-06-05T08:47:49Z</time>
      </trkpt>
      <trkpt lat="44.6199" lon="2.17453">
        <ele>380.34</ele>
        <time>2014-06-05T08:48:06Z</time>
      </trkpt>
      <trkpt lat="44.61993" lon="2.17445">
        <ele>379.38</ele>
        <time>2014-06-05T08:48:13Z</time>
      </trkpt>
      <trkpt lat="44.61998" lon="2.17422">
        <ele>378.9</ele>
        <time>2014-06-05T08:48:30Z</time>
      </trkpt>
      <trkpt lat="44.61995" lon="2.17395">
        <ele>376.97</ele>
        <time>2014-06-05T08:48:52Z</time>
      </trkpt>
      <trkpt lat="44.61991" lon="2.17385">
        <ele>377.45</ele>
        <time>2014-06-05T08:49:11Z</time>
      </trkpt>
      <trkpt lat="44.61992" lon="2.17384">
        <ele>376.97</ele>
        <time>2014-06-05T08:49:29Z</time>
      </trkpt>
      <trkpt lat="44.61992" lon="2.1739">
        <ele>377.45</ele>
        <time>2014-06-05T08:49:44Z</time>
      </trkpt>
      <trkpt lat="44.61995" lon="2.1739">
        <ele>377.45</ele>
        <time>2014-06-05T08:50:17Z</time>
      </trkpt>
      <trkpt lat="44.61994" lon="2.17391">
        <ele>377.94</ele>
        <time>2014-06-05T08:50:31Z</time>
      </trkpt>
      <trkpt lat="44.61994" lon="2.17389">
        <ele>377.94</ele>
        <time>2014-06-05T08:50:56Z</time>
      </trkpt>
      <trkpt lat="44.61992" lon="2.17387">
        <ele>377.45</ele>
        <time>2014-06-05T08:51:17Z</time>
      </trkpt>
      <trkpt lat="44.61988" lon="2.17382">
        <ele>376.49</ele>
        <time>2014-06-05T08:51:41Z</time>
      </trkpt>
      <trkpt lat="44.61987" lon="2.17379">
        <ele>376.49</ele>
        <time>2014-06-05T08:51:43Z</time>
      </trkpt>
      <trkpt lat="44.6198" lon="2.17356">
        <ele>375.05</ele>
        <time>2014-06-05T08:52:01Z</time>
      </trkpt>
      <trkpt lat="44.61969" lon="2.17326">
        <ele>372.65</ele>
        <time>2014-06-05T08:52:23Z</time>
      </trkpt>
      <trkpt lat="44.61967" lon="2.17322">
        <ele>372.17</ele>
        <time>2014-06-05T08:52:26Z</time>
      </trkpt>
      <trkpt lat="44.61966" lon="2.17315">
        <ele>371.69</ele>
        <time>2014-06-05T08:52:31Z</time>
      </trkpt>
      <trkpt lat="44.61956" lon="2.1729">
        <ele>371.21</ele>
        <time>2014-06-05T08:52:49Z</time>
      </trkpt>
      <trkpt lat="44.61951" lon="2.17277">
        <ele>370.24</ele>
        <time>2014-06-05T08:52:58Z</time>
      </trkpt>
      <trkpt lat="44.61941" lon="2.17245">
        <ele>369.76</ele>
        <time>2014-06-05T08:53:19Z</time>
      </trkpt>
      <trkpt lat="44.61932" lon="2.17213">
        <ele>369.28</ele>
        <time>2014-06-05T08:53:41Z</time>
      </trkpt>
      <trkpt lat="44.61923" lon="2.17184">
        <ele>366.88</ele>
        <time>2014-06-05T08:54:00Z</time>
      </trkpt>
      <trkpt lat="44.61919" lon="2.17164">
        <ele>364.96</ele>
        <time>2014-06-05T08:54:13Z</time>
      </trkpt>
      <trkpt lat="44.61914" lon="2.17131">
        <ele>362.55</ele>
        <time>2014-06-05T08:54:34Z</time>
      </trkpt>
      <trkpt lat="44.61911" lon="2.17104">
        <ele>361.59</ele>
        <time>2014-06-05T08:54:52Z</time>
      </trkpt>
      <trkpt lat="44.61906" lon="2.17073">
        <ele>360.63</ele>
        <time>2014-06-05T08:55:11Z</time>
      </trkpt>
      <trkpt lat="44.61908" lon="2.17042">
        <ele>359.19</ele>
        <time>2014-06-05T08:55:31Z</time>
      </trkpt>
      <trkpt lat="44.61911" lon="2.17009">
        <ele>358.23</ele>
        <time>2014-06-05T08:55:51Z</time>
      </trkpt>
      <trkpt lat="44.61915" lon="2.16987">
        <ele>358.23</ele>
        <time>2014-06-05T08:56:05Z</time>
      </trkpt>
      <trkpt lat="44.6192" lon="2.16967">
        <ele>357.75</ele>
        <time>2014-06-05T08:56:21Z</time>
      </trkpt>
      <trkpt lat="44.61918" lon="2.16959">
        <ele>356.79</ele>
        <time>2014-06-05T08:56:43Z</time>
      </trkpt>
      <trkpt lat="44.6192" lon="2.16946">
        <ele>356.31</ele>
        <time>2014-06-05T08:56:52Z</time>
      </trkpt>
      <trkpt lat="44.6192" lon="2.16928">
        <ele>355.83</ele>
        <time>2014-06-05T08:57:02Z</time>
      </trkpt>
      <trkpt lat="44.61922" lon="2.16897">
        <ele>355.83</ele>
        <time>2014-06-05T08:57:21Z</time>
      </trkpt>
      <trkpt lat="44.61924" lon="2.16876">
        <ele>355.34</ele>
        <time>2014-06-05T08:57:34Z</time>
      </trkpt>
      <trkpt lat="44.61925" lon="2.1686">
        <ele>354.86</ele>
        <time>2014-06-05T08:57:46Z</time>
      </trkpt>
      <trkpt lat="44.61907" lon="2.1685">
        <ele>355.34</ele>
        <time>2014-06-05T08:58:04Z</time>
      </trkpt>
      <trkpt lat="44.61895" lon="2.16845">
        <ele>355.34</ele>
        <time>2014-06-05T08:58:13Z</time>
      </trkpt>
      <trkpt lat="44.61879" lon="2.16839">
        <ele>356.31</ele>
        <time>2014-06-05T08:58:27Z</time>
      </trkpt>
      <trkpt lat="44.61862" lon="2.16834">
        <ele>355.83</ele>
        <time>2014-06-05T08:58:45Z</time>
      </trkpt>
      <trkpt lat="44.61849" lon="2.16829">
        <ele>354.86</ele>
        <time>2014-06-05T08:59:00Z</time>
      </trkpt>
      <trkpt lat="44.61837" lon="2.16826">
        <ele>353.9</ele>
        <time>2014-06-05T08:59:18Z</time>
      </trkpt>
      <trkpt lat="44.61824" lon="2.16824">
        <ele>352.46</ele>
        <time>2014-06-05T08:59:34Z</time>
      </trkpt>
      <trkpt lat="44.61804" lon="2.1682">
        <ele>351.02</ele>
        <time>2014-06-05T08:59:51Z</time>
      </trkpt>
      <trkpt lat="44.61787" lon="2.16816">
        <ele>350.06</ele>
        <time>2014-06-05T09:00:06Z</time>
      </trkpt>
      <trkpt lat="44.61784" lon="2.16815">
        <ele>349.58</ele>
        <time>2014-06-05T09:00:24Z</time>
      </trkpt>
      <trkpt lat="44.61781" lon="2.1682">
        <ele>349.1</ele>
        <time>2014-06-05T09:00:56Z</time>
      </trkpt>
      <trkpt lat="44.6176" lon="2.16826">
        <ele>348.13</ele>
        <time>2014-06-05T09:01:16Z</time>
      </trkpt>
      <trkpt lat="44.61747" lon="2.16833">
        <ele>347.17</ele>
        <time>2014-06-05T09:01:28Z</time>
      </trkpt>
      <trkpt lat="44.61733" lon="2.16843">
        <ele>345.73</ele>
        <time>2014-06-05T09:01:41Z</time>
      </trkpt>
      <trkpt lat="44.61717" lon="2.16852">
        <ele>345.25</ele>
        <time>2014-06-05T09:01:58Z</time>
      </trkpt>
      <trkpt lat="44.6171" lon="2.16854">
        <ele>345.25</ele>
        <time>2014-06-05T09:02:04Z</time>
      </trkpt>
      <trkpt lat="44.61689" lon="2.16847">
        <ele>345.25</ele>
        <time>2014-06-05T09:02:24Z</time>
      </trkpt>
      <trkpt lat="44.61687" lon="2.16836">
        <ele>343.81</ele>
        <time>2014-06-05T09:02:42Z</time>
      </trkpt>
      <trkpt lat="44.61686" lon="2.16821">
        <ele>341.89</ele>
        <time>2014-06-05T09:02:56Z</time>
      </trkpt>
      <trkpt lat="44.61687" lon="2.16816">
        <ele>340.44</ele>
        <time>2014-06-05T09:02:59Z</time>
      </trkpt>
      <trkpt lat="44.61686" lon="2.16791">
        <ele>337.56</ele>
        <time>2014-06-05T09:03:15Z</time>
      </trkpt>
      <trkpt lat="44.61685" lon="2.16769">
        <ele>336.6</ele>
        <time>2014-06-05T09:03:27Z</time>
      </trkpt>
      <trkpt lat="44.61683" lon="2.16735">
        <ele>333.71</ele>
        <time>2014-06-05T09:03:45Z</time>
      </trkpt>
      <trkpt lat="44.61682" lon="2.16713">
        <ele>331.31</ele>
        <time>2014-06-05T09:04:02Z</time>
      </trkpt>
      <trkpt lat="44.61679" lon="2.16703">
        <ele>330.35</ele>
        <time>2014-06-05T09:04:35Z</time>
      </trkpt>
      <trkpt lat="44.61679" lon="2.16683">
        <ele>328.91</ele>
        <time>2014-06-05T09:04:51Z</time>
      </trkpt>
      <trkpt lat="44.6167" lon="2.16661">
        <ele>325.54</ele>
        <time>2014-06-05T09:05:06Z</time>
      </trkpt>
      <trkpt lat="44.61663" lon="2.16633">
        <ele>323.62</ele>
        <time>2014-06-05T09:05:24Z</time>
      </trkpt>
      <trkpt lat="44.61657" lon="2.16604">
        <ele>321.22</ele>
        <time>2014-06-05T09:05:43Z</time>
      </trkpt>
      <trkpt lat="44.61649" lon="2.16583">
        <ele>318.81</ele>
        <time>2014-06-05T09:06:00Z</time>
      </trkpt>
      <trkpt lat="44.61642" lon="2.16565">
        <ele>315.93</ele>
        <time>2014-06-05T09:06:16Z</time>
      </trkpt>
      <trkpt lat="44.61638" lon="2.16549">
        <ele>312.57</ele>
        <time>2014-06-05T09:06:34Z</time>
      </trkpt>
      <trkpt lat="44.61625" lon="2.16524">
        <ele>309.68</ele>
        <time>2014-06-05T09:06:56Z</time>
      </trkpt>
      <trkpt lat="44.61613" lon="2.16505">
        <ele>306.8</ele>
        <time>2014-06-05T09:07:17Z</time>
      </trkpt>
      <trkpt lat="44.61604" lon="2.16488">
        <ele>303.43</ele>
        <time>2014-06-05T09:07:36Z</time>
      </trkpt>
      <trkpt lat="44.61609" lon="2.16469">
        <ele>299.59</ele>
        <time>2014-06-05T09:07:51Z</time>
      </trkpt>
      <trkpt lat="44.61611" lon="2.16447">
        <ele>300.07</ele>
        <time>2014-06-05T09:08:08Z</time>
      </trkpt>
      <trkpt lat="44.6161" lon="2.1644">
        <ele>295.26</ele>
        <time>2014-06-05T09:08:13Z</time>
      </trkpt>
      <trkpt lat="44.6161" lon="2.1644">
        <ele>299.11</ele>
        <time>2014-06-05T09:08:14Z</time>
      </trkpt>
      <trkpt lat="44.6161" lon="2.16441">
        <ele>294.3</ele>
        <time>2014-06-05T09:08:16Z</time>
      </trkpt>
      <trkpt lat="44.61611" lon="2.16441">
        <ele>297.67</ele>
        <time>2014-06-05T09:08:17Z</time>
      </trkpt>
      <trkpt lat="44.6161" lon="2.1644">
        <ele>300.55</ele>
        <time>2014-06-05T09:08:21Z</time>
      </trkpt>
      <trkpt lat="44.61611" lon="2.1644">
        <ele>304.88</ele>
        <time>2014-06-05T09:08:22Z</time>
      </trkpt>
      <trkpt lat="44.6161" lon="2.1644">
        <ele>301.99</ele>
        <time>2014-06-05T09:08:23Z</time>
      </trkpt>
      <trkpt lat="44.61612" lon="2.1644">
        <ele>298.63</ele>
        <time>2014-06-05T09:08:25Z</time>
      </trkpt>
      <trkpt lat="44.61612" lon="2.16441">
        <ele>291.42</ele>
        <time>2014-06-05T09:08:31Z</time>
      </trkpt>
      <trkpt lat="44.61613" lon="2.16441">
        <ele>301.03</ele>
        <time>2014-06-05T09:08:32Z</time>
      </trkpt>
      <trkpt lat="44.61613" lon="2.16441">
        <ele>292.38</ele>
        <time>2014-06-05T09:08:36Z</time>
      </trkpt>
      <trkpt lat="44.61613" lon="2.16441">
        <ele>298.15</ele>
        <time>2014-06-05T09:08:37Z</time>
      </trkpt>
      <trkpt lat="44.61612" lon="2.1644">
        <ele>306.32</ele>
        <time>2014-06-05T09:08:39Z</time>
      </trkpt>
      <trkpt lat="44.61611" lon="2.1644">
        <ele>297.18</ele>
        <time>2014-06-05T09:08:40Z</time>
      </trkpt>
      <trkpt lat="44.61611" lon="2.1644">
        <ele>298.15</ele>
        <time>2014-06-05T09:08:41Z</time>
      </trkpt>
      <trkpt lat="44.61611" lon="2.16441">
        <ele>302.47</ele>
        <time>2014-06-05T09:08:42Z</time>
      </trkpt>
      <trkpt lat="44.61611" lon="2.16441">
        <ele>299.59</ele>
        <time>2014-06-05T09:08:43Z</time>
      </trkpt>
      <trkpt lat="44.61611" lon="2.16441">
        <ele>294.78</ele>
        <time>2014-06-05T09:08:44Z</time>
      </trkpt>
      <trkpt lat="44.6161" lon="2.16441">
        <ele>299.59</ele>
        <time>2014-06-05T09:08:45Z</time>
      </trkpt>
      <trkpt lat="44.61609" lon="2.16435">
        <ele>299.11</ele>
        <time>2014-06-05T09:08:56Z</time>
      </trkpt>
      <trkpt lat="44.61611" lon="2.16442">
        <ele>295.74</ele>
        <time>2014-06-05T09:09:01Z</time>
      </trkpt>
      <trkpt lat="44.61612" lon="2.16442">
        <ele>301.99</ele>
        <time>2014-06-05T09:09:02Z</time>
      </trkpt>
      <trkpt lat="44.61612" lon="2.16442">
        <ele>298.63</ele>
        <time>2014-06-05T09:09:03Z</time>
      </trkpt>
      <trkpt lat="44.61612" lon="2.16442">
        <ele>292.86</ele>
        <time>2014-06-05T09:09:05Z</time>
      </trkpt>
      <trkpt lat="44.61612" lon="2.16442">
        <ele>300.07</ele>
        <time>2014-06-05T09:09:06Z</time>
      </trkpt>
      <trkpt lat="44.61612" lon="2.16441">
        <ele>298.63</ele>
        <time>2014-06-05T09:09:09Z</time>
      </trkpt>
      <trkpt lat="44.61609" lon="2.1644">
        <ele>300.07</ele>
        <time>2014-06-05T09:09:14Z</time>
      </trkpt>
      <trkpt lat="44.61609" lon="2.16436">
        <ele>296.7</ele>
        <time>2014-06-05T09:09:31Z</time>
      </trkpt>
      <trkpt lat="44.61608" lon="2.16435">
        <ele>305.84</ele>
        <time>2014-06-05T09:09:32Z</time>
      </trkpt>
      <trkpt lat="44.61608" lon="2.16434">
        <ele>301.99</ele>
        <time>2014-06-05T09:09:33Z</time>
      </trkpt>
      <trkpt lat="44.6161" lon="2.16436">
        <ele>298.15</ele>
        <time>2014-06-05T09:09:34Z</time>
      </trkpt>
      <trkpt lat="44.6161" lon="2.16436">
        <ele>299.11</ele>
        <time>2014-06-05T09:09:35Z</time>
      </trkpt>
      <trkpt lat="44.61604" lon="2.16428">
        <ele>298.15</ele>
        <time>2014-06-05T09:09:51Z</time>
      </trkpt>
      <trkpt lat="44.61596" lon="2.16411">
        <ele>297.67</ele>
        <time>2014-06-05T09:10:08Z</time>
      </trkpt>
      <trkpt lat="44.61584" lon="2.16398">
        <ele>296.22</ele>
        <time>2014-06-05T09:10:24Z</time>
      </trkpt>
      <trkpt lat="44.61569" lon="2.16397">
        <ele>294.78</ele>
        <time>2014-06-05T09:10:42Z</time>
      </trkpt>
      <trkpt lat="44.61567" lon="2.16397">
        <ele>294.78</ele>
        <time>2014-06-05T09:10:45Z</time>
      </trkpt>
      <trkpt lat="44.61557" lon="2.16394">
        <ele>294.3</ele>
        <time>2014-06-05T09:11:03Z</time>
      </trkpt>
      <trkpt lat="44.61533" lon="2.1639">
        <ele>292.38</ele>
        <time>2014-06-05T09:11:25Z</time>
      </trkpt>
      <trkpt lat="44.61518" lon="2.16387">
        <ele>292.38</ele>
        <time>2014-06-05T09:11:42Z</time>
      </trkpt>
      <trkpt lat="44.61504" lon="2.16386">
        <ele>291.9</ele>
        <time>2014-06-05T09:11:59Z</time>
      </trkpt>
      <trkpt lat="44.61486" lon="2.16386">
        <ele>290.94</ele>
        <time>2014-06-05T09:12:15Z</time>
      </trkpt>
      <trkpt lat="44.61475" lon="2.16387">
        <ele>289.97</ele>
        <time>2014-06-05T09:12:25Z</time>
      </trkpt>
      <trkpt lat="44.61453" lon="2.16395">
        <ele>289.97</ele>
        <time>2014-06-05T09:12:43Z</time>
      </trkpt>
      <trkpt lat="44.61443" lon="2.16399">
        <ele>289.49</ele>
        <time>2014-06-05T09:12:52Z</time>
      </trkpt>
      <trkpt lat="44.61429" lon="2.16408">
        <ele>289.01</ele>
        <time>2014-06-05T09:13:07Z</time>
      </trkpt>
      <trkpt lat="44.61413" lon="2.16418">
        <ele>288.05</ele>
        <time>2014-06-05T09:13:23Z</time>
      </trkpt>
      <trkpt lat="44.61393" lon="2.16426">
        <ele>286.61</ele>
        <time>2014-06-05T09:13:41Z</time>
      </trkpt>
      <trkpt lat="44.6139" lon="2.16423">
        <ele>285.65</ele>
        <time>2014-06-05T09:13:45Z</time>
      </trkpt>
      <trkpt lat="44.61378" lon="2.16419">
        <ele>285.17</ele>
        <time>2014-06-05T09:13:55Z</time>
      </trkpt>
      <trkpt lat="44.61364" lon="2.16409">
        <ele>284.21</ele>
        <time>2014-06-05T09:14:09Z</time>
      </trkpt>
      <trkpt lat="44.61365" lon="2.16399">
        <ele>284.21</ele>
        <time>2014-06-05T09:14:22Z</time>
      </trkpt>
      <trkpt lat="44.61366" lon="2.16398">
        <ele>284.69</ele>
        <time>2014-06-05T09:14:23Z</time>
      </trkpt>
      <trkpt lat="44.61367" lon="2.16383">
        <ele>282.77</ele>
        <time>2014-06-05T09:14:35Z</time>
      </trkpt>
      <trkpt lat="44.61373" lon="2.16368">
        <ele>275.07</ele>
        <time>2014-06-05T09:14:51Z</time>
      </trkpt>
      <trkpt lat="44.61375" lon="2.16369">
        <ele>284.69</ele>
        <time>2014-06-05T09:14:53Z</time>
      </trkpt>
      <trkpt lat="44.61378" lon="2.16373">
        <ele>283.25</ele>
        <time>2014-06-05T09:14:55Z</time>
      </trkpt>
      <trkpt lat="44.6137" lon="2.16377">
        <ele>283.73</ele>
        <time>2014-06-05T09:15:10Z</time>
      </trkpt>
      <trkpt lat="44.61378" lon="2.16379">
        <ele>283.73</ele>
        <time>2014-06-05T09:15:26Z</time>
      </trkpt>
      <trkpt lat="44.61381" lon="2.16377">
        <ele>284.21</ele>
        <time>2014-06-05T09:15:44Z</time>
      </trkpt>
      <trkpt lat="44.61378" lon="2.16373">
        <ele>283.25</ele>
        <time>2014-06-05T09:16:00Z</time>
      </trkpt>
      <trkpt lat="44.61378" lon="2.16363">
        <ele>283.73</ele>
        <time>2014-06-05T09:16:23Z</time>
      </trkpt>
      <trkpt lat="44.61376" lon="2.16349">
        <ele>282.77</ele>
        <time>2014-06-05T09:16:43Z</time>
      </trkpt>
      <trkpt lat="44.61388" lon="2.16331">
        <ele>282.28</ele>
        <time>2014-06-05T09:16:58Z</time>
      </trkpt>
      <trkpt lat="44.6139" lon="2.16324">
        <ele>282.77</ele>
        <time>2014-06-05T09:17:04Z</time>
      </trkpt>
      <trkpt lat="44.61396" lon="2.16301">
        <ele>283.25</ele>
        <time>2014-06-05T09:17:22Z</time>
      </trkpt>
      <trkpt lat="44.614" lon="2.16285">
        <ele>282.77</ele>
        <time>2014-06-05T09:17:36Z</time>
      </trkpt>
      <trkpt lat="44.61407" lon="2.16264">
        <ele>281.8</ele>
        <time>2014-06-05T09:17:53Z</time>
      </trkpt>
      <trkpt lat="44.61421" lon="2.16271">
        <ele>283.73</ele>
        <time>2014-06-05T09:18:10Z</time>
      </trkpt>
      <trkpt lat="44.61424" lon="2.16268">
        <ele>283.73</ele>
        <time>2014-06-05T09:18:14Z</time>
      </trkpt>
      <trkpt lat="44.61431" lon="2.16267">
        <ele>285.17</ele>
        <time>2014-06-05T09:18:19Z</time>
      </trkpt>
      <trkpt lat="44.61444" lon="2.16267">
        <ele>285.65</ele>
        <time>2014-06-05T09:18:34Z</time>
      </trkpt>
      <trkpt lat="44.61459" lon="2.16266">
        <ele>288.05</ele>
        <time>2014-06-05T09:18:53Z</time>
      </trkpt>
      <trkpt lat="44.61474" lon="2.16265">
        <ele>291.9</ele>
        <time>2014-06-05T09:19:09Z</time>
      </trkpt>
      <trkpt lat="44.6148" lon="2.16264">
        <ele>291.42</ele>
        <time>2014-06-05T09:19:15Z</time>
      </trkpt>
      <trkpt lat="44.61496" lon="2.16252">
        <ele>292.86</ele>
        <time>2014-06-05T09:19:35Z</time>
      </trkpt>
      <trkpt lat="44.61502" lon="2.16248">
        <ele>293.34</ele>
        <time>2014-06-05T09:19:42Z</time>
      </trkpt>
      <trkpt lat="44.6151" lon="2.16239">
        <ele>294.78</ele>
        <time>2014-06-05T09:19:57Z</time>
      </trkpt>
      <trkpt lat="44.61513" lon="2.16236">
        <ele>293.34</ele>
        <time>2014-06-05T09:20:00Z</time>
      </trkpt>
      <trkpt lat="44.61523" lon="2.16223">
        <ele>293.34</ele>
        <time>2014-06-05T09:20:17Z</time>
      </trkpt>
      <trkpt lat="44.61542" lon="2.16204">
        <ele>292.38</ele>
        <time>2014-06-05T09:20:36Z</time>
      </trkpt>
      <trkpt lat="44.61551" lon="2.1619">
        <ele>291.9</ele>
        <time>2014-06-05T09:20:49Z</time>
      </trkpt>
      <trkpt lat="44.61562" lon="2.16175">
        <ele>289.01</ele>
        <time>2014-06-05T09:21:06Z</time>
      </trkpt>
      <trkpt lat="44.61582" lon="2.16156">
        <ele>289.01</ele>
        <time>2014-06-05T09:21:26Z</time>
      </trkpt>
      <trkpt lat="44.61594" lon="2.16152">
        <ele>288.53</ele>
        <time>2014-06-05T09:21:41Z</time>
      </trkpt>
      <trkpt lat="44.61602" lon="2.1616">
        <ele>288.05</ele>
        <time>2014-06-05T09:21:59Z</time>
      </trkpt>
      <trkpt lat="44.61604" lon="2.16166">
        <ele>289.01</ele>
        <time>2014-06-05T09:22:04Z</time>
      </trkpt>
      <trkpt lat="44.61611" lon="2.16186">
        <ele>288.53</ele>
        <time>2014-06-05T09:22:19Z</time>
      </trkpt>
      <trkpt lat="44.61615" lon="2.16194">
        <ele>288.53</ele>
        <time>2014-06-05T09:22:25Z</time>
      </trkpt>
      <trkpt lat="44.61628" lon="2.16213">
        <ele>288.53</ele>
        <time>2014-06-05T09:22:40Z</time>
      </trkpt>
      <trkpt lat="44.61639" lon="2.16234">
        <ele>289.01</ele>
        <time>2014-06-05T09:22:55Z</time>
      </trkpt>
      <trkpt lat="44.61646" lon="2.16233">
        <ele>289.49</ele>
        <time>2014-06-05T09:23:02Z</time>
      </trkpt>
      <trkpt lat="44.61661" lon="2.16218">
        <ele>289.01</ele>
        <time>2014-06-05T09:23:18Z</time>
      </trkpt>
      <trkpt lat="44.61674" lon="2.16208">
        <ele>288.53</ele>
        <time>2014-06-05T09:23:35Z</time>
      </trkpt>
      <trkpt lat="44.61692" lon="2.16189">
        <ele>288.53</ele>
        <time>2014-06-05T09:23:55Z</time>
      </trkpt>
      <trkpt lat="44.61709" lon="2.16175">
        <ele>288.53</ele>
        <time>2014-06-05T09:24:13Z</time>
      </trkpt>
      <trkpt lat="44.61731" lon="2.16158">
        <ele>288.05</ele>
        <time>2014-06-05T09:24:34Z</time>
      </trkpt>
      <trkpt lat="44.61755" lon="2.16136">
        <ele>288.05</ele>
        <time>2014-06-05T09:24:56Z</time>
      </trkpt>
      <trkpt lat="44.61769" lon="2.16123">
        <ele>288.53</ele>
        <time>2014-06-05T09:25:12Z</time>
      </trkpt>
      <trkpt lat="44.61785" lon="2.16104">
        <ele>289.01</ele>
        <time>2014-06-05T09:25:30Z</time>
      </trkpt>
      <trkpt lat="44.61797" lon="2.16074">
        <ele>287.57</ele>
        <time>2014-06-05T09:25:51Z</time>
      </trkpt>
      <trkpt lat="44.61807" lon="2.16057">
        <ele>285.65</ele>
        <time>2014-06-05T09:26:09Z</time>
      </trkpt>
      <trkpt lat="44.61808" lon="2.16056">
        <ele>288.53</ele>
        <time>2014-06-05T09:26:10Z</time>
      </trkpt>
      <trkpt lat="44.61825" lon="2.16045">
        <ele>286.61</ele>
        <time>2014-06-05T09:26:26Z</time>
      </trkpt>
      <trkpt lat="44.61839" lon="2.16035">
        <ele>286.13</ele>
        <time>2014-06-05T09:26:42Z</time>
      </trkpt>
      <trkpt lat="44.61855" lon="2.16018">
        <ele>285.65</ele>
        <time>2014-06-05T09:27:00Z</time>
      </trkpt>
      <trkpt lat="44.61871" lon="2.16005">
        <ele>286.13</ele>
        <time>2014-06-05T09:27:17Z</time>
      </trkpt>
      <trkpt lat="44.61887" lon="2.15991">
        <ele>285.65</ele>
        <time>2014-06-05T09:27:32Z</time>
      </trkpt>
      <trkpt lat="44.61892" lon="2.15986">
        <ele>282.28</ele>
        <time>2014-06-05T09:27:36Z</time>
      </trkpt>
      <trkpt lat="44.61893" lon="2.15985">
        <ele>288.05</ele>
        <time>2014-06-05T09:27:37Z</time>
      </trkpt>
      <trkpt lat="44.61894" lon="2.15985">
        <ele>284.69</ele>
        <time>2014-06-05T09:27:38Z</time>
      </trkpt>
      <trkpt lat="44.61908" lon="2.1597">
        <ele>284.69</ele>
        <time>2014-06-05T09:27:52Z</time>
      </trkpt>
      <trkpt lat="44.61922" lon="2.15954">
        <ele>285.17</ele>
        <time>2014-06-05T09:28:05Z</time>
      </trkpt>
      <trkpt lat="44.61939" lon="2.15939">
        <ele>284.69</ele>
        <time>2014-06-05T09:28:21Z</time>
      </trkpt>
      <trkpt lat="44.61954" lon="2.15928">
        <ele>284.21</ele>
        <time>2014-06-05T09:28:35Z</time>
      </trkpt>
      <trkpt lat="44.61962" lon="2.15921">
        <ele>283.73</ele>
        <time>2014-06-05T09:28:44Z</time>
      </trkpt>
      <trkpt lat="44.61971" lon="2.15888">
        <ele>283.25</ele>
        <time>2014-06-05T09:29:04Z</time>
      </trkpt>
      <trkpt lat="44.61974" lon="2.15868">
        <ele>282.77</ele>
        <time>2014-06-05T09:29:17Z</time>
      </trkpt>
      <trkpt lat="44.61982" lon="2.15846">
        <ele>282.28</ele>
        <time>2014-06-05T09:29:32Z</time>
      </trkpt>
      <trkpt lat="44.61985" lon="2.1584">
        <ele>282.28</ele>
        <time>2014-06-05T09:29:38Z</time>
      </trkpt>
      <trkpt lat="44.61988" lon="2.15819">
        <ele>283.25</ele>
        <time>2014-06-05T09:29:52Z</time>
      </trkpt>
      <trkpt lat="44.61994" lon="2.15789">
        <ele>284.21</ele>
        <time>2014-06-05T09:30:10Z</time>
      </trkpt>
      <trkpt lat="44.62001" lon="2.15756">
        <ele>285.17</ele>
        <time>2014-06-05T09:30:30Z</time>
      </trkpt>
      <trkpt lat="44.62002" lon="2.15754">
        <ele>284.69</ele>
        <time>2014-06-05T09:30:32Z</time>
      </trkpt>
      <trkpt lat="44.62005" lon="2.15726">
        <ele>286.13</ele>
        <time>2014-06-05T09:30:52Z</time>
      </trkpt>
      <trkpt lat="44.62008" lon="2.15713">
        <ele>286.13</ele>
        <time>2014-06-05T09:31:03Z</time>
      </trkpt>
      <trkpt lat="44.6201" lon="2.157">
        <ele>286.61</ele>
        <time>2014-06-05T09:31:18Z</time>
      </trkpt>
      <trkpt lat="44.6201" lon="2.15686">
        <ele>287.09</ele>
        <time>2014-06-05T09:31:33Z</time>
      </trkpt>
      <trkpt lat="44.62013" lon="2.15657">
        <ele>288.05</ele>
        <time>2014-06-05T09:31:52Z</time>
      </trkpt>
      <trkpt lat="44.62016" lon="2.15634">
        <ele>289.01</ele>
        <time>2014-06-05T09:32:08Z</time>
      </trkpt>
      <trkpt lat="44.62019" lon="2.15608">
        <ele>290.94</ele>
        <time>2014-06-05T09:32:23Z</time>
      </trkpt>
      <trkpt lat="44.62019" lon="2.15601">
        <ele>291.42</ele>
        <time>2014-06-05T09:32:28Z</time>
      </trkpt>
      <trkpt lat="44.62021" lon="2.15594">
        <ele>290.46</ele>
        <time>2014-06-05T09:32:42Z</time>
      </trkpt>
      <trkpt lat="44.62019" lon="2.15581">
        <ele>291.9</ele>
        <time>2014-06-05T09:32:54Z</time>
      </trkpt>
      <trkpt lat="44.6202" lon="2.15555">
        <ele>292.38</ele>
        <time>2014-06-05T09:33:10Z</time>
      </trkpt>
      <trkpt lat="44.62021" lon="2.15542">
        <ele>292.86</ele>
        <time>2014-06-05T09:33:24Z</time>
      </trkpt>
      <trkpt lat="44.62021" lon="2.15513">
        <ele>294.3</ele>
        <time>2014-06-05T09:33:43Z</time>
      </trkpt>
      <trkpt lat="44.62021" lon="2.15489">
        <ele>294.3</ele>
        <time>2014-06-05T09:33:59Z</time>
      </trkpt>
      <trkpt lat="44.62021" lon="2.15463">
        <ele>294.3</ele>
        <time>2014-06-05T09:34:17Z</time>
      </trkpt>
      <trkpt lat="44.62019" lon="2.15441">
        <ele>293.82</ele>
        <time>2014-06-05T09:34:33Z</time>
      </trkpt>
      <trkpt lat="44.62019" lon="2.1541">
        <ele>292.86</ele>
        <time>2014-06-05T09:34:52Z</time>
      </trkpt>
      <trkpt lat="44.62018" lon="2.15382">
        <ele>292.38</ele>
        <time>2014-06-05T09:35:10Z</time>
      </trkpt>
      <trkpt lat="44.62016" lon="2.15357">
        <ele>291.42</ele>
        <time>2014-06-05T09:35:26Z</time>
      </trkpt>
      <trkpt lat="44.62017" lon="2.15352">
        <ele>291.42</ele>
        <time>2014-06-05T09:35:29Z</time>
      </trkpt>
      <trkpt lat="44.62021" lon="2.15315">
        <ele>290.94</ele>
        <time>2014-06-05T09:35:52Z</time>
      </trkpt>
      <trkpt lat="44.62025" lon="2.15283">
        <ele>289.97</ele>
        <time>2014-06-05T09:36:13Z</time>
      </trkpt>
      <trkpt lat="44.62033" lon="2.15267">
        <ele>289.49</ele>
        <time>2014-06-05T09:36:27Z</time>
      </trkpt>
      <trkpt lat="44.62046" lon="2.15249">
        <ele>289.01</ele>
        <time>2014-06-05T09:36:42Z</time>
      </trkpt>
      <trkpt lat="44.62058" lon="2.15229">
        <ele>288.53</ele>
        <time>2014-06-05T09:36:59Z</time>
      </trkpt>
      <trkpt lat="44.62073" lon="2.15201">
        <ele>287.09</ele>
        <time>2014-06-05T09:37:18Z</time>
      </trkpt>
      <trkpt lat="44.62084" lon="2.15176">
        <ele>287.57</ele>
        <time>2014-06-05T09:37:38Z</time>
      </trkpt>
      <trkpt lat="44.62097" lon="2.15151">
        <ele>285.65</ele>
        <time>2014-06-05T09:37:56Z</time>
      </trkpt>
      <trkpt lat="44.62112" lon="2.15127">
        <ele>284.21</ele>
        <time>2014-06-05T09:38:15Z</time>
      </trkpt>
      <trkpt lat="44.6212" lon="2.15099">
        <ele>283.73</ele>
        <time>2014-06-05T09:38:34Z</time>
      </trkpt>
      <trkpt lat="44.62131" lon="2.15064">
        <ele>282.77</ele>
        <time>2014-06-05T09:38:54Z</time>
      </trkpt>
      <trkpt lat="44.62131" lon="2.15026">
        <ele>280.84</ele>
        <time>2014-06-05T09:39:14Z</time>
      </trkpt>
      <trkpt lat="44.62136" lon="2.14999">
        <ele>280.36</ele>
        <time>2014-06-05T09:39:31Z</time>
      </trkpt>
      <trkpt lat="44.62142" lon="2.14982">
        <ele>279.4</ele>
        <time>2014-06-05T09:39:43Z</time>
      </trkpt>
      <trkpt lat="44.62144" lon="2.14974">
        <ele>279.4</ele>
        <time>2014-06-05T09:39:48Z</time>
      </trkpt>
      <trkpt lat="44.6215" lon="2.14956">
        <ele>277.96</ele>
        <time>2014-06-05T09:40:00Z</time>
      </trkpt>
      <trkpt lat="44.62156" lon="2.14921">
        <ele>276.52</ele>
        <time>2014-06-05T09:40:21Z</time>
      </trkpt>
      <trkpt lat="44.62162" lon="2.14897">
        <ele>275.07</ele>
        <time>2014-06-05T09:40:38Z</time>
      </trkpt>
      <trkpt lat="44.62164" lon="2.14886">
        <ele>273.63</ele>
        <time>2014-06-05T09:40:51Z</time>
      </trkpt>
      <trkpt lat="44.62168" lon="2.14866">
        <ele>272.67</ele>
        <time>2014-06-05T09:41:04Z</time>
      </trkpt>
      <trkpt lat="44.62171" lon="2.14845">
        <ele>270.75</ele>
        <time>2014-06-05T09:41:18Z</time>
      </trkpt>
      <trkpt lat="44.62174" lon="2.14823">
        <ele>268.35</ele>
        <time>2014-06-05T09:41:32Z</time>
      </trkpt>
      <trkpt lat="44.62176" lon="2.14813">
        <ele>267.38</ele>
        <time>2014-06-05T09:41:39Z</time>
      </trkpt>
      <trkpt lat="44.6218" lon="2.14797">
        <ele>266.42</ele>
        <time>2014-06-05T09:41:53Z</time>
      </trkpt>
      <trkpt lat="44.62187" lon="2.14772">
        <ele>264.98</ele>
        <time>2014-06-05T09:42:09Z</time>
      </trkpt>
      <trkpt lat="44.62194" lon="2.14762">
        <ele>264.5</ele>
        <time>2014-06-05T09:42:21Z</time>
      </trkpt>
      <trkpt lat="44.62196" lon="2.14764">
        <ele>264.98</ele>
        <time>2014-06-05T09:42:23Z</time>
      </trkpt>
      <trkpt lat="44.62204" lon="2.14772">
        <ele>264.5</ele>
        <time>2014-06-05T09:42:34Z</time>
      </trkpt>
      <trkpt lat="44.62209" lon="2.14778">
        <ele>265.46</ele>
        <time>2014-06-05T09:42:41Z</time>
      </trkpt>
      <trkpt lat="44.62211" lon="2.1478">
        <ele>265.94</ele>
        <time>2014-06-05T09:42:43Z</time>
      </trkpt>
      <trkpt lat="44.62228" lon="2.148">
        <ele>267.38</ele>
        <time>2014-06-05T09:43:00Z</time>
      </trkpt>
      <trkpt lat="44.6224" lon="2.14808">
        <ele>268.83</ele>
        <time>2014-06-05T09:43:16Z</time>
      </trkpt>
      <trkpt lat="44.62253" lon="2.14808">
        <ele>270.27</ele>
        <time>2014-06-05T09:43:29Z</time>
      </trkpt>
      <trkpt lat="44.6227" lon="2.14811">
        <ele>271.71</ele>
        <time>2014-06-05T09:43:44Z</time>
      </trkpt>
      <trkpt lat="44.6228" lon="2.14816">
        <ele>272.67</ele>
        <time>2014-06-05T09:43:54Z</time>
      </trkpt>
      <trkpt lat="44.62295" lon="2.14831">
        <ele>273.63</ele>
        <time>2014-06-05T09:44:09Z</time>
      </trkpt>
      <trkpt lat="44.62308" lon="2.14843">
        <ele>275.07</ele>
        <time>2014-06-05T09:44:22Z</time>
      </trkpt>
      <trkpt lat="44.6232" lon="2.14853">
        <ele>276.04</ele>
        <time>2014-06-05T09:44:35Z</time>
      </trkpt>
      <trkpt lat="44.6233" lon="2.14861">
        <ele>277.48</ele>
        <time>2014-06-05T09:44:42Z</time>
      </trkpt>
      <trkpt lat="44.62344" lon="2.14872">
        <ele>277.48</ele>
        <time>2014-06-05T09:44:56Z</time>
      </trkpt>
      <trkpt lat="44.62358" lon="2.14888">
        <ele>277.96</ele>
        <time>2014-06-05T09:45:12Z</time>
      </trkpt>
      <trkpt lat="44.62375" lon="2.14903">
        <ele>278.92</ele>
        <time>2014-06-05T09:45:28Z</time>
      </trkpt>
      <trkpt lat="44.62391" lon="2.14919">
        <ele>278.44</ele>
        <time>2014-06-05T09:45:43Z</time>
      </trkpt>
      <trkpt lat="44.62392" lon="2.1492">
        <ele>281.8</ele>
        <time>2014-06-05T09:45:44Z</time>
      </trkpt>
      <trkpt lat="44.62404" lon="2.14929">
        <ele>281.8</ele>
        <time>2014-06-05T09:45:58Z</time>
      </trkpt>
      <trkpt lat="44.62416" lon="2.14939">
        <ele>282.77</ele>
        <time>2014-06-05T09:46:12Z</time>
      </trkpt>
      <trkpt lat="44.62421" lon="2.14944">
        <ele>283.25</ele>
        <time>2014-06-05T09:46:24Z</time>
      </trkpt>
      <trkpt lat="44.62435" lon="2.14948">
        <ele>283.73</ele>
        <time>2014-06-05T09:46:35Z</time>
      </trkpt>
      <trkpt lat="44.62438" lon="2.14949">
        <ele>283.73</ele>
        <time>2014-06-05T09:46:39Z</time>
      </trkpt>
      <trkpt lat="44.62456" lon="2.14958">
        <ele>284.21</ele>
        <time>2014-06-05T09:46:53Z</time>
      </trkpt>
      <trkpt lat="44.62476" lon="2.14964">
        <ele>285.17</ele>
        <time>2014-06-05T09:47:11Z</time>
      </trkpt>
      <trkpt lat="44.62493" lon="2.14967">
        <ele>285.65</ele>
        <time>2014-06-05T09:47:25Z</time>
      </trkpt>
      <trkpt lat="44.62494" lon="2.14967">
        <ele>284.21</ele>
        <time>2014-06-05T09:47:26Z</time>
      </trkpt>
      <trkpt lat="44.62495" lon="2.14968">
        <ele>287.09</ele>
        <time>2014-06-05T09:47:27Z</time>
      </trkpt>
      <trkpt lat="44.62497" lon="2.14968">
        <ele>285.17</ele>
        <time>2014-06-05T09:47:28Z</time>
      </trkpt>
      <trkpt lat="44.62499" lon="2.14968">
        <ele>285.65</ele>
        <time>2014-06-05T09:47:29Z</time>
      </trkpt>
      <trkpt lat="44.62511" lon="2.1497">
        <ele>286.13</ele>
        <time>2014-06-05T09:47:42Z</time>
      </trkpt>
      <trkpt lat="44.62532" lon="2.14979">
        <ele>286.61</ele>
        <time>2014-06-05T09:48:00Z</time>
      </trkpt>
      <trkpt lat="44.6255" lon="2.14984">
        <ele>286.61</ele>
        <time>2014-06-05T09:48:15Z</time>
      </trkpt>
      <trkpt lat="44.62565" lon="2.1499">
        <ele>286.13</ele>
        <time>2014-06-05T09:48:26Z</time>
      </trkpt>
      <trkpt lat="44.6257" lon="2.14993">
        <ele>286.13</ele>
        <time>2014-06-05T09:48:31Z</time>
      </trkpt>
      <trkpt lat="44.6258" lon="2.14986">
        <ele>285.65</ele>
        <time>2014-06-05T09:48:42Z</time>
      </trkpt>
      <trkpt lat="44.62579" lon="2.14958">
        <ele>285.17</ele>
        <time>2014-06-05T09:48:59Z</time>
      </trkpt>
      <trkpt lat="44.62575" lon="2.14937">
        <ele>283.73</ele>
        <time>2014-06-05T09:49:12Z</time>
      </trkpt>
      <trkpt lat="44.62576" lon="2.14931">
        <ele>283.25</ele>
        <time>2014-06-05T09:49:17Z</time>
      </trkpt>
      <trkpt lat="44.62575" lon="2.14929">
        <ele>283.25</ele>
        <time>2014-06-05T09:49:18Z</time>
      </trkpt>
      <trkpt lat="44.62573" lon="2.14918">
        <ele>282.28</ele>
        <time>2014-06-05T09:49:30Z</time>
      </trkpt>
      <trkpt lat="44.6257" lon="2.14914">
        <ele>282.77</ele>
        <time>2014-06-05T09:49:43Z</time>
      </trkpt>
      <trkpt lat="44.6257" lon="2.1491">
        <ele>281.8</ele>
        <time>2014-06-05T09:49:50Z</time>
      </trkpt>
      <trkpt lat="44.6257" lon="2.14908">
        <ele>282.28</ele>
        <time>2014-06-05T09:49:51Z</time>
      </trkpt>
      <trkpt lat="44.62569" lon="2.14899">
        <ele>281.32</ele>
        <time>2014-06-05T09:49:58Z</time>
      </trkpt>
      <trkpt lat="44.62564" lon="2.14886">
        <ele>280.36</ele>
        <time>2014-06-05T09:50:07Z</time>
      </trkpt>
      <trkpt lat="44.62564" lon="2.14884">
        <ele>280.36</ele>
        <time>2014-06-05T09:50:08Z</time>
      </trkpt>
      <trkpt lat="44.62563" lon="2.14868">
        <ele>279.4</ele>
        <time>2014-06-05T09:50:19Z</time>
      </trkpt>
      <trkpt lat="44.62563" lon="2.14866">
        <ele>279.4</ele>
        <time>2014-06-05T09:50:20Z</time>
      </trkpt>
      <trkpt lat="44.62563" lon="2.14864">
        <ele>279.4</ele>
        <time>2014-06-05T09:50:21Z</time>
      </trkpt>
      <trkpt lat="44.62562" lon="2.14862">
        <ele>279.4</ele>
        <time>2014-06-05T09:50:22Z</time>
      </trkpt>
      <trkpt lat="44.62562" lon="2.14859">
        <ele>278.92</ele>
        <time>2014-06-05T09:50:23Z</time>
      </trkpt>
      <trkpt lat="44.62561" lon="2.14856">
        <ele>278.92</ele>
        <time>2014-06-05T09:50:24Z</time>
      </trkpt>
      <trkpt lat="44.6256" lon="2.14841">
        <ele>278.44</ele>
        <time>2014-06-05T09:50:35Z</time>
      </trkpt>
      <trkpt lat="44.6256" lon="2.14839">
        <ele>277.96</ele>
        <time>2014-06-05T09:50:36Z</time>
      </trkpt>
      <trkpt lat="44.62565" lon="2.14823">
        <ele>277.96</ele>
        <time>2014-06-05T09:50:49Z</time>
      </trkpt>
      <trkpt lat="44.62571" lon="2.14808">
        <ele>276.52</ele>
        <time>2014-06-05T09:51:01Z</time>
      </trkpt>
      <trkpt lat="44.62576" lon="2.14789">
        <ele>275.07</ele>
        <time>2014-06-05T09:51:14Z</time>
      </trkpt>
      <trkpt lat="44.62579" lon="2.14787">
        <ele>274.11</ele>
        <time>2014-06-05T09:51:27Z</time>
      </trkpt>
      <trkpt lat="44.6258" lon="2.14781">
        <ele>273.15</ele>
        <time>2014-06-05T09:51:33Z</time>
      </trkpt>
      <trkpt lat="44.62583" lon="2.14775">
        <ele>273.15</ele>
        <time>2014-06-05T09:51:43Z</time>
      </trkpt>
      <trkpt lat="44.62589" lon="2.14762">
        <ele>271.23</ele>
        <time>2014-06-05T09:51:58Z</time>
      </trkpt>
      <trkpt lat="44.62594" lon="2.14743">
        <ele>269.31</ele>
        <time>2014-06-05T09:52:13Z</time>
      </trkpt>
      <trkpt lat="44.62597" lon="2.14726">
        <ele>268.35</ele>
        <time>2014-06-05T09:52:24Z</time>
      </trkpt>
      <trkpt lat="44.62596" lon="2.1471">
        <ele>265.94</ele>
        <time>2014-06-05T09:52:36Z</time>
      </trkpt>
      <trkpt lat="44.62597" lon="2.14705">
        <ele>265.94</ele>
        <time>2014-06-05T09:52:40Z</time>
      </trkpt>
      <trkpt lat="44.62597" lon="2.14703">
        <ele>265.46</ele>
        <time>2014-06-05T09:52:41Z</time>
      </trkpt>
      <trkpt lat="44.62597" lon="2.14702">
        <ele>265.46</ele>
        <time>2014-06-05T09:52:42Z</time>
      </trkpt>
      <trkpt lat="44.62598" lon="2.14677">
        <ele>264.02</ele>
        <time>2014-06-05T09:52:57Z</time>
      </trkpt>
      <trkpt lat="44.62597" lon="2.14649">
        <ele>262.58</ele>
        <time>2014-06-05T09:53:13Z</time>
      </trkpt>
      <trkpt lat="44.62601" lon="2.14628">
        <ele>259.21</ele>
        <time>2014-06-05T09:53:25Z</time>
      </trkpt>
      <trkpt lat="44.62601" lon="2.14626">
        <ele>262.58</ele>
        <time>2014-06-05T09:53:26Z</time>
      </trkpt>
      <trkpt lat="44.62601" lon="2.14619">
        <ele>258.73</ele>
        <time>2014-06-05T09:53:31Z</time>
      </trkpt>
      <trkpt lat="44.62601" lon="2.14618">
        <ele>262.1</ele>
        <time>2014-06-05T09:53:32Z</time>
      </trkpt>
      <trkpt lat="44.62602" lon="2.14603">
        <ele>259.21</ele>
        <time>2014-06-05T09:53:45Z</time>
      </trkpt>
      <trkpt lat="44.62602" lon="2.14585">
        <ele>258.25</ele>
        <time>2014-06-05T09:53:59Z</time>
      </trkpt>
      <trkpt lat="44.62606" lon="2.14552">
        <ele>256.81</ele>
        <time>2014-06-05T09:54:18Z</time>
      </trkpt>
      <trkpt lat="44.62607" lon="2.14525">
        <ele>254.41</ele>
        <time>2014-06-05T09:54:36Z</time>
      </trkpt>
      <trkpt lat="44.6261" lon="2.14511">
        <ele>253.93</ele>
        <time>2014-06-05T09:54:45Z</time>
      </trkpt>
      <trkpt lat="44.62609" lon="2.14496">
        <ele>252.96</ele>
        <time>2014-06-05T09:54:56Z</time>
      </trkpt>
      <trkpt lat="44.62608" lon="2.14495">
        <ele>252</ele>
        <time>2014-06-05T09:54:57Z</time>
      </trkpt>
      <trkpt lat="44.62608" lon="2.14482">
        <ele>252</ele>
        <time>2014-06-05T09:55:06Z</time>
      </trkpt>
      <trkpt lat="44.62609" lon="2.14457">
        <ele>251.52</ele>
        <time>2014-06-05T09:55:20Z</time>
      </trkpt>
      <trkpt lat="44.62615" lon="2.14435">
        <ele>251.04</ele>
        <time>2014-06-05T09:55:32Z</time>
      </trkpt>
      <trkpt lat="44.62615" lon="2.14427">
        <ele>251.04</ele>
        <time>2014-06-05T09:55:39Z</time>
      </trkpt>
      <trkpt lat="44.62615" lon="2.14425">
        <ele>251.52</ele>
        <time>2014-06-05T09:55:40Z</time>
      </trkpt>
      <trkpt lat="44.62616" lon="2.14422">
        <ele>250.56</ele>
        <time>2014-06-05T09:55:41Z</time>
      </trkpt>
      <trkpt lat="44.62617" lon="2.14414">
        <ele>251.52</ele>
        <time>2014-06-05T09:55:46Z</time>
      </trkpt>
      <trkpt lat="44.62618" lon="2.14409">
        <ele>251.04</ele>
        <time>2014-06-05T09:55:49Z</time>
      </trkpt>
      <trkpt lat="44.62618" lon="2.14407">
        <ele>250.56</ele>
        <time>2014-06-05T09:55:50Z</time>
      </trkpt>
      <trkpt lat="44.62618" lon="2.14405">
        <ele>250.56</ele>
        <time>2014-06-05T09:55:51Z</time>
      </trkpt>
      <trkpt lat="44.6262" lon="2.14378">
        <ele>250.08</ele>
        <time>2014-06-05T09:56:06Z</time>
      </trkpt>
      <trkpt lat="44.62618" lon="2.14351">
        <ele>250.56</ele>
        <time>2014-06-05T09:56:21Z</time>
      </trkpt>
      <trkpt lat="44.62619" lon="2.14347">
        <ele>250.56</ele>
        <time>2014-06-05T09:56:34Z</time>
      </trkpt>
      <trkpt lat="44.62614" lon="2.14336">
        <ele>250.56</ele>
        <time>2014-06-05T09:56:51Z</time>
      </trkpt>
      <trkpt lat="44.62607" lon="2.14317">
        <ele>251.04</ele>
        <time>2014-06-05T09:57:04Z</time>
      </trkpt>
      <trkpt lat="44.62601" lon="2.14295">
        <ele>251.04</ele>
        <time>2014-06-05T09:57:17Z</time>
      </trkpt>
      <trkpt lat="44.62596" lon="2.14276">
        <ele>251.04</ele>
        <time>2014-06-05T09:57:30Z</time>
      </trkpt>
      <trkpt lat="44.62592" lon="2.14265">
        <ele>251.04</ele>
        <time>2014-06-05T09:57:41Z</time>
      </trkpt>
      <trkpt lat="44.62591" lon="2.14258">
        <ele>251.52</ele>
        <time>2014-06-05T09:57:57Z</time>
      </trkpt>
      <trkpt lat="44.62585" lon="2.14242">
        <ele>251.04</ele>
        <time>2014-06-05T09:58:12Z</time>
      </trkpt>
      <trkpt lat="44.62578" lon="2.1423">
        <ele>252</ele>
        <time>2014-06-05T09:58:22Z</time>
      </trkpt>
      <trkpt lat="44.62577" lon="2.14229">
        <ele>252</ele>
        <time>2014-06-05T09:58:23Z</time>
      </trkpt>
      <trkpt lat="44.62571" lon="2.14219">
        <ele>252</ele>
        <time>2014-06-05T09:58:31Z</time>
      </trkpt>
      <trkpt lat="44.6257" lon="2.14218">
        <ele>252.48</ele>
        <time>2014-06-05T09:58:32Z</time>
      </trkpt>
      <trkpt lat="44.62569" lon="2.14216">
        <ele>252.48</ele>
        <time>2014-06-05T09:58:33Z</time>
      </trkpt>
      <trkpt lat="44.62559" lon="2.142">
        <ele>253.44</ele>
        <time>2014-06-05T09:58:46Z</time>
      </trkpt>
      <trkpt lat="44.62554" lon="2.1419">
        <ele>253.44</ele>
        <time>2014-06-05T09:59:00Z</time>
      </trkpt>
      <trkpt lat="44.62551" lon="2.14188">
        <ele>253.44</ele>
        <time>2014-06-05T09:59:14Z</time>
      </trkpt>
      <trkpt lat="44.62547" lon="2.14177">
        <ele>254.89</ele>
        <time>2014-06-05T09:59:42Z</time>
      </trkpt>
      <trkpt lat="44.62538" lon="2.14163">
        <ele>256.33</ele>
        <time>2014-06-05T10:00:00Z</time>
      </trkpt>
      <trkpt lat="44.62536" lon="2.14139">
        <ele>258.25</ele>
        <time>2014-06-05T10:00:18Z</time>
      </trkpt>
      <trkpt lat="44.62533" lon="2.14116">
        <ele>260.65</ele>
        <time>2014-06-05T10:00:37Z</time>
      </trkpt>
      <trkpt lat="44.6253" lon="2.141">
        <ele>261.14</ele>
        <time>2014-06-05T10:00:51Z</time>
      </trkpt>
      <trkpt lat="44.62533" lon="2.14088">
        <ele>260.65</ele>
        <time>2014-06-05T10:01:09Z</time>
      </trkpt>
      <trkpt lat="44.6253" lon="2.14069">
        <ele>261.62</ele>
        <time>2014-06-05T10:01:27Z</time>
      </trkpt>
      <trkpt lat="44.62527" lon="2.14065">
        <ele>263.06</ele>
        <time>2014-06-05T10:01:32Z</time>
      </trkpt>
      <trkpt lat="44.62526" lon="2.14049">
        <ele>263.06</ele>
        <time>2014-06-05T10:01:42Z</time>
      </trkpt>
      <trkpt lat="44.62528" lon="2.14033">
        <ele>263.54</ele>
        <time>2014-06-05T10:01:57Z</time>
      </trkpt>
      <trkpt lat="44.62525" lon="2.14007">
        <ele>262.58</ele>
        <time>2014-06-05T10:02:14Z</time>
      </trkpt>
      <trkpt lat="44.62523" lon="2.13993">
        <ele>261.62</ele>
        <time>2014-06-05T10:02:29Z</time>
      </trkpt>
      <trkpt lat="44.62522" lon="2.13981">
        <ele>261.62</ele>
        <time>2014-06-05T10:02:37Z</time>
      </trkpt>
      <trkpt lat="44.6252" lon="2.13962">
        <ele>258.73</ele>
        <time>2014-06-05T10:02:52Z</time>
      </trkpt>
      <trkpt lat="44.62516" lon="2.13944">
        <ele>258.25</ele>
        <time>2014-06-05T10:03:07Z</time>
      </trkpt>
      <trkpt lat="44.62507" lon="2.13913">
        <ele>255.37</ele>
        <time>2014-06-05T10:03:26Z</time>
      </trkpt>
      <trkpt lat="44.62499" lon="2.13892">
        <ele>253.44</ele>
        <time>2014-06-05T10:03:42Z</time>
      </trkpt>
      <trkpt lat="44.62493" lon="2.1387">
        <ele>252.48</ele>
        <time>2014-06-05T10:03:59Z</time>
      </trkpt>
      <trkpt lat="44.62485" lon="2.1384">
        <ele>251.52</ele>
        <time>2014-06-05T10:04:18Z</time>
      </trkpt>
      <trkpt lat="44.62481" lon="2.13828">
        <ele>251.04</ele>
        <time>2014-06-05T10:04:26Z</time>
      </trkpt>
      <trkpt lat="44.62477" lon="2.13813">
        <ele>250.56</ele>
        <time>2014-06-05T10:04:37Z</time>
      </trkpt>
      <trkpt lat="44.62475" lon="2.13809">
        <ele>250.56</ele>
        <time>2014-06-05T10:04:39Z</time>
      </trkpt>
      <trkpt lat="44.62471" lon="2.13793">
        <ele>250.56</ele>
        <time>2014-06-05T10:04:52Z</time>
      </trkpt>
      <trkpt lat="44.62459" lon="2.1377">
        <ele>250.56</ele>
        <time>2014-06-05T10:05:07Z</time>
      </trkpt>
      <trkpt lat="44.62457" lon="2.13744">
        <ele>251.04</ele>
        <time>2014-06-05T10:05:24Z</time>
      </trkpt>
      <trkpt lat="44.62454" lon="2.13724">
        <ele>251.52</ele>
        <time>2014-06-05T10:05:37Z</time>
      </trkpt>
      <trkpt lat="44.62451" lon="2.137">
        <ele>252</ele>
        <time>2014-06-05T10:05:54Z</time>
      </trkpt>
      <trkpt lat="44.62442" lon="2.13674">
        <ele>252.48</ele>
        <time>2014-06-05T10:06:13Z</time>
      </trkpt>
      <trkpt lat="44.62428" lon="2.1365">
        <ele>254.41</ele>
        <time>2014-06-05T10:06:31Z</time>
      </trkpt>
      <trkpt lat="44.62422" lon="2.13636">
        <ele>254.89</ele>
        <time>2014-06-05T10:06:39Z</time>
      </trkpt>
      <trkpt lat="44.62408" lon="2.13619">
        <ele>255.37</ele>
        <time>2014-06-05T10:06:57Z</time>
      </trkpt>
      <trkpt lat="44.62401" lon="2.13614">
        <ele>254.41</ele>
        <time>2014-06-05T10:07:16Z</time>
      </trkpt>
      <trkpt lat="44.62393" lon="2.13613">
        <ele>253.93</ele>
        <time>2014-06-05T10:07:41Z</time>
      </trkpt>
      <trkpt lat="44.62392" lon="2.13613">
        <ele>254.89</ele>
        <time>2014-06-05T10:07:47Z</time>
      </trkpt>
      <trkpt lat="44.62381" lon="2.13618">
        <ele>254.89</ele>
        <time>2014-06-05T10:08:02Z</time>
      </trkpt>
      <trkpt lat="44.62359" lon="2.1362">
        <ele>257.77</ele>
        <time>2014-06-05T10:08:19Z</time>
      </trkpt>
      <trkpt lat="44.62337" lon="2.13618">
        <ele>258.25</ele>
        <time>2014-06-05T10:08:36Z</time>
      </trkpt>
      <trkpt lat="44.62311" lon="2.13619">
        <ele>259.69</ele>
        <time>2014-06-05T10:08:57Z</time>
      </trkpt>
      <trkpt lat="44.6229" lon="2.13619">
        <ele>260.65</ele>
        <time>2014-06-05T10:09:15Z</time>
      </trkpt>
      <trkpt lat="44.62261" lon="2.13619">
        <ele>262.58</ele>
        <time>2014-06-05T10:09:37Z</time>
      </trkpt>
      <trkpt lat="44.62237" lon="2.13621">
        <ele>263.06</ele>
        <time>2014-06-05T10:09:56Z</time>
      </trkpt>
      <trkpt lat="44.62218" lon="2.1364">
        <ele>262.58</ele>
        <time>2014-06-05T10:10:13Z</time>
      </trkpt>
      <trkpt lat="44.62197" lon="2.13667">
        <ele>262.1</ele>
        <time>2014-06-05T10:10:31Z</time>
      </trkpt>
      <trkpt lat="44.62169" lon="2.13674">
        <ele>262.58</ele>
        <time>2014-06-05T10:10:53Z</time>
      </trkpt>
      <trkpt lat="44.62144" lon="2.13673">
        <ele>262.1</ele>
        <time>2014-06-05T10:11:11Z</time>
      </trkpt>
      <trkpt lat="44.62124" lon="2.13668">
        <ele>262.58</ele>
        <time>2014-06-05T10:11:27Z</time>
      </trkpt>
      <trkpt lat="44.62102" lon="2.13663">
        <ele>263.06</ele>
        <time>2014-06-05T10:11:41Z</time>
      </trkpt>
      <trkpt lat="44.62081" lon="2.13667">
        <ele>263.54</ele>
        <time>2014-06-05T10:11:58Z</time>
      </trkpt>
      <trkpt lat="44.62052" lon="2.13673">
        <ele>264.02</ele>
        <time>2014-06-05T10:12:18Z</time>
      </trkpt>
      <trkpt lat="44.6203" lon="2.13677">
        <ele>265.46</ele>
        <time>2014-06-05T10:12:36Z</time>
      </trkpt>
      <trkpt lat="44.62" lon="2.13678">
        <ele>267.38</ele>
        <time>2014-06-05T10:12:56Z</time>
      </trkpt>
      <trkpt lat="44.61971" lon="2.13676">
        <ele>267.38</ele>
        <time>2014-06-05T10:13:17Z</time>
      </trkpt>
      <trkpt lat="44.61949" lon="2.13673">
        <ele>265.94</ele>
        <time>2014-06-05T10:13:33Z</time>
      </trkpt>
      <trkpt lat="44.61921" lon="2.13662">
        <ele>266.9</ele>
        <time>2014-06-05T10:13:54Z</time>
      </trkpt>
      <trkpt lat="44.61901" lon="2.13648">
        <ele>266.42</ele>
        <time>2014-06-05T10:14:10Z</time>
      </trkpt>
      <trkpt lat="44.61876" lon="2.13636">
        <ele>267.38</ele>
        <time>2014-06-05T10:14:29Z</time>
      </trkpt>
      <trkpt lat="44.61864" lon="2.1363">
        <ele>268.35</ele>
        <time>2014-06-05T10:14:38Z</time>
      </trkpt>
      <trkpt lat="44.61851" lon="2.13611">
        <ele>269.79</ele>
        <time>2014-06-05T10:14:53Z</time>
      </trkpt>
      <trkpt lat="44.61829" lon="2.13584">
        <ele>271.23</ele>
        <time>2014-06-05T10:15:12Z</time>
      </trkpt>
      <trkpt lat="44.6181" lon="2.13557">
        <ele>273.15</ele>
        <time>2014-06-05T10:15:31Z</time>
      </trkpt>
      <trkpt lat="44.61789" lon="2.13523">
        <ele>273.63</ele>
        <time>2014-06-05T10:15:52Z</time>
      </trkpt>
      <trkpt lat="44.61773" lon="2.13488">
        <ele>274.59</ele>
        <time>2014-06-05T10:16:12Z</time>
      </trkpt>
      <trkpt lat="44.61768" lon="2.13478">
        <ele>275.07</ele>
        <time>2014-06-05T10:16:29Z</time>
      </trkpt>
      <trkpt lat="44.61772" lon="2.13483">
        <ele>275.07</ele>
        <time>2014-06-05T10:16:47Z</time>
      </trkpt>
      <trkpt lat="44.61764" lon="2.13488">
        <ele>275.07</ele>
        <time>2014-06-05T10:16:59Z</time>
      </trkpt>
      <trkpt lat="44.61763" lon="2.13489">
        <ele>274.59</ele>
        <time>2014-06-05T10:17:00Z</time>
      </trkpt>
      <trkpt lat="44.6175" lon="2.13498">
        <ele>274.59</ele>
        <time>2014-06-05T10:17:15Z</time>
      </trkpt>
      <trkpt lat="44.61737" lon="2.13504">
        <ele>275.07</ele>
        <time>2014-06-05T10:17:29Z</time>
      </trkpt>
      <trkpt lat="44.61714" lon="2.13508">
        <ele>275.56</ele>
        <time>2014-06-05T10:17:48Z</time>
      </trkpt>
      <trkpt lat="44.61714" lon="2.13507">
        <ele>275.56</ele>
        <time>2014-06-05T10:17:49Z</time>
      </trkpt>
      <trkpt lat="44.6171" lon="2.1349">
        <ele>275.56</ele>
        <time>2014-06-05T10:18:05Z</time>
      </trkpt>
      <trkpt lat="44.6171" lon="2.13491">
        <ele>275.07</ele>
        <time>2014-06-05T10:18:19Z</time>
      </trkpt>
      <trkpt lat="44.6171" lon="2.13488">
        <ele>275.56</ele>
        <time>2014-06-05T10:18:33Z</time>
      </trkpt>
      <trkpt lat="44.61711" lon="2.13492">
        <ele>275.07</ele>
        <time>2014-06-05T10:18:49Z</time>
      </trkpt>
      <trkpt lat="44.6171" lon="2.13486">
        <ele>276.04</ele>
        <time>2014-06-05T10:19:03Z</time>
      </trkpt>
      <trkpt lat="44.61713" lon="2.1349">
        <ele>275.07</ele>
        <time>2014-06-05T10:19:18Z</time>
      </trkpt>
      <trkpt lat="44.6171" lon="2.13488">
        <ele>275.56</ele>
        <time>2014-06-05T10:19:39Z</time>
      </trkpt>
      <trkpt lat="44.61712" lon="2.13486">
        <ele>275.07</ele>
        <time>2014-06-05T10:19:57Z</time>
      </trkpt>
      <trkpt lat="44.61711" lon="2.13487">
        <ele>275.56</ele>
        <time>2014-06-05T10:20:15Z</time>
      </trkpt>
      <trkpt lat="44.61712" lon="2.13488">
        <ele>275.56</ele>
        <time>2014-06-05T10:20:39Z</time>
      </trkpt>
      <trkpt lat="44.61712" lon="2.13491">
        <ele>275.56</ele>
        <time>2014-06-05T10:21:03Z</time>
      </trkpt>
      <trkpt lat="44.61712" lon="2.13487">
        <ele>275.07</ele>
        <time>2014-06-05T10:21:32Z</time>
      </trkpt>
      <trkpt lat="44.61712" lon="2.13485">
        <ele>275.56</ele>
        <time>2014-06-05T10:21:57Z</time>
      </trkpt>
      <trkpt lat="44.61714" lon="2.13489">
        <ele>275.07</ele>
        <time>2014-06-05T10:22:25Z</time>
      </trkpt>
      <trkpt lat="44.61716" lon="2.13486">
        <ele>274.59</ele>
        <time>2014-06-05T10:22:55Z</time>
      </trkpt>
      <trkpt lat="44.61715" lon="2.13495">
        <ele>274.11</ele>
        <time>2014-06-05T10:23:23Z</time>
      </trkpt>
      <trkpt lat="44.61714" lon="2.13487">
        <ele>274.59</ele>
        <time>2014-06-05T10:23:49Z</time>
      </trkpt>
      <trkpt lat="44.61713" lon="2.13487">
        <ele>274.11</ele>
        <time>2014-06-05T10:24:18Z</time>
      </trkpt>
      <trkpt lat="44.61713" lon="2.13491">
        <ele>274.11</ele>
        <time>2014-06-05T10:24:55Z</time>
      </trkpt>
      <trkpt lat="44.61714" lon="2.13494">
        <ele>273.63</ele>
        <time>2014-06-05T10:25:27Z</time>
      </trkpt>
      <trkpt lat="44.61713" lon="2.13493">
        <ele>273.63</ele>
        <time>2014-06-05T10:26:03Z</time>
      </trkpt>
      <trkpt lat="44.61711" lon="2.13489">
        <ele>274.11</ele>
        <time>2014-06-05T10:26:42Z</time>
      </trkpt>
      <trkpt lat="44.61714" lon="2.13491">
        <ele>273.15</ele>
        <time>2014-06-05T10:27:18Z</time>
      </trkpt>
      <trkpt lat="44.6171" lon="2.13489">
        <ele>273.63</ele>
        <time>2014-06-05T10:27:58Z</time>
      </trkpt>
      <trkpt lat="44.61711" lon="2.13491">
        <ele>273.63</ele>
        <time>2014-06-05T10:28:33Z</time>
      </trkpt>
      <trkpt lat="44.61713" lon="2.1349">
        <ele>273.63</ele>
        <time>2014-06-05T10:29:06Z</time>
      </trkpt>
      <trkpt lat="44.61716" lon="2.13497">
        <ele>273.63</ele>
        <time>2014-06-05T10:29:38Z</time>
      </trkpt>
      <trkpt lat="44.61716" lon="2.13501">
        <ele>273.63</ele>
        <time>2014-06-05T10:30:17Z</time>
      </trkpt>
      <trkpt lat="44.61714" lon="2.13501">
        <ele>273.63</ele>
        <time>2014-06-05T10:30:58Z</time>
      </trkpt>
      <trkpt lat="44.61714" lon="2.13502">
        <ele>272.19</ele>
        <time>2014-06-05T10:31:07Z</time>
      </trkpt>
      <trkpt lat="44.61714" lon="2.13502">
        <ele>273.63</ele>
        <time>2014-06-05T10:31:08Z</time>
      </trkpt>
      <trkpt lat="44.61715" lon="2.13496">
        <ele>273.15</ele>
        <time>2014-06-05T10:31:39Z</time>
      </trkpt>
      <trkpt lat="44.61712" lon="2.13492">
        <ele>273.63</ele>
        <time>2014-06-05T10:32:09Z</time>
      </trkpt>
      <trkpt lat="44.61715" lon="2.13501">
        <ele>272.67</ele>
        <time>2014-06-05T10:32:39Z</time>
      </trkpt>
      <trkpt lat="44.61713" lon="2.1349">
        <ele>272.67</ele>
        <time>2014-06-05T10:33:08Z</time>
      </trkpt>
      <trkpt lat="44.61709" lon="2.13492">
        <ele>272.67</ele>
        <time>2014-06-05T10:33:35Z</time>
      </trkpt>
      <trkpt lat="44.61713" lon="2.13489">
        <ele>272.19</ele>
        <time>2014-06-05T10:34:01Z</time>
      </trkpt>
      <trkpt lat="44.61713" lon="2.13489">
        <ele>272.19</ele>
        <time>2014-06-05T10:34:32Z</time>
      </trkpt>
      <trkpt lat="44.61709" lon="2.13487">
        <ele>272.19</ele>
        <time>2014-06-05T10:35:08Z</time>
      </trkpt>
      <trkpt lat="44.61711" lon="2.13488">
        <ele>272.67</ele>
        <time>2014-06-05T10:35:37Z</time>
      </trkpt>
      <trkpt lat="44.6171" lon="2.1349">
        <ele>272.19</ele>
        <time>2014-06-05T10:36:09Z</time>
      </trkpt>
      <trkpt lat="44.61714" lon="2.13494">
        <ele>272.19</ele>
        <time>2014-06-05T10:36:38Z</time>
      </trkpt>
      <trkpt lat="44.61713" lon="2.13494">
        <ele>271.71</ele>
        <time>2014-06-05T10:37:02Z</time>
      </trkpt>
      <trkpt lat="44.61713" lon="2.13492">
        <ele>272.19</ele>
        <time>2014-06-05T10:37:29Z</time>
      </trkpt>
      <trkpt lat="44.61715" lon="2.13493">
        <ele>272.19</ele>
        <time>2014-06-05T10:38:00Z</time>
      </trkpt>
      <trkpt lat="44.61715" lon="2.13492">
        <ele>271.71</ele>
        <time>2014-06-05T10:38:35Z</time>
      </trkpt>
      <trkpt lat="44.61716" lon="2.13492">
        <ele>272.19</ele>
        <time>2014-06-05T10:39:05Z</time>
      </trkpt>
      <trkpt lat="44.61707" lon="2.13486">
        <ele>271.71</ele>
        <time>2014-06-05T10:39:34Z</time>
      </trkpt>
      <trkpt lat="44.61708" lon="2.13489">
        <ele>272.19</ele>
        <time>2014-06-05T10:40:03Z</time>
      </trkpt>
      <trkpt lat="44.61712" lon="2.13491">
        <ele>272.19</ele>
        <time>2014-06-05T10:40:32Z</time>
      </trkpt>
      <trkpt lat="44.61711" lon="2.13488">
        <ele>272.19</ele>
        <time>2014-06-05T10:40:55Z</time>
      </trkpt>
      <trkpt lat="44.61706" lon="2.13488">
        <ele>272.19</ele>
        <time>2014-06-05T10:41:20Z</time>
      </trkpt>
      <trkpt lat="44.61718" lon="2.13491">
        <ele>272.67</ele>
        <time>2014-06-05T10:41:50Z</time>
      </trkpt>
      <trkpt lat="44.61714" lon="2.13494">
        <ele>272.67</ele>
        <time>2014-06-05T10:42:14Z</time>
      </trkpt>
      <trkpt lat="44.6171" lon="2.13488">
        <ele>272.67</ele>
        <time>2014-06-05T10:42:35Z</time>
      </trkpt>
      <trkpt lat="44.61711" lon="2.13488">
        <ele>273.15</ele>
        <time>2014-06-05T10:43:06Z</time>
      </trkpt>
      <trkpt lat="44.61711" lon="2.13486">
        <ele>273.15</ele>
        <time>2014-06-05T10:43:45Z</time>
      </trkpt>
      <trkpt lat="44.61711" lon="2.13486">
        <ele>273.15</ele>
        <time>2014-06-05T10:44:13Z</time>
      </trkpt>
      <trkpt lat="44.61709" lon="2.13486">
        <ele>273.63</ele>
        <time>2014-06-05T10:44:40Z</time>
      </trkpt>
      <trkpt lat="44.6171" lon="2.13487">
        <ele>272.67</ele>
        <time>2014-06-05T10:44:44Z</time>
      </trkpt>
      <trkpt lat="44.61711" lon="2.13487">
        <ele>273.15</ele>
        <time>2014-06-05T10:45:17Z</time>
      </trkpt>
      <trkpt lat="44.61713" lon="2.13488">
        <ele>273.63</ele>
        <time>2014-06-05T10:45:47Z</time>
      </trkpt>
      <trkpt lat="44.61712" lon="2.13489">
        <ele>273.15</ele>
        <time>2014-06-05T10:46:26Z</time>
      </trkpt>
      <trkpt lat="44.61711" lon="2.13487">
        <ele>272.67</ele>
        <time>2014-06-05T10:46:55Z</time>
      </trkpt>
      <trkpt lat="44.61713" lon="2.13492">
        <ele>273.15</ele>
        <time>2014-06-05T10:47:18Z</time>
      </trkpt>
      <trkpt lat="44.61706" lon="2.13483">
        <ele>273.15</ele>
        <time>2014-06-05T10:47:46Z</time>
      </trkpt>
      <trkpt lat="44.61712" lon="2.13491">
        <ele>273.63</ele>
        <time>2014-06-05T10:48:14Z</time>
      </trkpt>
      <trkpt lat="44.61716" lon="2.13489">
        <ele>272.67</ele>
        <time>2014-06-05T10:48:49Z</time>
      </trkpt>
      <trkpt lat="44.61707" lon="2.13487">
        <ele>272.19</ele>
        <time>2014-06-05T10:49:21Z</time>
      </trkpt>
      <trkpt lat="44.61711" lon="2.13484">
        <ele>272.19</ele>
        <time>2014-06-05T10:50:03Z</time>
      </trkpt>
      <trkpt lat="44.61711" lon="2.13486">
        <ele>269.31</ele>
        <time>2014-06-05T10:50:15Z</time>
      </trkpt>
      <trkpt lat="44.61711" lon="2.13486">
        <ele>271.23</ele>
        <time>2014-06-05T10:50:19Z</time>
      </trkpt>
      <trkpt lat="44.61711" lon="2.13486">
        <ele>279.4</ele>
        <time>2014-06-05T10:50:20Z</time>
      </trkpt>
      <trkpt lat="44.61712" lon="2.13487">
        <ele>265.94</ele>
        <time>2014-06-05T10:50:21Z</time>
      </trkpt>
      <trkpt lat="44.61713" lon="2.13487">
        <ele>270.75</ele>
        <time>2014-06-05T10:50:22Z</time>
      </trkpt>
      <trkpt lat="44.61719" lon="2.13488">
        <ele>278.44</ele>
        <time>2014-06-05T10:50:30Z</time>
      </trkpt>
      <trkpt lat="44.6172" lon="2.13488">
        <ele>277</ele>
        <time>2014-06-05T10:50:31Z</time>
      </trkpt>
      <trkpt lat="44.61719" lon="2.13487">
        <ele>272.19</ele>
        <time>2014-06-05T10:50:32Z</time>
      </trkpt>
      <trkpt lat="44.61714" lon="2.13492">
        <ele>271.71</ele>
        <time>2014-06-05T10:50:58Z</time>
      </trkpt>
      <trkpt lat="44.61712" lon="2.13483">
        <ele>272.19</ele>
        <time>2014-06-05T10:51:20Z</time>
      </trkpt>
      <trkpt lat="44.61722" lon="2.13472">
        <ele>271.23</ele>
        <time>2014-06-05T10:51:36Z</time>
      </trkpt>
      <trkpt lat="44.61726" lon="2.13452">
        <ele>271.71</ele>
        <time>2014-06-05T10:51:56Z</time>
      </trkpt>
      <trkpt lat="44.61723" lon="2.13465">
        <ele>270.75</ele>
        <time>2014-06-05T10:52:06Z</time>
      </trkpt>
      <trkpt lat="44.61713" lon="2.1349">
        <ele>271.23</ele>
        <time>2014-06-05T10:52:25Z</time>
      </trkpt>
      <trkpt lat="44.61713" lon="2.13491">
        <ele>269.79</ele>
        <time>2014-06-05T10:52:59Z</time>
      </trkpt>
      <trkpt lat="44.61709" lon="2.13486">
        <ele>271.71</ele>
        <time>2014-06-05T10:53:04Z</time>
      </trkpt>
      <trkpt lat="44.61698" lon="2.13469">
        <ele>271.71</ele>
        <time>2014-06-05T10:53:32Z</time>
      </trkpt>
      <trkpt lat="44.61705" lon="2.13481">
        <ele>271.71</ele>
        <time>2014-06-05T10:54:00Z</time>
      </trkpt>
      <trkpt lat="44.61711" lon="2.1348">
        <ele>272.67</ele>
        <time>2014-06-05T10:54:23Z</time>
      </trkpt>
      <trkpt lat="44.6171" lon="2.13479">
        <ele>271.23</ele>
        <time>2014-06-05T10:54:25Z</time>
      </trkpt>
      <trkpt lat="44.6171" lon="2.13486">
        <ele>271.71</ele>
        <time>2014-06-05T10:54:48Z</time>
      </trkpt>
      <trkpt lat="44.61713" lon="2.13485">
        <ele>273.63</ele>
        <time>2014-06-05T10:54:56Z</time>
      </trkpt>
      <trkpt lat="44.61713" lon="2.13485">
        <ele>268.35</ele>
        <time>2014-06-05T10:54:57Z</time>
      </trkpt>
      <trkpt lat="44.61713" lon="2.13485">
        <ele>271.23</ele>
        <time>2014-06-05T10:54:58Z</time>
      </trkpt>
      <trkpt lat="44.61713" lon="2.13485">
        <ele>270.27</ele>
        <time>2014-06-05T10:55:00Z</time>
      </trkpt>
      <trkpt lat="44.61714" lon="2.13485">
        <ele>271.71</ele>
        <time>2014-06-05T10:55:01Z</time>
      </trkpt>
      <trkpt lat="44.61717" lon="2.13486">
        <ele>271.23</ele>
        <time>2014-06-05T10:55:32Z</time>
      </trkpt>
      <trkpt lat="44.61715" lon="2.13487">
        <ele>271.23</ele>
        <time>2014-06-05T10:56:14Z</time>
      </trkpt>
      <trkpt lat="44.61719" lon="2.13494">
        <ele>270.27</ele>
        <time>2014-06-05T10:56:52Z</time>
      </trkpt>
      <trkpt lat="44.61712" lon="2.13485">
        <ele>270.75</ele>
        <time>2014-06-05T10:57:36Z</time>
      </trkpt>
      <trkpt lat="44.61708" lon="2.13484">
        <ele>269.79</ele>
        <time>2014-06-05T10:58:08Z</time>
      </trkpt>
      <trkpt lat="44.61705" lon="2.13482">
        <ele>269.31</ele>
        <time>2014-06-05T10:58:19Z</time>
      </trkpt>
      <trkpt lat="44.61705" lon="2.13482">
        <ele>271.23</ele>
        <time>2014-06-05T10:58:20Z</time>
      </trkpt>
      <trkpt lat="44.61705" lon="2.13482">
        <ele>269.31</ele>
        <time>2014-06-05T10:58:22Z</time>
      </trkpt>
      <trkpt lat="44.61705" lon="2.13481">
        <ele>269.79</ele>
        <time>2014-06-05T10:58:32Z</time>
      </trkpt>
      <trkpt lat="44.61712" lon="2.13488">
        <ele>270.27</ele>
        <time>2014-06-05T10:59:01Z</time>
      </trkpt>
      <trkpt lat="44.61714" lon="2.13489">
        <ele>270.27</ele>
        <time>2014-06-05T10:59:28Z</time>
      </trkpt>
      <trkpt lat="44.61712" lon="2.13487">
        <ele>270.27</ele>
        <time>2014-06-05T10:59:57Z</time>
      </trkpt>
      <trkpt lat="44.61711" lon="2.13486">
        <ele>270.27</ele>
        <time>2014-06-05T11:00:25Z</time>
      </trkpt>
      <trkpt lat="44.61714" lon="2.13487">
        <ele>269.79</ele>
        <time>2014-06-05T11:00:50Z</time>
      </trkpt>
      <trkpt lat="44.61715" lon="2.13491">
        <ele>269.79</ele>
        <time>2014-06-05T11:01:24Z</time>
      </trkpt>
      <trkpt lat="44.61716" lon="2.13491">
        <ele>270.27</ele>
        <time>2014-06-05T11:01:53Z</time>
      </trkpt>
      <trkpt lat="44.61716" lon="2.13495">
        <ele>270.75</ele>
        <time>2014-06-05T11:02:16Z</time>
      </trkpt>
      <trkpt lat="44.61713" lon="2.13487">
        <ele>271.23</ele>
        <time>2014-06-05T11:02:38Z</time>
      </trkpt>
      <trkpt lat="44.61714" lon="2.13485">
        <ele>270.75</ele>
        <time>2014-06-05T11:02:40Z</time>
      </trkpt>
      <trkpt lat="44.61721" lon="2.13468">
        <ele>270.75</ele>
        <time>2014-06-05T11:02:59Z</time>
      </trkpt>
      <trkpt lat="44.61713" lon="2.13465">
        <ele>269.79</ele>
        <time>2014-06-05T11:03:21Z</time>
      </trkpt>
      <trkpt lat="44.61723" lon="2.1347">
        <ele>270.27</ele>
        <time>2014-06-05T11:06:09Z</time>
      </trkpt>
      <trkpt lat="44.61725" lon="2.13487">
        <ele>270.27</ele>
        <time>2014-06-05T11:06:27Z</time>
      </trkpt>
      <trkpt lat="44.61715" lon="2.13487">
        <ele>270.27</ele>
        <time>2014-06-05T11:06:44Z</time>
      </trkpt>
      <trkpt lat="44.61713" lon="2.13488">
        <ele>270.75</ele>
        <time>2014-06-05T11:07:06Z</time>
      </trkpt>
      <trkpt lat="44.61715" lon="2.13491">
        <ele>270.75</ele>
        <time>2014-06-05T11:07:37Z</time>
      </trkpt>
      <trkpt lat="44.61709" lon="2.13489">
        <ele>270.27</ele>
        <time>2014-06-05T11:08:10Z</time>
      </trkpt>
      <trkpt lat="44.61708" lon="2.13488">
        <ele>273.15</ele>
        <time>2014-06-05T11:08:23Z</time>
      </trkpt>
      <trkpt lat="44.61708" lon="2.13482">
        <ele>271.23</ele>
        <time>2014-06-05T11:08:54Z</time>
      </trkpt>
      <trkpt lat="44.61711" lon="2.13486">
        <ele>271.23</ele>
        <time>2014-06-05T11:09:19Z</time>
      </trkpt>
      <trkpt lat="44.61714" lon="2.13486">
        <ele>271.23</ele>
        <time>2014-06-05T11:09:44Z</time>
      </trkpt>
      <trkpt lat="44.61716" lon="2.13485">
        <ele>271.71</ele>
        <time>2014-06-05T11:10:16Z</time>
      </trkpt>
      <trkpt lat="44.61718" lon="2.13486">
        <ele>271.71</ele>
        <time>2014-06-05T11:10:49Z</time>
      </trkpt>
      <trkpt lat="44.61716" lon="2.1349">
        <ele>272.19</ele>
        <time>2014-06-05T11:11:22Z</time>
      </trkpt>
      <trkpt lat="44.61715" lon="2.13491">
        <ele>271.23</ele>
        <time>2014-06-05T11:11:58Z</time>
      </trkpt>
      <trkpt lat="44.61717" lon="2.13491">
        <ele>271.23</ele>
        <time>2014-06-05T11:12:33Z</time>
      </trkpt>
      <trkpt lat="44.61713" lon="2.1349">
        <ele>270.75</ele>
        <time>2014-06-05T11:12:49Z</time>
      </trkpt>
      <trkpt lat="44.61715" lon="2.13488">
        <ele>271.71</ele>
        <time>2014-06-05T11:13:11Z</time>
      </trkpt>
      <trkpt lat="44.61717" lon="2.13492">
        <ele>271.71</ele>
        <time>2014-06-05T11:13:33Z</time>
      </trkpt>
      <trkpt lat="44.61716" lon="2.13496">
        <ele>271.71</ele>
        <time>2014-06-05T11:14:05Z</time>
      </trkpt>
      <trkpt lat="44.61716" lon="2.13495">
        <ele>271.71</ele>
        <time>2014-06-05T11:14:37Z</time>
      </trkpt>
      <trkpt lat="44.61716" lon="2.13496">
        <ele>271.23</ele>
        <time>2014-06-05T11:15:08Z</time>
      </trkpt>
      <trkpt lat="44.61714" lon="2.13486">
        <ele>271.23</ele>
        <time>2014-06-05T11:15:28Z</time>
      </trkpt>
      <trkpt lat="44.61714" lon="2.1349">
        <ele>271.71</ele>
        <time>2014-06-05T11:15:40Z</time>
      </trkpt>
      <trkpt lat="44.61713" lon="2.13498">
        <ele>271.71</ele>
        <time>2014-06-05T11:15:56Z</time>
      </trkpt>
      <trkpt lat="44.61714" lon="2.13505">
        <ele>271.71</ele>
        <time>2014-06-05T11:16:11Z</time>
      </trkpt>
      <trkpt lat="44.61721" lon="2.13509">
        <ele>271.23</ele>
        <time>2014-06-05T11:16:26Z</time>
      </trkpt>
      <trkpt lat="44.61735" lon="2.13503">
        <ele>271.23</ele>
        <time>2014-06-05T11:16:41Z</time>
      </trkpt>
      <trkpt lat="44.61741" lon="2.13498">
        <ele>270.75</ele>
        <time>2014-06-05T11:17:00Z</time>
      </trkpt>
      <trkpt lat="44.61746" lon="2.13493">
        <ele>271.23</ele>
        <time>2014-06-05T11:17:07Z</time>
      </trkpt>
      <trkpt lat="44.61768" lon="2.13479">
        <ele>271.71</ele>
        <time>2014-06-05T11:17:26Z</time>
      </trkpt>
      <trkpt lat="44.6177" lon="2.13478">
        <ele>271.71</ele>
        <time>2014-06-05T11:17:39Z</time>
      </trkpt>
      <trkpt lat="44.61774" lon="2.13475">
        <ele>271.23</ele>
        <time>2014-06-05T11:17:56Z</time>
      </trkpt>
      <trkpt lat="44.61778" lon="2.13472">
        <ele>272.19</ele>
        <time>2014-06-05T11:18:11Z</time>
      </trkpt>
      <trkpt lat="44.61787" lon="2.13466">
        <ele>272.19</ele>
        <time>2014-06-05T11:18:27Z</time>
      </trkpt>
      <trkpt lat="44.61796" lon="2.13456">
        <ele>271.71</ele>
        <time>2014-06-05T11:18:43Z</time>
      </trkpt>
      <trkpt lat="44.61805" lon="2.1344">
        <ele>272.67</ele>
        <time>2014-06-05T11:19:02Z</time>
      </trkpt>
      <trkpt lat="44.61816" lon="2.13422">
        <ele>273.15</ele>
        <time>2014-06-05T11:19:20Z</time>
      </trkpt>
      <trkpt lat="44.61825" lon="2.13413">
        <ele>273.15</ele>
        <time>2014-06-05T11:19:36Z</time>
      </trkpt>
      <trkpt lat="44.61825" lon="2.13411">
        <ele>271.71</ele>
        <time>2014-06-05T11:19:41Z</time>
      </trkpt>
      <trkpt lat="44.61825" lon="2.13409">
        <ele>272.67</ele>
        <time>2014-06-05T11:19:43Z</time>
      </trkpt>
      <trkpt lat="44.61845" lon="2.13383">
        <ele>273.15</ele>
        <time>2014-06-05T11:20:05Z</time>
      </trkpt>
      <trkpt lat="44.6185" lon="2.13377">
        <ele>274.11</ele>
        <time>2014-06-05T11:20:11Z</time>
      </trkpt>
      <trkpt lat="44.61867" lon="2.13365">
        <ele>273.63</ele>
        <time>2014-06-05T11:20:30Z</time>
      </trkpt>
      <trkpt lat="44.61867" lon="2.13363">
        <ele>273.63</ele>
        <time>2014-06-05T11:20:35Z</time>
      </trkpt>
      <trkpt lat="44.61878" lon="2.13351">
        <ele>273.63</ele>
        <time>2014-06-05T11:20:51Z</time>
      </trkpt>
      <trkpt lat="44.61894" lon="2.13329">
        <ele>274.59</ele>
        <time>2014-06-05T11:21:10Z</time>
      </trkpt>
      <trkpt lat="44.61908" lon="2.13312">
        <ele>273.63</ele>
        <time>2014-06-05T11:21:28Z</time>
      </trkpt>
      <trkpt lat="44.61919" lon="2.13292">
        <ele>273.15</ele>
        <time>2014-06-05T11:21:44Z</time>
      </trkpt>
      <trkpt lat="44.61928" lon="2.13278">
        <ele>272.67</ele>
        <time>2014-06-05T11:21:59Z</time>
      </trkpt>
      <trkpt lat="44.61936" lon="2.13269">
        <ele>273.63</ele>
        <time>2014-06-05T11:22:11Z</time>
      </trkpt>
      <trkpt lat="44.61938" lon="2.13262">
        <ele>272.67</ele>
        <time>2014-06-05T11:22:16Z</time>
      </trkpt>
      <trkpt lat="44.61945" lon="2.13251">
        <ele>272.19</ele>
        <time>2014-06-05T11:22:27Z</time>
      </trkpt>
      <trkpt lat="44.61957" lon="2.13231">
        <ele>271.71</ele>
        <time>2014-06-05T11:22:43Z</time>
      </trkpt>
      <trkpt lat="44.61974" lon="2.13222">
        <ele>270.75</ele>
        <time>2014-06-05T11:23:01Z</time>
      </trkpt>
      <trkpt lat="44.6199" lon="2.13222">
        <ele>269.31</ele>
        <time>2014-06-05T11:23:16Z</time>
      </trkpt>
      <trkpt lat="44.62008" lon="2.13222">
        <ele>268.83</ele>
        <time>2014-06-05T11:23:34Z</time>
      </trkpt>
      <trkpt lat="44.62024" lon="2.1322">
        <ele>266.42</ele>
        <time>2014-06-05T11:23:49Z</time>
      </trkpt>
      <trkpt lat="44.62043" lon="2.13219">
        <ele>265.46</ele>
        <time>2014-06-05T11:24:06Z</time>
      </trkpt>
      <trkpt lat="44.62047" lon="2.13216">
        <ele>265.94</ele>
        <time>2014-06-05T11:24:10Z</time>
      </trkpt>
      <trkpt lat="44.62047" lon="2.13199">
        <ele>264.5</ele>
        <time>2014-06-05T11:24:25Z</time>
      </trkpt>
      <trkpt lat="44.62035" lon="2.13184">
        <ele>263.06</ele>
        <time>2014-06-05T11:24:44Z</time>
      </trkpt>
      <trkpt lat="44.6203" lon="2.13174">
        <ele>262.1</ele>
        <time>2014-06-05T11:24:53Z</time>
      </trkpt>
      <trkpt lat="44.62018" lon="2.1316">
        <ele>261.62</ele>
        <time>2014-06-05T11:25:04Z</time>
      </trkpt>
      <trkpt lat="44.62007" lon="2.13139">
        <ele>261.14</ele>
        <time>2014-06-05T11:25:24Z</time>
      </trkpt>
      <trkpt lat="44.62003" lon="2.13133">
        <ele>257.77</ele>
        <time>2014-06-05T11:25:30Z</time>
      </trkpt>
      <trkpt lat="44.62003" lon="2.13131">
        <ele>258.25</ele>
        <time>2014-06-05T11:25:31Z</time>
      </trkpt>
      <trkpt lat="44.62003" lon="2.1313">
        <ele>260.17</ele>
        <time>2014-06-05T11:25:33Z</time>
      </trkpt>
      <trkpt lat="44.62001" lon="2.13124">
        <ele>264.98</ele>
        <time>2014-06-05T11:25:50Z</time>
      </trkpt>
      <trkpt lat="44.62001" lon="2.13126">
        <ele>261.62</ele>
        <time>2014-06-05T11:25:51Z</time>
      </trkpt>
      <trkpt lat="44.62" lon="2.13124">
        <ele>260.17</ele>
        <time>2014-06-05T11:26:12Z</time>
      </trkpt>
      <trkpt lat="44.61986" lon="2.13118">
        <ele>259.69</ele>
        <time>2014-06-05T11:26:33Z</time>
      </trkpt>
      <trkpt lat="44.61984" lon="2.13095">
        <ele>259.21</ele>
        <time>2014-06-05T11:26:51Z</time>
      </trkpt>
      <trkpt lat="44.61986" lon="2.13088">
        <ele>259.21</ele>
        <time>2014-06-05T11:26:55Z</time>
      </trkpt>
      <trkpt lat="44.61998" lon="2.1306">
        <ele>261.14</ele>
        <time>2014-06-05T11:27:14Z</time>
      </trkpt>
      <trkpt lat="44.62011" lon="2.13035">
        <ele>263.54</ele>
        <time>2014-06-05T11:27:33Z</time>
      </trkpt>
      <trkpt lat="44.62011" lon="2.13004">
        <ele>265.94</ele>
        <time>2014-06-05T11:27:51Z</time>
      </trkpt>
      <trkpt lat="44.62009" lon="2.12975">
        <ele>266.42</ele>
        <time>2014-06-05T11:28:11Z</time>
      </trkpt>
      <trkpt lat="44.62007" lon="2.12945">
        <ele>266.42</ele>
        <time>2014-06-05T11:28:30Z</time>
      </trkpt>
      <trkpt lat="44.6201" lon="2.12917">
        <ele>267.86</ele>
        <time>2014-06-05T11:28:49Z</time>
      </trkpt>
      <trkpt lat="44.62014" lon="2.12896">
        <ele>269.31</ele>
        <time>2014-06-05T11:29:05Z</time>
      </trkpt>
      <trkpt lat="44.62019" lon="2.12861">
        <ele>271.23</ele>
        <time>2014-06-05T11:29:27Z</time>
      </trkpt>
      <trkpt lat="44.62023" lon="2.12826">
        <ele>272.67</ele>
        <time>2014-06-05T11:29:49Z</time>
      </trkpt>
      <trkpt lat="44.62027" lon="2.12799">
        <ele>272.67</ele>
        <time>2014-06-05T11:30:07Z</time>
      </trkpt>
      <trkpt lat="44.62028" lon="2.1279">
        <ele>273.63</ele>
        <time>2014-06-05T11:30:13Z</time>
      </trkpt>
      <trkpt lat="44.6203" lon="2.12759">
        <ele>274.11</ele>
        <time>2014-06-05T11:30:32Z</time>
      </trkpt>
      <trkpt lat="44.62029" lon="2.12728">
        <ele>275.56</ele>
        <time>2014-06-05T11:30:52Z</time>
      </trkpt>
      <trkpt lat="44.62028" lon="2.12715">
        <ele>275.56</ele>
        <time>2014-06-05T11:31:08Z</time>
      </trkpt>
      <trkpt lat="44.62026" lon="2.12692">
        <ele>277</ele>
        <time>2014-06-05T11:31:23Z</time>
      </trkpt>
      <trkpt lat="44.62022" lon="2.12662">
        <ele>277.96</ele>
        <time>2014-06-05T11:31:43Z</time>
      </trkpt>
      <trkpt lat="44.62014" lon="2.12633">
        <ele>279.88</ele>
        <time>2014-06-05T11:32:02Z</time>
      </trkpt>
      <trkpt lat="44.6201" lon="2.12606">
        <ele>281.8</ele>
        <time>2014-06-05T11:32:22Z</time>
      </trkpt>
      <trkpt lat="44.62" lon="2.12576">
        <ele>283.25</ele>
        <time>2014-06-05T11:32:42Z</time>
      </trkpt>
      <trkpt lat="44.61994" lon="2.12548">
        <ele>283.73</ele>
        <time>2014-06-05T11:33:03Z</time>
      </trkpt>
      <trkpt lat="44.61988" lon="2.12534">
        <ele>283.25</ele>
        <time>2014-06-05T11:33:14Z</time>
      </trkpt>
      <trkpt lat="44.61984" lon="2.12523">
        <ele>284.69</ele>
        <time>2014-06-05T11:33:20Z</time>
      </trkpt>
      <trkpt lat="44.61973" lon="2.125">
        <ele>285.17</ele>
        <time>2014-06-05T11:33:41Z</time>
      </trkpt>
      <trkpt lat="44.61959" lon="2.1248">
        <ele>287.57</ele>
        <time>2014-06-05T11:34:01Z</time>
      </trkpt>
      <trkpt lat="44.61936" lon="2.12459">
        <ele>288.05</ele>
        <time>2014-06-05T11:34:25Z</time>
      </trkpt>
      <trkpt lat="44.61918" lon="2.12443">
        <ele>289.01</ele>
        <time>2014-06-05T11:34:45Z</time>
      </trkpt>
      <trkpt lat="44.619" lon="2.12446">
        <ele>289.01</ele>
        <time>2014-06-05T11:35:03Z</time>
      </trkpt>
      <trkpt lat="44.61885" lon="2.12452">
        <ele>289.01</ele>
        <time>2014-06-05T11:35:18Z</time>
      </trkpt>
      <trkpt lat="44.6188" lon="2.12453">
        <ele>289.01</ele>
        <time>2014-06-05T11:35:22Z</time>
      </trkpt>
      <trkpt lat="44.61868" lon="2.12454">
        <ele>289.97</ele>
        <time>2014-06-05T11:35:33Z</time>
      </trkpt>
      <trkpt lat="44.61855" lon="2.12459">
        <ele>289.49</ele>
        <time>2014-06-05T11:35:48Z</time>
      </trkpt>
      <trkpt lat="44.61849" lon="2.12454">
        <ele>289.97</ele>
        <time>2014-06-05T11:36:05Z</time>
      </trkpt>
      <trkpt lat="44.61842" lon="2.12453">
        <ele>290.46</ele>
        <time>2014-06-05T11:36:12Z</time>
      </trkpt>
      <trkpt lat="44.61823" lon="2.12448">
        <ele>290.94</ele>
        <time>2014-06-05T11:36:30Z</time>
      </trkpt>
      <trkpt lat="44.61809" lon="2.12437">
        <ele>292.38</ele>
        <time>2014-06-05T11:36:44Z</time>
      </trkpt>
      <trkpt lat="44.6179" lon="2.12415">
        <ele>291.9</ele>
        <time>2014-06-05T11:37:05Z</time>
      </trkpt>
      <trkpt lat="44.61775" lon="2.12392">
        <ele>291.42</ele>
        <time>2014-06-05T11:37:24Z</time>
      </trkpt>
      <trkpt lat="44.61763" lon="2.12368">
        <ele>290.94</ele>
        <time>2014-06-05T11:37:41Z</time>
      </trkpt>
      <trkpt lat="44.61759" lon="2.12366">
        <ele>291.42</ele>
        <time>2014-06-05T11:37:45Z</time>
      </trkpt>
      <trkpt lat="44.61748" lon="2.1235">
        <ele>291.42</ele>
        <time>2014-06-05T11:37:59Z</time>
      </trkpt>
      <trkpt lat="44.61728" lon="2.12344">
        <ele>292.38</ele>
        <time>2014-06-05T11:38:18Z</time>
      </trkpt>
      <trkpt lat="44.61708" lon="2.12338">
        <ele>291.9</ele>
        <time>2014-06-05T11:38:35Z</time>
      </trkpt>
      <trkpt lat="44.61693" lon="2.12327">
        <ele>292.38</ele>
        <time>2014-06-05T11:38:50Z</time>
      </trkpt>
      <trkpt lat="44.61672" lon="2.12306">
        <ele>292.38</ele>
        <time>2014-06-05T11:39:13Z</time>
      </trkpt>
      <trkpt lat="44.61656" lon="2.12303">
        <ele>291.9</ele>
        <time>2014-06-05T11:39:29Z</time>
      </trkpt>
      <trkpt lat="44.61644" lon="2.12282">
        <ele>289.01</ele>
        <time>2014-06-05T11:39:49Z</time>
      </trkpt>
      <trkpt lat="44.6163" lon="2.12259">
        <ele>286.61</ele>
        <time>2014-06-05T11:40:10Z</time>
      </trkpt>
      <trkpt lat="44.61617" lon="2.12241">
        <ele>286.13</ele>
        <time>2014-06-05T11:40:31Z</time>
      </trkpt>
      <trkpt lat="44.61599" lon="2.12219">
        <ele>283.73</ele>
        <time>2014-06-05T11:40:53Z</time>
      </trkpt>
      <trkpt lat="44.61594" lon="2.12202">
        <ele>284.21</ele>
        <time>2014-06-05T11:41:08Z</time>
      </trkpt>
      <trkpt lat="44.6158" lon="2.12182">
        <ele>282.77</ele>
        <time>2014-06-05T11:41:27Z</time>
      </trkpt>
      <trkpt lat="44.61572" lon="2.12169">
        <ele>282.28</ele>
        <time>2014-06-05T11:41:39Z</time>
      </trkpt>
      <trkpt lat="44.61561" lon="2.12152">
        <ele>281.8</ele>
        <time>2014-06-05T11:41:55Z</time>
      </trkpt>
      <trkpt lat="44.61557" lon="2.12149">
        <ele>281.8</ele>
        <time>2014-06-05T11:42:02Z</time>
      </trkpt>
      <trkpt lat="44.61549" lon="2.12127">
        <ele>280.84</ele>
        <time>2014-06-05T11:42:21Z</time>
      </trkpt>
      <trkpt lat="44.61545" lon="2.12111">
        <ele>279.88</ele>
        <time>2014-06-05T11:42:32Z</time>
      </trkpt>
      <trkpt lat="44.61541" lon="2.12083">
        <ele>278.44</ele>
        <time>2014-06-05T11:42:52Z</time>
      </trkpt>
      <trkpt lat="44.61537" lon="2.1205">
        <ele>278.92</ele>
        <time>2014-06-05T11:43:13Z</time>
      </trkpt>
      <trkpt lat="44.61533" lon="2.12028">
        <ele>279.4</ele>
        <time>2014-06-05T11:43:28Z</time>
      </trkpt>
      <trkpt lat="44.61532" lon="2.12003">
        <ele>281.32</ele>
        <time>2014-06-05T11:43:49Z</time>
      </trkpt>
      <trkpt lat="44.61527" lon="2.1198">
        <ele>282.28</ele>
        <time>2014-06-05T11:44:04Z</time>
      </trkpt>
      <trkpt lat="44.61528" lon="2.11968">
        <ele>283.25</ele>
        <time>2014-06-05T11:44:27Z</time>
      </trkpt>
      <trkpt lat="44.61524" lon="2.11954">
        <ele>286.13</ele>
        <time>2014-06-05T11:44:41Z</time>
      </trkpt>
      <trkpt lat="44.61522" lon="2.11932">
        <ele>287.57</ele>
        <time>2014-06-05T11:44:59Z</time>
      </trkpt>
      <trkpt lat="44.61511" lon="2.11911">
        <ele>289.97</ele>
        <time>2014-06-05T11:45:18Z</time>
      </trkpt>
      <trkpt lat="44.61506" lon="2.11889">
        <ele>291.42</ele>
        <time>2014-06-05T11:45:34Z</time>
      </trkpt>
      <trkpt lat="44.61495" lon="2.11889">
        <ele>292.38</ele>
        <time>2014-06-05T11:45:51Z</time>
      </trkpt>
      <trkpt lat="44.61474" lon="2.11892">
        <ele>292.38</ele>
        <time>2014-06-05T11:46:11Z</time>
      </trkpt>
      <trkpt lat="44.61456" lon="2.11882">
        <ele>291.9</ele>
        <time>2014-06-05T11:46:30Z</time>
      </trkpt>
      <trkpt lat="44.61433" lon="2.11874">
        <ele>288.53</ele>
        <time>2014-06-05T11:46:54Z</time>
      </trkpt>
      <trkpt lat="44.61414" lon="2.1186">
        <ele>287.09</ele>
        <time>2014-06-05T11:47:15Z</time>
      </trkpt>
      <trkpt lat="44.61393" lon="2.11846">
        <ele>286.13</ele>
        <time>2014-06-05T11:47:37Z</time>
      </trkpt>
      <trkpt lat="44.61372" lon="2.11839">
        <ele>285.65</ele>
        <time>2014-06-05T11:47:56Z</time>
      </trkpt>
      <trkpt lat="44.61354" lon="2.1184">
        <ele>285.65</ele>
        <time>2014-06-05T11:48:14Z</time>
      </trkpt>
      <trkpt lat="44.61353" lon="2.11838">
        <ele>285.65</ele>
        <time>2014-06-05T11:48:37Z</time>
      </trkpt>
      <trkpt lat="44.61352" lon="2.1184">
        <ele>284.69</ele>
        <time>2014-06-05T11:48:40Z</time>
      </trkpt>
      <trkpt lat="44.61336" lon="2.11865">
        <ele>282.77</ele>
        <time>2014-06-05T11:49:01Z</time>
      </trkpt>
      <trkpt lat="44.61321" lon="2.11884">
        <ele>282.28</ele>
        <time>2014-06-05T11:49:20Z</time>
      </trkpt>
      <trkpt lat="44.61313" lon="2.11896">
        <ele>281.32</ele>
        <time>2014-06-05T11:49:32Z</time>
      </trkpt>
      <trkpt lat="44.61294" lon="2.11923">
        <ele>280.84</ele>
        <time>2014-06-05T11:49:55Z</time>
      </trkpt>
      <trkpt lat="44.61277" lon="2.11946">
        <ele>279.4</ele>
        <time>2014-06-05T11:50:16Z</time>
      </trkpt>
      <trkpt lat="44.6126" lon="2.11965">
        <ele>278.44</ele>
        <time>2014-06-05T11:50:35Z</time>
      </trkpt>
      <trkpt lat="44.61242" lon="2.11972">
        <ele>277.96</ele>
        <time>2014-06-05T11:50:54Z</time>
      </trkpt>
      <trkpt lat="44.61225" lon="2.1196">
        <ele>278.92</ele>
        <time>2014-06-05T11:51:09Z</time>
      </trkpt>
      <trkpt lat="44.61213" lon="2.11966">
        <ele>279.88</ele>
        <time>2014-06-05T11:51:21Z</time>
      </trkpt>
      <trkpt lat="44.61199" lon="2.11976">
        <ele>279.88</ele>
        <time>2014-06-05T11:51:38Z</time>
      </trkpt>
      <trkpt lat="44.61181" lon="2.11985">
        <ele>281.8</ele>
        <time>2014-06-05T11:51:54Z</time>
      </trkpt>
      <trkpt lat="44.61175" lon="2.11984">
        <ele>282.28</ele>
        <time>2014-06-05T11:52:00Z</time>
      </trkpt>
      <trkpt lat="44.61171" lon="2.11968">
        <ele>281.8</ele>
        <time>2014-06-05T11:52:18Z</time>
      </trkpt>
      <trkpt lat="44.6117" lon="2.11968">
        <ele>282.28</ele>
        <time>2014-06-05T11:52:35Z</time>
      </trkpt>
      <trkpt lat="44.6117" lon="2.11961">
        <ele>282.28</ele>
        <time>2014-06-05T11:52:41Z</time>
      </trkpt>
      <trkpt lat="44.6117" lon="2.11958">
        <ele>282.28</ele>
        <time>2014-06-05T11:52:43Z</time>
      </trkpt>
      <trkpt lat="44.61161" lon="2.1193">
        <ele>283.25</ele>
        <time>2014-06-05T11:53:04Z</time>
      </trkpt>
      <trkpt lat="44.6115" lon="2.11909">
        <ele>283.73</ele>
        <time>2014-06-05T11:53:20Z</time>
      </trkpt>
      <trkpt lat="44.61144" lon="2.11888">
        <ele>284.21</ele>
        <time>2014-06-05T11:53:37Z</time>
      </trkpt>
      <trkpt lat="44.61142" lon="2.11881">
        <ele>284.69</ele>
        <time>2014-06-05T11:53:43Z</time>
      </trkpt>
      <trkpt lat="44.61138" lon="2.11854">
        <ele>284.69</ele>
        <time>2014-06-05T11:54:00Z</time>
      </trkpt>
      <trkpt lat="44.61137" lon="2.11832">
        <ele>286.13</ele>
        <time>2014-06-05T11:54:16Z</time>
      </trkpt>
      <trkpt lat="44.61143" lon="2.11824">
        <ele>286.61</ele>
        <time>2014-06-05T11:54:34Z</time>
      </trkpt>
      <trkpt lat="44.61152" lon="2.1181">
        <ele>286.61</ele>
        <time>2014-06-05T11:54:54Z</time>
      </trkpt>
      <trkpt lat="44.61148" lon="2.11814">
        <ele>286.13</ele>
        <time>2014-06-05T11:55:08Z</time>
      </trkpt>
      <trkpt lat="44.61143" lon="2.11813">
        <ele>285.65</ele>
        <time>2014-06-05T11:55:31Z</time>
      </trkpt>
      <trkpt lat="44.61143" lon="2.11815">
        <ele>286.13</ele>
        <time>2014-06-05T11:55:50Z</time>
      </trkpt>
      <trkpt lat="44.61143" lon="2.11818">
        <ele>286.13</ele>
        <time>2014-06-05T11:55:54Z</time>
      </trkpt>
      <trkpt lat="44.61128" lon="2.1182">
        <ele>286.13</ele>
        <time>2014-06-05T11:56:19Z</time>
      </trkpt>
      <trkpt lat="44.61149" lon="2.11819">
        <ele>285.65</ele>
        <time>2014-06-05T11:57:21Z</time>
      </trkpt>
      <trkpt lat="44.61146" lon="2.11816">
        <ele>285.65</ele>
        <time>2014-06-05T11:57:42Z</time>
      </trkpt>
      <trkpt lat="44.61144" lon="2.11821">
        <ele>286.13</ele>
        <time>2014-06-05T11:57:56Z</time>
      </trkpt>
      <trkpt lat="44.61147" lon="2.11816">
        <ele>286.13</ele>
        <time>2014-06-05T11:58:11Z</time>
      </trkpt>
      <trkpt lat="44.61149" lon="2.11818">
        <ele>286.61</ele>
        <time>2014-06-05T11:58:34Z</time>
      </trkpt>
      <trkpt lat="44.6114" lon="2.11817">
        <ele>285.65</ele>
        <time>2014-06-05T11:58:51Z</time>
      </trkpt>
      <trkpt lat="44.61131" lon="2.11804">
        <ele>286.13</ele>
        <time>2014-06-05T11:59:04Z</time>
      </trkpt>
      <trkpt lat="44.61123" lon="2.11783">
        <ele>286.13</ele>
        <time>2014-06-05T11:59:20Z</time>
      </trkpt>
      <trkpt lat="44.61117" lon="2.1177">
        <ele>287.57</ele>
        <time>2014-06-05T11:59:36Z</time>
      </trkpt>
      <trkpt lat="44.61111" lon="2.11763">
        <ele>288.05</ele>
        <time>2014-06-05T11:59:52Z</time>
      </trkpt>
      <trkpt lat="44.61124" lon="2.11747">
        <ele>289.97</ele>
        <time>2014-06-05T12:00:07Z</time>
      </trkpt>
      <trkpt lat="44.61131" lon="2.1174">
        <ele>290.46</ele>
        <time>2014-06-05T12:00:16Z</time>
      </trkpt>
      <trkpt lat="44.61146" lon="2.11731">
        <ele>291.42</ele>
        <time>2014-06-05T12:00:31Z</time>
      </trkpt>
      <trkpt lat="44.61155" lon="2.11721">
        <ele>292.86</ele>
        <time>2014-06-05T12:00:41Z</time>
      </trkpt>
      <trkpt lat="44.61162" lon="2.11716">
        <ele>293.82</ele>
        <time>2014-06-05T12:00:56Z</time>
      </trkpt>
      <trkpt lat="44.61158" lon="2.11721">
        <ele>293.82</ele>
        <time>2014-06-05T12:01:14Z</time>
      </trkpt>
      <trkpt lat="44.61162" lon="2.11722">
        <ele>293.82</ele>
        <time>2014-06-05T12:01:27Z</time>
      </trkpt>
      <trkpt lat="44.61164" lon="2.11721">
        <ele>293.82</ele>
        <time>2014-06-05T12:01:54Z</time>
      </trkpt>
      <trkpt lat="44.61163" lon="2.11721">
        <ele>293.82</ele>
        <time>2014-06-05T12:02:30Z</time>
      </trkpt>
      <trkpt lat="44.61162" lon="2.11721">
        <ele>293.34</ele>
        <time>2014-06-05T12:02:49Z</time>
      </trkpt>
      <trkpt lat="44.61157" lon="2.11726">
        <ele>293.82</ele>
        <time>2014-06-05T12:03:17Z</time>
      </trkpt>
      <trkpt lat="44.61142" lon="2.11732">
        <ele>291.9</ele>
        <time>2014-06-05T12:03:33Z</time>
      </trkpt>
      <trkpt lat="44.61129" lon="2.11742">
        <ele>289.97</ele>
        <time>2014-06-05T12:03:46Z</time>
      </trkpt>
      <trkpt lat="44.61127" lon="2.11744">
        <ele>289.97</ele>
        <time>2014-06-05T12:03:56Z</time>
      </trkpt>
      <trkpt lat="44.61118" lon="2.11752">
        <ele>288.53</ele>
        <time>2014-06-05T12:04:09Z</time>
      </trkpt>
      <trkpt lat="44.61114" lon="2.11765">
        <ele>288.05</ele>
        <time>2014-06-05T12:04:23Z</time>
      </trkpt>
      <trkpt lat="44.61118" lon="2.11766">
        <ele>288.05</ele>
        <time>2014-06-05T12:04:45Z</time>
      </trkpt>
      <trkpt lat="44.61107" lon="2.11772">
        <ele>287.57</ele>
        <time>2014-06-05T12:05:11Z</time>
      </trkpt>
      <trkpt lat="44.61102" lon="2.11776">
        <ele>286.13</ele>
        <time>2014-06-05T12:05:23Z</time>
      </trkpt>
      <trkpt lat="44.611" lon="2.11779">
        <ele>285.65</ele>
        <time>2014-06-05T12:05:26Z</time>
      </trkpt>
      <trkpt lat="44.61093" lon="2.11788">
        <ele>285.17</ele>
        <time>2014-06-05T12:05:35Z</time>
      </trkpt>
      <trkpt lat="44.61074" lon="2.11802">
        <ele>285.65</ele>
        <time>2014-06-05T12:05:53Z</time>
      </trkpt>
      <trkpt lat="44.61057" lon="2.11813">
        <ele>286.61</ele>
        <time>2014-06-05T12:06:12Z</time>
      </trkpt>
      <trkpt lat="44.61033" lon="2.11821">
        <ele>289.01</ele>
        <time>2014-06-05T12:06:33Z</time>
      </trkpt>
      <trkpt lat="44.61019" lon="2.11826">
        <ele>290.46</ele>
        <time>2014-06-05T12:06:50Z</time>
      </trkpt>
      <trkpt lat="44.61007" lon="2.11828">
        <ele>293.34</ele>
        <time>2014-06-05T12:07:05Z</time>
      </trkpt>
      <trkpt lat="44.60996" lon="2.11832">
        <ele>294.3</ele>
        <time>2014-06-05T12:07:18Z</time>
      </trkpt>
      <trkpt lat="44.60986" lon="2.11836">
        <ele>297.18</ele>
        <time>2014-06-05T12:07:32Z</time>
      </trkpt>
      <trkpt lat="44.6098" lon="2.11832">
        <ele>297.67</ele>
        <time>2014-06-05T12:07:47Z</time>
      </trkpt>
      <trkpt lat="44.60973" lon="2.11806">
        <ele>297.18</ele>
        <time>2014-06-05T12:08:06Z</time>
      </trkpt>
      <trkpt lat="44.60963" lon="2.11776">
        <ele>298.15</ele>
        <time>2014-06-05T12:08:27Z</time>
      </trkpt>
      <trkpt lat="44.60959" lon="2.11748">
        <ele>297.67</ele>
        <time>2014-06-05T12:08:46Z</time>
      </trkpt>
      <trkpt lat="44.60956" lon="2.11713">
        <ele>296.7</ele>
        <time>2014-06-05T12:09:09Z</time>
      </trkpt>
      <trkpt lat="44.6096" lon="2.11685">
        <ele>296.7</ele>
        <time>2014-06-05T12:09:26Z</time>
      </trkpt>
      <trkpt lat="44.60962" lon="2.11681">
        <ele>296.22</ele>
        <time>2014-06-05T12:09:34Z</time>
      </trkpt>
      <trkpt lat="44.60969" lon="2.11661">
        <ele>293.82</ele>
        <time>2014-06-05T12:09:49Z</time>
      </trkpt>
      <trkpt lat="44.6097" lon="2.11658">
        <ele>295.26</ele>
        <time>2014-06-05T12:09:51Z</time>
      </trkpt>
      <trkpt lat="44.60974" lon="2.11652">
        <ele>294.78</ele>
        <time>2014-06-05T12:09:56Z</time>
      </trkpt>
      <trkpt lat="44.60983" lon="2.11634">
        <ele>294.78</ele>
        <time>2014-06-05T12:10:13Z</time>
      </trkpt>
      <trkpt lat="44.60987" lon="2.11627">
        <ele>294.78</ele>
        <time>2014-06-05T12:10:18Z</time>
      </trkpt>
      <trkpt lat="44.60992" lon="2.11614">
        <ele>294.78</ele>
        <time>2014-06-05T12:10:26Z</time>
      </trkpt>
      <trkpt lat="44.61005" lon="2.1158">
        <ele>295.74</ele>
        <time>2014-06-05T12:10:48Z</time>
      </trkpt>
      <trkpt lat="44.61019" lon="2.1156">
        <ele>295.74</ele>
        <time>2014-06-05T12:11:07Z</time>
      </trkpt>
      <trkpt lat="44.61033" lon="2.11539">
        <ele>296.7</ele>
        <time>2014-06-05T12:11:27Z</time>
      </trkpt>
      <trkpt lat="44.6103" lon="2.11515">
        <ele>296.22</ele>
        <time>2014-06-05T12:11:44Z</time>
      </trkpt>
      <trkpt lat="44.61026" lon="2.11503">
        <ele>297.18</ele>
        <time>2014-06-05T12:11:51Z</time>
      </trkpt>
      <trkpt lat="44.61023" lon="2.11485">
        <ele>296.7</ele>
        <time>2014-06-05T12:12:02Z</time>
      </trkpt>
      <trkpt lat="44.61025" lon="2.11453">
        <ele>297.18</ele>
        <time>2014-06-05T12:12:22Z</time>
      </trkpt>
      <trkpt lat="44.6103" lon="2.11433">
        <ele>296.7</ele>
        <time>2014-06-05T12:12:39Z</time>
      </trkpt>
      <trkpt lat="44.61033" lon="2.11432">
        <ele>297.67</ele>
        <time>2014-06-05T12:12:42Z</time>
      </trkpt>
      <trkpt lat="44.61054" lon="2.11424">
        <ele>298.15</ele>
        <time>2014-06-05T12:13:03Z</time>
      </trkpt>
      <trkpt lat="44.61073" lon="2.11416">
        <ele>299.59</ele>
        <time>2014-06-05T12:13:22Z</time>
      </trkpt>
      <trkpt lat="44.61091" lon="2.1141">
        <ele>301.51</ele>
        <time>2014-06-05T12:13:38Z</time>
      </trkpt>
      <trkpt lat="44.61113" lon="2.114">
        <ele>302.95</ele>
        <time>2014-06-05T12:14:00Z</time>
      </trkpt>
      <trkpt lat="44.61132" lon="2.11392">
        <ele>305.36</ele>
        <time>2014-06-05T12:14:21Z</time>
      </trkpt>
      <trkpt lat="44.61136" lon="2.11387">
        <ele>305.84</ele>
        <time>2014-06-05T12:14:26Z</time>
      </trkpt>
      <trkpt lat="44.61149" lon="2.11366">
        <ele>306.8</ele>
        <time>2014-06-05T12:14:49Z</time>
      </trkpt>
      <trkpt lat="44.61161" lon="2.11352">
        <ele>309.2</ele>
        <time>2014-06-05T12:15:08Z</time>
      </trkpt>
      <trkpt lat="44.61166" lon="2.11345">
        <ele>310.16</ele>
        <time>2014-06-05T12:15:29Z</time>
      </trkpt>
      <trkpt lat="44.61174" lon="2.11336">
        <ele>311.12</ele>
        <time>2014-06-05T12:15:39Z</time>
      </trkpt>
      <trkpt lat="44.61189" lon="2.11316">
        <ele>312.09</ele>
        <time>2014-06-05T12:15:59Z</time>
      </trkpt>
      <trkpt lat="44.61195" lon="2.11305">
        <ele>312.57</ele>
        <time>2014-06-05T12:16:08Z</time>
      </trkpt>
      <trkpt lat="44.61203" lon="2.11283">
        <ele>314.49</ele>
        <time>2014-06-05T12:16:25Z</time>
      </trkpt>
      <trkpt lat="44.61213" lon="2.11259">
        <ele>315.45</ele>
        <time>2014-06-05T12:16:44Z</time>
      </trkpt>
      <trkpt lat="44.61227" lon="2.11234">
        <ele>317.37</ele>
        <time>2014-06-05T12:17:05Z</time>
      </trkpt>
      <trkpt lat="44.61235" lon="2.11231">
        <ele>316.41</ele>
        <time>2014-06-05T12:17:13Z</time>
      </trkpt>
      <trkpt lat="44.61243" lon="2.11232">
        <ele>317.37</ele>
        <time>2014-06-05T12:17:21Z</time>
      </trkpt>
      <trkpt lat="44.61259" lon="2.11228">
        <ele>317.85</ele>
        <time>2014-06-05T12:17:42Z</time>
      </trkpt>
      <trkpt lat="44.61258" lon="2.11223">
        <ele>317.85</ele>
        <time>2014-06-05T12:18:00Z</time>
      </trkpt>
      <trkpt lat="44.61272" lon="2.11221">
        <ele>317.85</ele>
        <time>2014-06-05T12:18:18Z</time>
      </trkpt>
      <trkpt lat="44.61276" lon="2.11222">
        <ele>318.33</ele>
        <time>2014-06-05T12:18:41Z</time>
      </trkpt>
      <trkpt lat="44.61286" lon="2.11217">
        <ele>319.3</ele>
        <time>2014-06-05T12:19:09Z</time>
      </trkpt>
      <trkpt lat="44.61299" lon="2.11209">
        <ele>318.81</ele>
        <time>2014-06-05T12:19:27Z</time>
      </trkpt>
      <trkpt lat="44.61315" lon="2.11197">
        <ele>320.26</ele>
        <time>2014-06-05T12:19:47Z</time>
      </trkpt>
      <trkpt lat="44.61337" lon="2.11183">
        <ele>321.7</ele>
        <time>2014-06-05T12:20:08Z</time>
      </trkpt>
      <trkpt lat="44.61356" lon="2.11168">
        <ele>324.1</ele>
        <time>2014-06-05T12:20:30Z</time>
      </trkpt>
      <trkpt lat="44.61376" lon="2.11158">
        <ele>325.06</ele>
        <time>2014-06-05T12:20:49Z</time>
      </trkpt>
      <trkpt lat="44.61377" lon="2.11157">
        <ele>325.54</ele>
        <time>2014-06-05T12:20:50Z</time>
      </trkpt>
      <trkpt lat="44.61395" lon="2.11146">
        <ele>326.5</ele>
        <time>2014-06-05T12:21:10Z</time>
      </trkpt>
      <trkpt lat="44.61415" lon="2.11133">
        <ele>328.43</ele>
        <time>2014-06-05T12:21:31Z</time>
      </trkpt>
      <trkpt lat="44.61437" lon="2.11115">
        <ele>330.83</ele>
        <time>2014-06-05T12:21:52Z</time>
      </trkpt>
      <trkpt lat="44.61457" lon="2.11101">
        <ele>334.2</ele>
        <time>2014-06-05T12:22:13Z</time>
      </trkpt>
      <trkpt lat="44.61476" lon="2.11086">
        <ele>336.6</ele>
        <time>2014-06-05T12:22:31Z</time>
      </trkpt>
      <trkpt lat="44.61498" lon="2.1107">
        <ele>338.52</ele>
        <time>2014-06-05T12:22:52Z</time>
      </trkpt>
      <trkpt lat="44.61519" lon="2.11054">
        <ele>341.41</ele>
        <time>2014-06-05T12:23:15Z</time>
      </trkpt>
      <trkpt lat="44.61537" lon="2.11043">
        <ele>342.85</ele>
        <time>2014-06-05T12:23:33Z</time>
      </trkpt>
      <trkpt lat="44.61546" lon="2.11036">
        <ele>343.33</ele>
        <time>2014-06-05T12:23:49Z</time>
      </trkpt>
      <trkpt lat="44.61567" lon="2.11023">
        <ele>343.33</ele>
        <time>2014-06-05T12:24:08Z</time>
      </trkpt>
      <trkpt lat="44.61583" lon="2.11013">
        <ele>344.77</ele>
        <time>2014-06-05T12:24:24Z</time>
      </trkpt>
      <trkpt lat="44.6159" lon="2.11007">
        <ele>344.77</ele>
        <time>2014-06-05T12:24:38Z</time>
      </trkpt>
      <trkpt lat="44.61605" lon="2.10995">
        <ele>344.77</ele>
        <time>2014-06-05T12:24:54Z</time>
      </trkpt>
      <trkpt lat="44.6162" lon="2.10988">
        <ele>345.25</ele>
        <time>2014-06-05T12:25:08Z</time>
      </trkpt>
      <trkpt lat="44.6164" lon="2.10983">
        <ele>345.25</ele>
        <time>2014-06-05T12:25:27Z</time>
      </trkpt>
      <trkpt lat="44.61653" lon="2.10975">
        <ele>345.73</ele>
        <time>2014-06-05T12:25:43Z</time>
      </trkpt>
      <trkpt lat="44.61663" lon="2.10952">
        <ele>345.73</ele>
        <time>2014-06-05T12:26:01Z</time>
      </trkpt>
      <trkpt lat="44.61664" lon="2.1095">
        <ele>345.73</ele>
        <time>2014-06-05T12:26:02Z</time>
      </trkpt>
      <trkpt lat="44.61677" lon="2.10926">
        <ele>346.21</ele>
        <time>2014-06-05T12:26:22Z</time>
      </trkpt>
      <trkpt lat="44.61698" lon="2.109">
        <ele>345.73</ele>
        <time>2014-06-05T12:26:45Z</time>
      </trkpt>
      <trkpt lat="44.61703" lon="2.10889">
        <ele>346.69</ele>
        <time>2014-06-05T12:27:02Z</time>
      </trkpt>
      <trkpt lat="44.61714" lon="2.10868">
        <ele>346.69</ele>
        <time>2014-06-05T12:27:20Z</time>
      </trkpt>
      <trkpt lat="44.61729" lon="2.10845">
        <ele>347.65</ele>
        <time>2014-06-05T12:27:39Z</time>
      </trkpt>
      <trkpt lat="44.61739" lon="2.10837">
        <ele>347.17</ele>
        <time>2014-06-05T12:27:57Z</time>
      </trkpt>
      <trkpt lat="44.61746" lon="2.10842">
        <ele>344.77</ele>
        <time>2014-06-05T12:28:15Z</time>
      </trkpt>
      <trkpt lat="44.61769" lon="2.10843">
        <ele>343.81</ele>
        <time>2014-06-05T12:28:36Z</time>
      </trkpt>
      <trkpt lat="44.61789" lon="2.10843">
        <ele>344.77</ele>
        <time>2014-06-05T12:28:57Z</time>
      </trkpt>
      <trkpt lat="44.61805" lon="2.10841">
        <ele>344.77</ele>
        <time>2014-06-05T12:29:16Z</time>
      </trkpt>
      <trkpt lat="44.6181" lon="2.10845">
        <ele>344.29</ele>
        <time>2014-06-05T12:29:27Z</time>
      </trkpt>
      <trkpt lat="44.61829" lon="2.10844">
        <ele>343.33</ele>
        <time>2014-06-05T12:29:46Z</time>
      </trkpt>
      <trkpt lat="44.61847" lon="2.1084">
        <ele>342.37</ele>
        <time>2014-06-05T12:30:04Z</time>
      </trkpt>
      <trkpt lat="44.61856" lon="2.10831">
        <ele>342.85</ele>
        <time>2014-06-05T12:30:24Z</time>
      </trkpt>
      <trkpt lat="44.61874" lon="2.10828">
        <ele>344.29</ele>
        <time>2014-06-05T12:30:41Z</time>
      </trkpt>
      <trkpt lat="44.61882" lon="2.10824">
        <ele>344.77</ele>
        <time>2014-06-05T12:30:49Z</time>
      </trkpt>
      <trkpt lat="44.61905" lon="2.10819">
        <ele>344.77</ele>
        <time>2014-06-05T12:31:10Z</time>
      </trkpt>
      <trkpt lat="44.61925" lon="2.10804">
        <ele>345.25</ele>
        <time>2014-06-05T12:31:31Z</time>
      </trkpt>
      <trkpt lat="44.61947" lon="2.1079">
        <ele>346.21</ele>
        <time>2014-06-05T12:31:51Z</time>
      </trkpt>
      <trkpt lat="44.61965" lon="2.10778">
        <ele>346.69</ele>
        <time>2014-06-05T12:32:09Z</time>
      </trkpt>
      <trkpt lat="44.61977" lon="2.10774">
        <ele>347.65</ele>
        <time>2014-06-05T12:32:20Z</time>
      </trkpt>
      <trkpt lat="44.61982" lon="2.10778">
        <ele>347.65</ele>
        <time>2014-06-05T12:32:38Z</time>
      </trkpt>
      <trkpt lat="44.61986" lon="2.10775">
        <ele>347.65</ele>
        <time>2014-06-05T12:32:49Z</time>
      </trkpt>
      <trkpt lat="44.61998" lon="2.10764">
        <ele>348.13</ele>
        <time>2014-06-05T12:33:06Z</time>
      </trkpt>
      <trkpt lat="44.62002" lon="2.10759">
        <ele>349.1</ele>
        <time>2014-06-05T12:33:21Z</time>
      </trkpt>
      <trkpt lat="44.62004" lon="2.10752">
        <ele>348.62</ele>
        <time>2014-06-05T12:33:36Z</time>
      </trkpt>
      <trkpt lat="44.62006" lon="2.10752">
        <ele>348.62</ele>
        <time>2014-06-05T12:33:57Z</time>
      </trkpt>
      <trkpt lat="44.62007" lon="2.10753">
        <ele>349.1</ele>
        <time>2014-06-05T12:34:22Z</time>
      </trkpt>
      <trkpt lat="44.61992" lon="2.10731">
        <ele>350.54</ele>
        <time>2014-06-05T12:34:42Z</time>
      </trkpt>
      <trkpt lat="44.61985" lon="2.10707">
        <ele>352.46</ele>
        <time>2014-06-05T12:35:03Z</time>
      </trkpt>
      <trkpt lat="44.6198" lon="2.10687">
        <ele>352.46</ele>
        <time>2014-06-05T12:35:20Z</time>
      </trkpt>
      <trkpt lat="44.61977" lon="2.10677">
        <ele>353.9</ele>
        <time>2014-06-05T12:35:29Z</time>
      </trkpt>
      <trkpt lat="44.61968" lon="2.10655">
        <ele>354.86</ele>
        <time>2014-06-05T12:35:47Z</time>
      </trkpt>
      <trkpt lat="44.6196" lon="2.10629">
        <ele>354.86</ele>
        <time>2014-06-05T12:36:06Z</time>
      </trkpt>
      <trkpt lat="44.6195" lon="2.10609">
        <ele>354.38</ele>
        <time>2014-06-05T12:36:23Z</time>
      </trkpt>
      <trkpt lat="44.61943" lon="2.10595">
        <ele>353.9</ele>
        <time>2014-06-05T12:36:35Z</time>
      </trkpt>
      <trkpt lat="44.6193" lon="2.1057">
        <ele>351.5</ele>
        <time>2014-06-05T12:36:55Z</time>
      </trkpt>
      <trkpt lat="44.61917" lon="2.10546">
        <ele>349.58</ele>
        <time>2014-06-05T12:37:17Z</time>
      </trkpt>
      <trkpt lat="44.61903" lon="2.10526">
        <ele>347.65</ele>
        <time>2014-06-05T12:37:34Z</time>
      </trkpt>
      <trkpt lat="44.61889" lon="2.10508">
        <ele>346.69</ele>
        <time>2014-06-05T12:37:50Z</time>
      </trkpt>
      <trkpt lat="44.61877" lon="2.10489">
        <ele>345.73</ele>
        <time>2014-06-05T12:38:07Z</time>
      </trkpt>
      <trkpt lat="44.61866" lon="2.10472">
        <ele>345.73</ele>
        <time>2014-06-05T12:38:24Z</time>
      </trkpt>
      <trkpt lat="44.61854" lon="2.10453">
        <ele>342.37</ele>
        <time>2014-06-05T12:38:37Z</time>
      </trkpt>
      <trkpt lat="44.61854" lon="2.10451">
        <ele>347.65</ele>
        <time>2014-06-05T12:38:38Z</time>
      </trkpt>
      <trkpt lat="44.6185" lon="2.10443">
        <ele>344.29</ele>
        <time>2014-06-05T12:38:43Z</time>
      </trkpt>
      <trkpt lat="44.61841" lon="2.10415">
        <ele>344.77</ele>
        <time>2014-06-05T12:39:02Z</time>
      </trkpt>
      <trkpt lat="44.61833" lon="2.10386">
        <ele>344.29</ele>
        <time>2014-06-05T12:39:20Z</time>
      </trkpt>
      <trkpt lat="44.61831" lon="2.10376">
        <ele>339.96</ele>
        <time>2014-06-05T12:39:26Z</time>
      </trkpt>
      <trkpt lat="44.6183" lon="2.10375">
        <ele>348.13</ele>
        <time>2014-06-05T12:39:27Z</time>
      </trkpt>
      <trkpt lat="44.6183" lon="2.10373">
        <ele>344.77</ele>
        <time>2014-06-05T12:39:28Z</time>
      </trkpt>
      <trkpt lat="44.61828" lon="2.10364">
        <ele>344.29</ele>
        <time>2014-06-05T12:39:35Z</time>
      </trkpt>
      <trkpt lat="44.61826" lon="2.10359">
        <ele>342.37</ele>
        <time>2014-06-05T12:39:39Z</time>
      </trkpt>
      <trkpt lat="44.61825" lon="2.10356">
        <ele>344.77</ele>
        <time>2014-06-05T12:39:41Z</time>
      </trkpt>
      <trkpt lat="44.61824" lon="2.10354">
        <ele>348.13</ele>
        <time>2014-06-05T12:39:43Z</time>
      </trkpt>
      <trkpt lat="44.61824" lon="2.10352">
        <ele>344.29</ele>
        <time>2014-06-05T12:39:44Z</time>
      </trkpt>
      <trkpt lat="44.61816" lon="2.10327">
        <ele>345.25</ele>
        <time>2014-06-05T12:40:02Z</time>
      </trkpt>
      <trkpt lat="44.61814" lon="2.10315">
        <ele>344.29</ele>
        <time>2014-06-05T12:40:18Z</time>
      </trkpt>
      <trkpt lat="44.61811" lon="2.10305">
        <ele>345.25</ele>
        <time>2014-06-05T12:40:35Z</time>
      </trkpt>
      <trkpt lat="44.61808" lon="2.10284">
        <ele>346.69</ele>
        <time>2014-06-05T12:40:51Z</time>
      </trkpt>
      <trkpt lat="44.61808" lon="2.10274">
        <ele>345.73</ele>
        <time>2014-06-05T12:40:58Z</time>
      </trkpt>
      <trkpt lat="44.61798" lon="2.10245">
        <ele>345.73</ele>
        <time>2014-06-05T12:41:17Z</time>
      </trkpt>
      <trkpt lat="44.61791" lon="2.1021">
        <ele>346.21</ele>
        <time>2014-06-05T12:41:36Z</time>
      </trkpt>
      <trkpt lat="44.61782" lon="2.10184">
        <ele>346.21</ele>
        <time>2014-06-05T12:41:55Z</time>
      </trkpt>
      <trkpt lat="44.61781" lon="2.10182">
        <ele>347.17</ele>
        <time>2014-06-05T12:41:57Z</time>
      </trkpt>
      <trkpt lat="44.61766" lon="2.10148">
        <ele>347.17</ele>
        <time>2014-06-05T12:42:18Z</time>
      </trkpt>
      <trkpt lat="44.61754" lon="2.10115">
        <ele>348.13</ele>
        <time>2014-06-05T12:42:37Z</time>
      </trkpt>
      <trkpt lat="44.61746" lon="2.10089">
        <ele>349.58</ele>
        <time>2014-06-05T12:42:53Z</time>
      </trkpt>
      <trkpt lat="44.61741" lon="2.10069">
        <ele>349.1</ele>
        <time>2014-06-05T12:43:06Z</time>
      </trkpt>
      <trkpt lat="44.61726" lon="2.10036">
        <ele>351.02</ele>
        <time>2014-06-05T12:43:26Z</time>
      </trkpt>
      <trkpt lat="44.61714" lon="2.10005">
        <ele>351.02</ele>
        <time>2014-06-05T12:43:47Z</time>
      </trkpt>
      <trkpt lat="44.61697" lon="2.09973">
        <ele>351.98</ele>
        <time>2014-06-05T12:44:06Z</time>
      </trkpt>
      <trkpt lat="44.61686" lon="2.09948">
        <ele>352.94</ele>
        <time>2014-06-05T12:44:25Z</time>
      </trkpt>
      <trkpt lat="44.61676" lon="2.09915">
        <ele>352.46</ele>
        <time>2014-06-05T12:44:46Z</time>
      </trkpt>
      <trkpt lat="44.61658" lon="2.09892">
        <ele>352.94</ele>
        <time>2014-06-05T12:45:04Z</time>
      </trkpt>
      <trkpt lat="44.61647" lon="2.09863">
        <ele>353.42</ele>
        <time>2014-06-05T12:45:23Z</time>
      </trkpt>
      <trkpt lat="44.61622" lon="2.09839">
        <ele>354.38</ele>
        <time>2014-06-05T12:45:44Z</time>
      </trkpt>
      <trkpt lat="44.6162" lon="2.09835">
        <ele>353.9</ele>
        <time>2014-06-05T12:45:47Z</time>
      </trkpt>
      <trkpt lat="44.61607" lon="2.09813">
        <ele>354.38</ele>
        <time>2014-06-05T12:46:07Z</time>
      </trkpt>
      <trkpt lat="44.61595" lon="2.09798">
        <ele>354.86</ele>
        <time>2014-06-05T12:46:27Z</time>
      </trkpt>
      <trkpt lat="44.61595" lon="2.09797">
        <ele>354.86</ele>
        <time>2014-06-05T12:46:47Z</time>
      </trkpt>
      <trkpt lat="44.61591" lon="2.09799">
        <ele>355.34</ele>
        <time>2014-06-05T12:47:15Z</time>
      </trkpt>
      <trkpt lat="44.61593" lon="2.09798">
        <ele>355.34</ele>
        <time>2014-06-05T12:47:39Z</time>
      </trkpt>
      <trkpt lat="44.61593" lon="2.098">
        <ele>354.86</ele>
        <time>2014-06-05T12:47:59Z</time>
      </trkpt>
      <trkpt lat="44.61596" lon="2.09803">
        <ele>354.86</ele>
        <time>2014-06-05T12:48:27Z</time>
      </trkpt>
      <trkpt lat="44.6159" lon="2.09784">
        <ele>354.86</ele>
        <time>2014-06-05T12:48:44Z</time>
      </trkpt>
      <trkpt lat="44.6158" lon="2.09765">
        <ele>355.83</ele>
        <time>2014-06-05T12:49:01Z</time>
      </trkpt>
      <trkpt lat="44.61571" lon="2.09747">
        <ele>356.31</ele>
        <time>2014-06-05T12:49:17Z</time>
      </trkpt>
      <trkpt lat="44.61553" lon="2.09724">
        <ele>356.79</ele>
        <time>2014-06-05T12:49:37Z</time>
      </trkpt>
      <trkpt lat="44.61541" lon="2.09706">
        <ele>357.75</ele>
        <time>2014-06-05T12:49:53Z</time>
      </trkpt>
      <trkpt lat="44.61522" lon="2.09684">
        <ele>358.71</ele>
        <time>2014-06-05T12:50:14Z</time>
      </trkpt>
      <trkpt lat="44.61516" lon="2.09675">
        <ele>358.71</ele>
        <time>2014-06-05T12:50:21Z</time>
      </trkpt>
      <trkpt lat="44.61496" lon="2.09645">
        <ele>360.15</ele>
        <time>2014-06-05T12:50:46Z</time>
      </trkpt>
      <trkpt lat="44.61493" lon="2.09638">
        <ele>360.15</ele>
        <time>2014-06-05T12:50:52Z</time>
      </trkpt>
      <trkpt lat="44.61485" lon="2.0961">
        <ele>362.07</ele>
        <time>2014-06-05T12:51:12Z</time>
      </trkpt>
      <trkpt lat="44.6148" lon="2.0958">
        <ele>363.04</ele>
        <time>2014-06-05T12:51:31Z</time>
      </trkpt>
      <trkpt lat="44.61479" lon="2.09557">
        <ele>364</ele>
        <time>2014-06-05T12:51:49Z</time>
      </trkpt>
      <trkpt lat="44.61482" lon="2.09531">
        <ele>364.96</ele>
        <time>2014-06-05T12:52:06Z</time>
      </trkpt>
      <trkpt lat="44.61479" lon="2.09501">
        <ele>366.4</ele>
        <time>2014-06-05T12:52:25Z</time>
      </trkpt>
      <trkpt lat="44.61481" lon="2.09477">
        <ele>367.36</ele>
        <time>2014-06-05T12:52:39Z</time>
      </trkpt>
      <trkpt lat="44.61481" lon="2.09474">
        <ele>370.24</ele>
        <time>2014-06-05T12:52:42Z</time>
      </trkpt>
      <trkpt lat="44.61481" lon="2.09472">
        <ele>370.24</ele>
        <time>2014-06-05T12:52:43Z</time>
      </trkpt>
      <trkpt lat="44.61481" lon="2.0947">
        <ele>366.4</ele>
        <time>2014-06-05T12:52:44Z</time>
      </trkpt>
      <trkpt lat="44.61481" lon="2.09469">
        <ele>366.4</ele>
        <time>2014-06-05T12:52:45Z</time>
      </trkpt>
      <trkpt lat="44.61483" lon="2.09438">
        <ele>367.84</ele>
        <time>2014-06-05T12:53:04Z</time>
      </trkpt>
      <trkpt lat="44.61484" lon="2.09416">
        <ele>368.32</ele>
        <time>2014-06-05T12:53:19Z</time>
      </trkpt>
      <trkpt lat="44.61484" lon="2.09413">
        <ele>368.32</ele>
        <time>2014-06-05T12:53:21Z</time>
      </trkpt>
      <trkpt lat="44.61484" lon="2.0941">
        <ele>368.32</ele>
        <time>2014-06-05T12:53:23Z</time>
      </trkpt>
      <trkpt lat="44.61485" lon="2.09401">
        <ele>369.28</ele>
        <time>2014-06-05T12:53:29Z</time>
      </trkpt>
      <trkpt lat="44.61488" lon="2.09379">
        <ele>369.76</ele>
        <time>2014-06-05T12:53:41Z</time>
      </trkpt>
      <trkpt lat="44.61488" lon="2.09373">
        <ele>369.76</ele>
        <time>2014-06-05T12:53:46Z</time>
      </trkpt>
      <trkpt lat="44.6149" lon="2.09346">
        <ele>370.73</ele>
        <time>2014-06-05T12:54:00Z</time>
      </trkpt>
      <trkpt lat="44.61492" lon="2.09319">
        <ele>371.69</ele>
        <time>2014-06-05T12:54:17Z</time>
      </trkpt>
      <trkpt lat="44.61496" lon="2.09297">
        <ele>371.69</ele>
        <time>2014-06-05T12:54:33Z</time>
      </trkpt>
      <trkpt lat="44.61496" lon="2.09293">
        <ele>371.69</ele>
        <time>2014-06-05T12:54:35Z</time>
      </trkpt>
      <trkpt lat="44.61496" lon="2.09286">
        <ele>371.69</ele>
        <time>2014-06-05T12:54:39Z</time>
      </trkpt>
      <trkpt lat="44.61499" lon="2.09252">
        <ele>373.13</ele>
        <time>2014-06-05T12:54:57Z</time>
      </trkpt>
      <trkpt lat="44.615" lon="2.09228">
        <ele>373.61</ele>
        <time>2014-06-05T12:55:10Z</time>
      </trkpt>
      <trkpt lat="44.61501" lon="2.09215">
        <ele>374.09</ele>
        <time>2014-06-05T12:55:21Z</time>
      </trkpt>
      <trkpt lat="44.61502" lon="2.09206">
        <ele>374.57</ele>
        <time>2014-06-05T12:55:26Z</time>
      </trkpt>
      <trkpt lat="44.61503" lon="2.092">
        <ele>377.45</ele>
        <time>2014-06-05T12:55:29Z</time>
      </trkpt>
      <trkpt lat="44.61503" lon="2.09195">
        <ele>374.09</ele>
        <time>2014-06-05T12:55:32Z</time>
      </trkpt>
      <trkpt lat="44.61504" lon="2.09191">
        <ele>369.28</ele>
        <time>2014-06-05T12:55:34Z</time>
      </trkpt>
      <trkpt lat="44.61504" lon="2.09188">
        <ele>368.8</ele>
        <time>2014-06-05T12:55:35Z</time>
      </trkpt>
      <trkpt lat="44.61504" lon="2.09186">
        <ele>379.86</ele>
        <time>2014-06-05T12:55:36Z</time>
      </trkpt>
      <trkpt lat="44.61504" lon="2.09185">
        <ele>375.05</ele>
        <time>2014-06-05T12:55:37Z</time>
      </trkpt>
      <trkpt lat="44.61506" lon="2.09159">
        <ele>376.01</ele>
        <time>2014-06-05T12:55:53Z</time>
      </trkpt>
      <trkpt lat="44.61505" lon="2.09145">
        <ele>376.01</ele>
        <time>2014-06-05T12:56:01Z</time>
      </trkpt>
      <trkpt lat="44.61508" lon="2.09113">
        <ele>376.97</ele>
        <time>2014-06-05T12:56:17Z</time>
      </trkpt>
      <trkpt lat="44.61509" lon="2.091">
        <ele>377.94</ele>
        <time>2014-06-05T12:56:32Z</time>
      </trkpt>
      <trkpt lat="44.61511" lon="2.09102">
        <ele>377.94</ele>
        <time>2014-06-05T12:56:52Z</time>
      </trkpt>
      <trkpt lat="44.61508" lon="2.09093">
        <ele>377.94</ele>
        <time>2014-06-05T12:57:10Z</time>
      </trkpt>
      <trkpt lat="44.61512" lon="2.09073">
        <ele>379.38</ele>
        <time>2014-06-05T12:57:25Z</time>
      </trkpt>
      <trkpt lat="44.61514" lon="2.0905">
        <ele>379.86</ele>
        <time>2014-06-05T12:57:40Z</time>
      </trkpt>
      <trkpt lat="44.61514" lon="2.09025">
        <ele>380.82</ele>
        <time>2014-06-05T12:57:55Z</time>
      </trkpt>
      <trkpt lat="44.61511" lon="2.08999">
        <ele>381.78</ele>
        <time>2014-06-05T12:58:12Z</time>
      </trkpt>
      <trkpt lat="44.61497" lon="2.08976">
        <ele>383.7</ele>
        <time>2014-06-05T12:58:30Z</time>
      </trkpt>
      <trkpt lat="44.61483" lon="2.08953">
        <ele>384.66</ele>
        <time>2014-06-05T12:58:49Z</time>
      </trkpt>
      <trkpt lat="44.61475" lon="2.08938">
        <ele>386.11</ele>
        <time>2014-06-05T12:59:03Z</time>
      </trkpt>
      <trkpt lat="44.61465" lon="2.08917">
        <ele>387.07</ele>
        <time>2014-06-05T12:59:19Z</time>
      </trkpt>
      <trkpt lat="44.61447" lon="2.08897">
        <ele>388.51</ele>
        <time>2014-06-05T12:59:36Z</time>
      </trkpt>
      <trkpt lat="44.61443" lon="2.08894">
        <ele>388.03</ele>
        <time>2014-06-05T12:59:41Z</time>
      </trkpt>
      <trkpt lat="44.61438" lon="2.0889">
        <ele>387.07</ele>
        <time>2014-06-05T12:59:46Z</time>
      </trkpt>
      <trkpt lat="44.61428" lon="2.08869">
        <ele>387.07</ele>
        <time>2014-06-05T13:00:02Z</time>
      </trkpt>
      <trkpt lat="44.61424" lon="2.08857">
        <ele>386.59</ele>
        <time>2014-06-05T13:00:09Z</time>
      </trkpt>
      <trkpt lat="44.6142" lon="2.08847">
        <ele>386.11</ele>
        <time>2014-06-05T13:00:15Z</time>
      </trkpt>
      <trkpt lat="44.61419" lon="2.08841">
        <ele>386.11</ele>
        <time>2014-06-05T13:00:20Z</time>
      </trkpt>
      <trkpt lat="44.61412" lon="2.08813">
        <ele>385.15</ele>
        <time>2014-06-05T13:00:37Z</time>
      </trkpt>
      <trkpt lat="44.61406" lon="2.08771">
        <ele>384.66</ele>
        <time>2014-06-05T13:01:00Z</time>
      </trkpt>
      <trkpt lat="44.61399" lon="2.08743">
        <ele>384.18</ele>
        <time>2014-06-05T13:01:19Z</time>
      </trkpt>
      <trkpt lat="44.61398" lon="2.08739">
        <ele>384.18</ele>
        <time>2014-06-05T13:01:21Z</time>
      </trkpt>
      <trkpt lat="44.61391" lon="2.08707">
        <ele>384.18</ele>
        <time>2014-06-05T13:01:43Z</time>
      </trkpt>
      <trkpt lat="44.61384" lon="2.08703">
        <ele>385.15</ele>
        <time>2014-06-05T13:01:53Z</time>
      </trkpt>
      <trkpt lat="44.61376" lon="2.08708">
        <ele>384.18</ele>
        <time>2014-06-05T13:02:01Z</time>
      </trkpt>
      <trkpt lat="44.61369" lon="2.08711">
        <ele>384.66</ele>
        <time>2014-06-05T13:02:08Z</time>
      </trkpt>
      <trkpt lat="44.61352" lon="2.08722">
        <ele>384.66</ele>
        <time>2014-06-05T13:02:23Z</time>
      </trkpt>
      <trkpt lat="44.61336" lon="2.08727">
        <ele>384.18</ele>
        <time>2014-06-05T13:02:38Z</time>
      </trkpt>
      <trkpt lat="44.61335" lon="2.08727">
        <ele>384.18</ele>
        <time>2014-06-05T13:02:39Z</time>
      </trkpt>
      <trkpt lat="44.61329" lon="2.08731">
        <ele>383.7</ele>
        <time>2014-06-05T13:02:44Z</time>
      </trkpt>
      <trkpt lat="44.61322" lon="2.08734">
        <ele>384.18</ele>
        <time>2014-06-05T13:02:50Z</time>
      </trkpt>
      <trkpt lat="44.61315" lon="2.08724">
        <ele>385.15</ele>
        <time>2014-06-05T13:03:01Z</time>
      </trkpt>
      <trkpt lat="44.61306" lon="2.08709">
        <ele>387.07</ele>
        <time>2014-06-05T13:03:15Z</time>
      </trkpt>
      <trkpt lat="44.61306" lon="2.08708">
        <ele>387.07</ele>
        <time>2014-06-05T13:03:16Z</time>
      </trkpt>
      <trkpt lat="44.61297" lon="2.08698">
        <ele>387.07</ele>
        <time>2014-06-05T13:03:29Z</time>
      </trkpt>
      <trkpt lat="44.61291" lon="2.08696">
        <ele>387.55</ele>
        <time>2014-06-05T13:03:49Z</time>
      </trkpt>
      <trkpt lat="44.6129" lon="2.08693">
        <ele>387.07</ele>
        <time>2014-06-05T13:04:21Z</time>
      </trkpt>
      <trkpt lat="44.61292" lon="2.08696">
        <ele>388.51</ele>
        <time>2014-06-05T13:04:52Z</time>
      </trkpt>
      <trkpt lat="44.61291" lon="2.08695">
        <ele>387.55</ele>
        <time>2014-06-05T13:05:13Z</time>
      </trkpt>
      <trkpt lat="44.61289" lon="2.08697">
        <ele>388.03</ele>
        <time>2014-06-05T13:05:37Z</time>
      </trkpt>
      <trkpt lat="44.61289" lon="2.08698">
        <ele>388.03</ele>
        <time>2014-06-05T13:05:59Z</time>
      </trkpt>
      <trkpt lat="44.61291" lon="2.08695">
        <ele>387.55</ele>
        <time>2014-06-05T13:06:15Z</time>
      </trkpt>
      <trkpt lat="44.61288" lon="2.08699">
        <ele>387.55</ele>
        <time>2014-06-05T13:06:33Z</time>
      </trkpt>
      <trkpt lat="44.61287" lon="2.08696">
        <ele>387.55</ele>
        <time>2014-06-05T13:06:54Z</time>
      </trkpt>
      <trkpt lat="44.61289" lon="2.08694">
        <ele>387.55</ele>
        <time>2014-06-05T13:07:23Z</time>
      </trkpt>
      <trkpt lat="44.61292" lon="2.08698">
        <ele>387.55</ele>
        <time>2014-06-05T13:07:45Z</time>
      </trkpt>
      <trkpt lat="44.61291" lon="2.08698">
        <ele>388.51</ele>
        <time>2014-06-05T13:08:09Z</time>
      </trkpt>
      <trkpt lat="44.61284" lon="2.08702">
        <ele>387.55</ele>
        <time>2014-06-05T13:08:22Z</time>
      </trkpt>
      <trkpt lat="44.61266" lon="2.08699">
        <ele>386.59</ele>
        <time>2014-06-05T13:08:40Z</time>
      </trkpt>
      <trkpt lat="44.61255" lon="2.08697">
        <ele>386.11</ele>
        <time>2014-06-05T13:08:52Z</time>
      </trkpt>
      <trkpt lat="44.61244" lon="2.08692">
        <ele>385.63</ele>
        <time>2014-06-05T13:09:03Z</time>
      </trkpt>
      <trkpt lat="44.61238" lon="2.08693">
        <ele>385.15</ele>
        <time>2014-06-05T13:09:09Z</time>
      </trkpt>
      <trkpt lat="44.61222" lon="2.0869">
        <ele>383.7</ele>
        <time>2014-06-05T13:09:23Z</time>
      </trkpt>
      <trkpt lat="44.61221" lon="2.0869">
        <ele>384.18</ele>
        <time>2014-06-05T13:09:25Z</time>
      </trkpt>
      <trkpt lat="44.61204" lon="2.08686">
        <ele>382.26</ele>
        <time>2014-06-05T13:09:41Z</time>
      </trkpt>
      <trkpt lat="44.61187" lon="2.08681">
        <ele>381.3</ele>
        <time>2014-06-05T13:09:57Z</time>
      </trkpt>
      <trkpt lat="44.61174" lon="2.08676">
        <ele>379.38</ele>
        <time>2014-06-05T13:10:10Z</time>
      </trkpt>
      <trkpt lat="44.61163" lon="2.08666">
        <ele>376.97</ele>
        <time>2014-06-05T13:10:25Z</time>
      </trkpt>
      <trkpt lat="44.61163" lon="2.08666">
        <ele>377.45</ele>
        <time>2014-06-05T13:10:26Z</time>
      </trkpt>
      <trkpt lat="44.61173" lon="2.08653">
        <ele>378.42</ele>
        <time>2014-06-05T13:10:41Z</time>
      </trkpt>
      <trkpt lat="44.61183" lon="2.08637">
        <ele>378.42</ele>
        <time>2014-06-05T13:10:56Z</time>
      </trkpt>
      <trkpt lat="44.61194" lon="2.08618">
        <ele>378.42</ele>
        <time>2014-06-05T13:11:13Z</time>
      </trkpt>
      <trkpt lat="44.61206" lon="2.08589">
        <ele>379.86</ele>
        <time>2014-06-05T13:11:32Z</time>
      </trkpt>
      <trkpt lat="44.61207" lon="2.08588">
        <ele>379.38</ele>
        <time>2014-06-05T13:11:33Z</time>
      </trkpt>
      <trkpt lat="44.61213" lon="2.0856">
        <ele>379.38</ele>
        <time>2014-06-05T13:11:49Z</time>
      </trkpt>
      <trkpt lat="44.61211" lon="2.08543">
        <ele>380.82</ele>
        <time>2014-06-05T13:12:03Z</time>
      </trkpt>
      <trkpt lat="44.61202" lon="2.08523">
        <ele>383.22</ele>
        <time>2014-06-05T13:12:20Z</time>
      </trkpt>
      <trkpt lat="44.61194" lon="2.08499">
        <ele>384.18</ele>
        <time>2014-06-05T13:12:35Z</time>
      </trkpt>
      <trkpt lat="44.61194" lon="2.08495">
        <ele>384.66</ele>
        <time>2014-06-05T13:12:37Z</time>
      </trkpt>
      <trkpt lat="44.61192" lon="2.08478">
        <ele>385.15</ele>
        <time>2014-06-05T13:12:46Z</time>
      </trkpt>
      <trkpt lat="44.61188" lon="2.08461">
        <ele>385.15</ele>
        <time>2014-06-05T13:12:58Z</time>
      </trkpt>
      <trkpt lat="44.6119" lon="2.08437">
        <ele>385.63</ele>
        <time>2014-06-05T13:13:13Z</time>
      </trkpt>
      <trkpt lat="44.61193" lon="2.0843">
        <ele>385.63</ele>
        <time>2014-06-05T13:13:17Z</time>
      </trkpt>
      <trkpt lat="44.61195" lon="2.08423">
        <ele>386.11</ele>
        <time>2014-06-05T13:13:22Z</time>
      </trkpt>
      <trkpt lat="44.61195" lon="2.08413">
        <ele>386.11</ele>
        <time>2014-06-05T13:13:30Z</time>
      </trkpt>
      <trkpt lat="44.61196" lon="2.08408">
        <ele>386.59</ele>
        <time>2014-06-05T13:13:33Z</time>
      </trkpt>
      <trkpt lat="44.61198" lon="2.08383">
        <ele>385.63</ele>
        <time>2014-06-05T13:13:48Z</time>
      </trkpt>
      <trkpt lat="44.61199" lon="2.08369">
        <ele>386.11</ele>
        <time>2014-06-05T13:14:00Z</time>
      </trkpt>
      <trkpt lat="44.612" lon="2.08345">
        <ele>384.18</ele>
        <time>2014-06-05T13:14:15Z</time>
      </trkpt>
      <trkpt lat="44.61204" lon="2.08315">
        <ele>383.7</ele>
        <time>2014-06-05T13:14:32Z</time>
      </trkpt>
      <trkpt lat="44.6121" lon="2.08286">
        <ele>382.74</ele>
        <time>2014-06-05T13:14:50Z</time>
      </trkpt>
      <trkpt lat="44.61215" lon="2.0826">
        <ele>382.26</ele>
        <time>2014-06-05T13:15:06Z</time>
      </trkpt>
      <trkpt lat="44.61223" lon="2.08226">
        <ele>381.78</ele>
        <time>2014-06-05T13:15:24Z</time>
      </trkpt>
      <trkpt lat="44.61228" lon="2.08204">
        <ele>380.82</ele>
        <time>2014-06-05T13:15:40Z</time>
      </trkpt>
      <trkpt lat="44.61223" lon="2.0818">
        <ele>379.86</ele>
        <time>2014-06-05T13:15:56Z</time>
      </trkpt>
      <trkpt lat="44.6122" lon="2.08168">
        <ele>379.38</ele>
        <time>2014-06-05T13:16:03Z</time>
      </trkpt>
      <trkpt lat="44.61214" lon="2.08142">
        <ele>378.9</ele>
        <time>2014-06-05T13:16:19Z</time>
      </trkpt>
      <trkpt lat="44.61201" lon="2.08116">
        <ele>378.42</ele>
        <time>2014-06-05T13:16:36Z</time>
      </trkpt>
      <trkpt lat="44.61186" lon="2.08094">
        <ele>378.42</ele>
        <time>2014-06-05T13:16:53Z</time>
      </trkpt>
      <trkpt lat="44.61173" lon="2.08074">
        <ele>378.9</ele>
        <time>2014-06-05T13:17:07Z</time>
      </trkpt>
      <trkpt lat="44.61161" lon="2.08049">
        <ele>378.42</ele>
        <time>2014-06-05T13:17:23Z</time>
      </trkpt>
      <trkpt lat="44.61149" lon="2.0803">
        <ele>380.34</ele>
        <time>2014-06-05T13:17:38Z</time>
      </trkpt>
      <trkpt lat="44.61137" lon="2.08013">
        <ele>381.3</ele>
        <time>2014-06-05T13:17:53Z</time>
      </trkpt>
      <trkpt lat="44.61134" lon="2.07989">
        <ele>382.26</ele>
        <time>2014-06-05T13:18:08Z</time>
      </trkpt>
      <trkpt lat="44.61133" lon="2.07967">
        <ele>384.18</ele>
        <time>2014-06-05T13:18:21Z</time>
      </trkpt>
      <trkpt lat="44.61133" lon="2.07958">
        <ele>385.15</ele>
        <time>2014-06-05T13:18:35Z</time>
      </trkpt>
      <trkpt lat="44.61131" lon="2.0796">
        <ele>385.15</ele>
        <time>2014-06-05T13:19:00Z</time>
      </trkpt>
      <trkpt lat="44.61133" lon="2.07962">
        <ele>382.74</ele>
        <time>2014-06-05T13:19:13Z</time>
      </trkpt>
      <trkpt lat="44.61133" lon="2.07962">
        <ele>387.55</ele>
        <time>2014-06-05T13:19:14Z</time>
      </trkpt>
      <trkpt lat="44.61133" lon="2.07963">
        <ele>385.63</ele>
        <time>2014-06-05T13:19:15Z</time>
      </trkpt>
      <trkpt lat="44.61135" lon="2.07959">
        <ele>386.11</ele>
        <time>2014-06-05T13:19:31Z</time>
      </trkpt>
      <trkpt lat="44.61135" lon="2.07955">
        <ele>385.63</ele>
        <time>2014-06-05T13:19:48Z</time>
      </trkpt>
      <trkpt lat="44.61132" lon="2.07955">
        <ele>385.15</ele>
        <time>2014-06-05T13:20:05Z</time>
      </trkpt>
      <trkpt lat="44.61133" lon="2.07952">
        <ele>385.63</ele>
        <time>2014-06-05T13:20:24Z</time>
      </trkpt>
      <trkpt lat="44.61133" lon="2.07954">
        <ele>385.15</ele>
        <time>2014-06-05T13:20:48Z</time>
      </trkpt>
      <trkpt lat="44.61135" lon="2.0796">
        <ele>385.15</ele>
        <time>2014-06-05T13:21:00Z</time>
      </trkpt>
      <trkpt lat="44.61134" lon="2.07957">
        <ele>385.15</ele>
        <time>2014-06-05T13:21:29Z</time>
      </trkpt>
      <trkpt lat="44.61133" lon="2.07954">
        <ele>385.15</ele>
        <time>2014-06-05T13:21:58Z</time>
      </trkpt>
      <trkpt lat="44.61132" lon="2.07956">
        <ele>385.15</ele>
        <time>2014-06-05T13:22:14Z</time>
      </trkpt>
      <trkpt lat="44.61135" lon="2.0795">
        <ele>385.63</ele>
        <time>2014-06-05T13:22:20Z</time>
      </trkpt>
      <trkpt lat="44.61139" lon="2.07949">
        <ele>386.11</ele>
        <time>2014-06-05T13:22:24Z</time>
      </trkpt>
      <trkpt lat="44.61146" lon="2.07942">
        <ele>386.11</ele>
        <time>2014-06-05T13:22:32Z</time>
      </trkpt>
      <trkpt lat="44.61153" lon="2.07934">
        <ele>385.63</ele>
        <time>2014-06-05T13:22:39Z</time>
      </trkpt>
      <trkpt lat="44.61172" lon="2.07927">
        <ele>385.15</ele>
        <time>2014-06-05T13:22:57Z</time>
      </trkpt>
      <trkpt lat="44.61181" lon="2.07923">
        <ele>385.63</ele>
        <time>2014-06-05T13:23:05Z</time>
      </trkpt>
      <trkpt lat="44.61199" lon="2.07919">
        <ele>387.07</ele>
        <time>2014-06-05T13:23:18Z</time>
      </trkpt>
      <trkpt lat="44.61219" lon="2.07913">
        <ele>387.07</ele>
        <time>2014-06-05T13:23:31Z</time>
      </trkpt>
      <trkpt lat="44.61231" lon="2.07912">
        <ele>387.55</ele>
        <time>2014-06-05T13:23:39Z</time>
      </trkpt>
      <trkpt lat="44.61232" lon="2.07911">
        <ele>387.55</ele>
        <time>2014-06-05T13:23:40Z</time>
      </trkpt>
      <trkpt lat="44.61232" lon="2.07911">
        <ele>388.03</ele>
        <time>2014-06-05T13:23:41Z</time>
      </trkpt>
      <trkpt lat="44.61239" lon="2.07906">
        <ele>387.55</ele>
        <time>2014-06-05T13:23:51Z</time>
      </trkpt>
      <trkpt lat="44.61239" lon="2.07901">
        <ele>388.51</ele>
        <time>2014-06-05T13:24:07Z</time>
      </trkpt>
      <trkpt lat="44.6123" lon="2.07893">
        <ele>388.51</ele>
        <time>2014-06-05T13:24:20Z</time>
      </trkpt>
      <trkpt lat="44.61229" lon="2.07892">
        <ele>388.03</ele>
        <time>2014-06-05T13:24:21Z</time>
      </trkpt>
      <trkpt lat="44.61228" lon="2.07891">
        <ele>388.51</ele>
        <time>2014-06-05T13:24:22Z</time>
      </trkpt>
      <trkpt lat="44.6122" lon="2.07882">
        <ele>387.55</ele>
        <time>2014-06-05T13:24:32Z</time>
      </trkpt>
      <trkpt lat="44.61219" lon="2.07881">
        <ele>387.07</ele>
        <time>2014-06-05T13:24:33Z</time>
      </trkpt>
      <trkpt lat="44.61218" lon="2.07881">
        <ele>388.03</ele>
        <time>2014-06-05T13:24:34Z</time>
      </trkpt>
      <trkpt lat="44.61217" lon="2.0788">
        <ele>387.07</ele>
        <time>2014-06-05T13:24:35Z</time>
      </trkpt>
      <trkpt lat="44.61216" lon="2.07879">
        <ele>387.55</ele>
        <time>2014-06-05T13:24:36Z</time>
      </trkpt>
      <trkpt lat="44.61215" lon="2.07878">
        <ele>387.55</ele>
        <time>2014-06-05T13:24:37Z</time>
      </trkpt>
      <trkpt lat="44.61203" lon="2.07865">
        <ele>388.51</ele>
        <time>2014-06-05T13:24:53Z</time>
      </trkpt>
      <trkpt lat="44.61187" lon="2.07851">
        <ele>388.03</ele>
        <time>2014-06-05T13:25:08Z</time>
      </trkpt>
      <trkpt lat="44.61171" lon="2.07835">
        <ele>386.59</ele>
        <time>2014-06-05T13:25:23Z</time>
      </trkpt>
      <trkpt lat="44.61155" lon="2.07811">
        <ele>386.59</ele>
        <time>2014-06-05T13:25:42Z</time>
      </trkpt>
      <trkpt lat="44.61142" lon="2.07791">
        <ele>385.63</ele>
        <time>2014-06-05T13:25:56Z</time>
      </trkpt>
      <trkpt lat="44.61131" lon="2.0777">
        <ele>384.66</ele>
        <time>2014-06-05T13:26:14Z</time>
      </trkpt>
      <trkpt lat="44.61117" lon="2.0775">
        <ele>384.18</ele>
        <time>2014-06-05T13:26:32Z</time>
      </trkpt>
      <trkpt lat="44.61097" lon="2.07722">
        <ele>383.7</ele>
        <time>2014-06-05T13:26:53Z</time>
      </trkpt>
      <trkpt lat="44.61081" lon="2.077">
        <ele>383.22</ele>
        <time>2014-06-05T13:27:12Z</time>
      </trkpt>
      <trkpt lat="44.61066" lon="2.07679">
        <ele>382.74</ele>
        <time>2014-06-05T13:27:31Z</time>
      </trkpt>
      <trkpt lat="44.61052" lon="2.07657">
        <ele>381.78</ele>
        <time>2014-06-05T13:27:49Z</time>
      </trkpt>
      <trkpt lat="44.61045" lon="2.07646">
        <ele>380.82</ele>
        <time>2014-06-05T13:27:59Z</time>
      </trkpt>
      <trkpt lat="44.61039" lon="2.07629">
        <ele>381.3</ele>
        <time>2014-06-05T13:28:14Z</time>
      </trkpt>
      <trkpt lat="44.61038" lon="2.0762">
        <ele>380.34</ele>
        <time>2014-06-05T13:28:20Z</time>
      </trkpt>
      <trkpt lat="44.61039" lon="2.07599">
        <ele>379.38</ele>
        <time>2014-06-05T13:28:36Z</time>
      </trkpt>
      <trkpt lat="44.61041" lon="2.07572">
        <ele>378.42</ele>
        <time>2014-06-05T13:28:50Z</time>
      </trkpt>
      <trkpt lat="44.61038" lon="2.07542">
        <ele>377.94</ele>
        <time>2014-06-05T13:29:07Z</time>
      </trkpt>
      <trkpt lat="44.61036" lon="2.07512">
        <ele>376.97</ele>
        <time>2014-06-05T13:29:23Z</time>
      </trkpt>
      <trkpt lat="44.61031" lon="2.07488">
        <ele>375.53</ele>
        <time>2014-06-05T13:29:37Z</time>
      </trkpt>
      <trkpt lat="44.61028" lon="2.07461">
        <ele>374.57</ele>
        <time>2014-06-05T13:29:52Z</time>
      </trkpt>
      <trkpt lat="44.61024" lon="2.07436">
        <ele>373.13</ele>
        <time>2014-06-05T13:30:07Z</time>
      </trkpt>
      <trkpt lat="44.61022" lon="2.0741">
        <ele>372.17</ele>
        <time>2014-06-05T13:30:22Z</time>
      </trkpt>
      <trkpt lat="44.61022" lon="2.07384">
        <ele>371.69</ele>
        <time>2014-06-05T13:30:36Z</time>
      </trkpt>
      <trkpt lat="44.61022" lon="2.07382">
        <ele>371.69</ele>
        <time>2014-06-05T13:30:37Z</time>
      </trkpt>
      <trkpt lat="44.61019" lon="2.07365">
        <ele>371.69</ele>
        <time>2014-06-05T13:30:50Z</time>
      </trkpt>
      <trkpt lat="44.61017" lon="2.07337">
        <ele>371.21</ele>
        <time>2014-06-05T13:31:06Z</time>
      </trkpt>
      <trkpt lat="44.61014" lon="2.07311">
        <ele>371.69</ele>
        <time>2014-06-05T13:31:20Z</time>
      </trkpt>
      <trkpt lat="44.61009" lon="2.07295">
        <ele>370.73</ele>
        <time>2014-06-05T13:31:33Z</time>
      </trkpt>
      <trkpt lat="44.61008" lon="2.07291">
        <ele>370.73</ele>
        <time>2014-06-05T13:31:44Z</time>
      </trkpt>
      <trkpt lat="44.61007" lon="2.07287">
        <ele>371.21</ele>
        <time>2014-06-05T13:31:55Z</time>
      </trkpt>
      <trkpt lat="44.61006" lon="2.07271">
        <ele>370.73</ele>
        <time>2014-06-05T13:32:07Z</time>
      </trkpt>
      <trkpt lat="44.61005" lon="2.07256">
        <ele>371.69</ele>
        <time>2014-06-05T13:32:17Z</time>
      </trkpt>
      <trkpt lat="44.61006" lon="2.07246">
        <ele>371.21</ele>
        <time>2014-06-05T13:32:23Z</time>
      </trkpt>
      <trkpt lat="44.61005" lon="2.07245">
        <ele>371.21</ele>
        <time>2014-06-05T13:32:24Z</time>
      </trkpt>
      <trkpt lat="44.61007" lon="2.07239">
        <ele>370.73</ele>
        <time>2014-06-05T13:32:29Z</time>
      </trkpt>
      <trkpt lat="44.61015" lon="2.07217">
        <ele>370.73</ele>
        <time>2014-06-05T13:32:44Z</time>
      </trkpt>
      <trkpt lat="44.61029" lon="2.07198">
        <ele>371.21</ele>
        <time>2014-06-05T13:32:59Z</time>
      </trkpt>
      <trkpt lat="44.61036" lon="2.07178">
        <ele>370.73</ele>
        <time>2014-06-05T13:33:13Z</time>
      </trkpt>
      <trkpt lat="44.61046" lon="2.0715">
        <ele>370.24</ele>
        <time>2014-06-05T13:33:29Z</time>
      </trkpt>
      <trkpt lat="44.61048" lon="2.07142">
        <ele>370.24</ele>
        <time>2014-06-05T13:33:36Z</time>
      </trkpt>
      <trkpt lat="44.61048" lon="2.07139">
        <ele>370.24</ele>
        <time>2014-06-05T13:33:37Z</time>
      </trkpt>
      <trkpt lat="44.61049" lon="2.07137">
        <ele>370.73</ele>
        <time>2014-06-05T13:33:38Z</time>
      </trkpt>
      <trkpt lat="44.61049" lon="2.07134">
        <ele>370.73</ele>
        <time>2014-06-05T13:33:39Z</time>
      </trkpt>
      <trkpt lat="44.6105" lon="2.07131">
        <ele>370.73</ele>
        <time>2014-06-05T13:33:40Z</time>
      </trkpt>
      <trkpt lat="44.61055" lon="2.0711">
        <ele>369.76</ele>
        <time>2014-06-05T13:33:54Z</time>
      </trkpt>
      <trkpt lat="44.61057" lon="2.0708">
        <ele>369.28</ele>
        <time>2014-06-05T13:34:12Z</time>
      </trkpt>
      <trkpt lat="44.61062" lon="2.07055">
        <ele>368.32</ele>
        <time>2014-06-05T13:34:28Z</time>
      </trkpt>
      <trkpt lat="44.61061" lon="2.07053">
        <ele>368.32</ele>
        <time>2014-06-05T13:34:30Z</time>
      </trkpt>
      <trkpt lat="44.61062" lon="2.07051">
        <ele>368.32</ele>
        <time>2014-06-05T13:34:31Z</time>
      </trkpt>
      <trkpt lat="44.61062" lon="2.07049">
        <ele>368.32</ele>
        <time>2014-06-05T13:34:32Z</time>
      </trkpt>
      <trkpt lat="44.61063" lon="2.07026">
        <ele>366.88</ele>
        <time>2014-06-05T13:34:47Z</time>
      </trkpt>
      <trkpt lat="44.61065" lon="2.07005">
        <ele>365.92</ele>
        <time>2014-06-05T13:35:01Z</time>
      </trkpt>
      <trkpt lat="44.61068" lon="2.06984">
        <ele>363.52</ele>
        <time>2014-06-05T13:35:17Z</time>
      </trkpt>
      <trkpt lat="44.61068" lon="2.06975">
        <ele>363.04</ele>
        <time>2014-06-05T13:35:25Z</time>
      </trkpt>
      <trkpt lat="44.61068" lon="2.06947">
        <ele>361.11</ele>
        <time>2014-06-05T13:35:40Z</time>
      </trkpt>
      <trkpt lat="44.6107" lon="2.06923">
        <ele>359.67</ele>
        <time>2014-06-05T13:35:55Z</time>
      </trkpt>
      <trkpt lat="44.6107" lon="2.06914">
        <ele>358.23</ele>
        <time>2014-06-05T13:36:01Z</time>
      </trkpt>
      <trkpt lat="44.61071" lon="2.06912">
        <ele>358.23</ele>
        <time>2014-06-05T13:36:02Z</time>
      </trkpt>
      <trkpt lat="44.61071" lon="2.069">
        <ele>351.5</ele>
        <time>2014-06-05T13:36:08Z</time>
      </trkpt>
      <trkpt lat="44.6107" lon="2.06899">
        <ele>360.63</ele>
        <time>2014-06-05T13:36:09Z</time>
      </trkpt>
      <trkpt lat="44.6107" lon="2.06897">
        <ele>360.15</ele>
        <time>2014-06-05T13:36:10Z</time>
      </trkpt>
      <trkpt lat="44.61071" lon="2.06895">
        <ele>356.79</ele>
        <time>2014-06-05T13:36:11Z</time>
      </trkpt>
      <trkpt lat="44.61071" lon="2.06894">
        <ele>356.79</ele>
        <time>2014-06-05T13:36:12Z</time>
      </trkpt>
      <trkpt lat="44.61073" lon="2.06874">
        <ele>355.34</ele>
        <time>2014-06-05T13:36:26Z</time>
      </trkpt>
      <trkpt lat="44.61075" lon="2.06859">
        <ele>352.46</ele>
        <time>2014-06-05T13:36:42Z</time>
      </trkpt>
      <trkpt lat="44.61075" lon="2.06856">
        <ele>352.46</ele>
        <time>2014-06-05T13:36:44Z</time>
      </trkpt>
      <trkpt lat="44.61078" lon="2.06826">
        <ele>351.02</ele>
        <time>2014-06-05T13:37:01Z</time>
      </trkpt>
      <trkpt lat="44.61085" lon="2.06795">
        <ele>348.62</ele>
        <time>2014-06-05T13:37:23Z</time>
      </trkpt>
      <trkpt lat="44.61086" lon="2.06755">
        <ele>347.17</ele>
        <time>2014-06-05T13:37:47Z</time>
      </trkpt>
      <trkpt lat="44.61087" lon="2.0675">
        <ele>347.17</ele>
        <time>2014-06-05T13:37:50Z</time>
      </trkpt>
      <trkpt lat="44.61093" lon="2.06705">
        <ele>346.21</ele>
        <time>2014-06-05T13:38:13Z</time>
      </trkpt>
      <trkpt lat="44.61095" lon="2.06666">
        <ele>345.25</ele>
        <time>2014-06-05T13:38:36Z</time>
      </trkpt>
      <trkpt lat="44.61097" lon="2.06626">
        <ele>344.29</ele>
        <time>2014-06-05T13:39:00Z</time>
      </trkpt>
      <trkpt lat="44.61097" lon="2.0659">
        <ele>342.85</ele>
        <time>2014-06-05T13:39:22Z</time>
      </trkpt>
      <trkpt lat="44.61098" lon="2.06567">
        <ele>341.41</ele>
        <time>2014-06-05T13:39:45Z</time>
      </trkpt>
      <trkpt lat="44.61099" lon="2.06531">
        <ele>340.92</ele>
        <time>2014-06-05T13:40:06Z</time>
      </trkpt>
      <trkpt lat="44.61098" lon="2.06499">
        <ele>340.44</ele>
        <time>2014-06-05T13:40:25Z</time>
      </trkpt>
      <trkpt lat="44.61095" lon="2.06465">
        <ele>339.48</ele>
        <time>2014-06-05T13:40:45Z</time>
      </trkpt>
      <trkpt lat="44.61095" lon="2.0646">
        <ele>334.68</ele>
        <time>2014-06-05T13:40:48Z</time>
      </trkpt>
      <trkpt lat="44.61095" lon="2.06458">
        <ele>334.68</ele>
        <time>2014-06-05T13:40:49Z</time>
      </trkpt>
      <trkpt lat="44.61095" lon="2.06456">
        <ele>343.81</ele>
        <time>2014-06-05T13:40:50Z</time>
      </trkpt>
      <trkpt lat="44.61095" lon="2.06454">
        <ele>338.52</ele>
        <time>2014-06-05T13:40:51Z</time>
      </trkpt>
      <trkpt lat="44.6109" lon="2.06427">
        <ele>337.08</ele>
        <time>2014-06-05T13:41:08Z</time>
      </trkpt>
      <trkpt lat="44.61083" lon="2.06401">
        <ele>336.12</ele>
        <time>2014-06-05T13:41:25Z</time>
      </trkpt>
      <trkpt lat="44.61076" lon="2.06373">
        <ele>332.75</ele>
        <time>2014-06-05T13:41:43Z</time>
      </trkpt>
      <trkpt lat="44.61069" lon="2.06347">
        <ele>330.83</ele>
        <time>2014-06-05T13:42:00Z</time>
      </trkpt>
      <trkpt lat="44.61064" lon="2.06316">
        <ele>328.91</ele>
        <time>2014-06-05T13:42:17Z</time>
      </trkpt>
      <trkpt lat="44.61064" lon="2.06311">
        <ele>328.43</ele>
        <time>2014-06-05T13:42:20Z</time>
      </trkpt>
      <trkpt lat="44.6106" lon="2.06284">
        <ele>327.47</ele>
        <time>2014-06-05T13:42:36Z</time>
      </trkpt>
      <trkpt lat="44.61062" lon="2.06283">
        <ele>326.99</ele>
        <time>2014-06-05T13:42:50Z</time>
      </trkpt>
      <trkpt lat="44.61065" lon="2.06282">
        <ele>327.47</ele>
        <time>2014-06-05T13:43:06Z</time>
      </trkpt>
      <trkpt lat="44.61059" lon="2.06262">
        <ele>325.54</ele>
        <time>2014-06-05T13:43:22Z</time>
      </trkpt>
      <trkpt lat="44.61057" lon="2.0625">
        <ele>324.58</ele>
        <time>2014-06-05T13:43:33Z</time>
      </trkpt>
      <trkpt lat="44.61058" lon="2.06222">
        <ele>322.66</ele>
        <time>2014-06-05T13:43:52Z</time>
      </trkpt>
      <trkpt lat="44.61054" lon="2.06211">
        <ele>322.66</ele>
        <time>2014-06-05T13:44:06Z</time>
      </trkpt>
      <trkpt lat="44.61049" lon="2.06194">
        <ele>321.7</ele>
        <time>2014-06-05T13:44:20Z</time>
      </trkpt>
      <trkpt lat="44.61043" lon="2.06167">
        <ele>319.78</ele>
        <time>2014-06-05T13:44:37Z</time>
      </trkpt>
      <trkpt lat="44.6104" lon="2.06138">
        <ele>316.89</ele>
        <time>2014-06-05T13:44:55Z</time>
      </trkpt>
      <trkpt lat="44.61039" lon="2.0611">
        <ele>316.89</ele>
        <time>2014-06-05T13:45:12Z</time>
      </trkpt>
      <trkpt lat="44.61042" lon="2.06085">
        <ele>315.93</ele>
        <time>2014-06-05T13:45:28Z</time>
      </trkpt>
      <trkpt lat="44.6105" lon="2.06059">
        <ele>314.97</ele>
        <time>2014-06-05T13:45:47Z</time>
      </trkpt>
      <trkpt lat="44.61055" lon="2.06026">
        <ele>314.01</ele>
        <time>2014-06-05T13:46:07Z</time>
      </trkpt>
      <trkpt lat="44.61061" lon="2.0599">
        <ele>312.09</ele>
        <time>2014-06-05T13:46:28Z</time>
      </trkpt>
      <trkpt lat="44.61065" lon="2.05954">
        <ele>311.12</ele>
        <time>2014-06-05T13:46:48Z</time>
      </trkpt>
      <trkpt lat="44.61066" lon="2.05925">
        <ele>309.68</ele>
        <time>2014-06-05T13:47:05Z</time>
      </trkpt>
      <trkpt lat="44.61068" lon="2.05894">
        <ele>309.2</ele>
        <time>2014-06-05T13:47:24Z</time>
      </trkpt>
      <trkpt lat="44.6107" lon="2.05859">
        <ele>307.76</ele>
        <time>2014-06-05T13:47:46Z</time>
      </trkpt>
      <trkpt lat="44.61069" lon="2.05832">
        <ele>305.36</ele>
        <time>2014-06-05T13:48:05Z</time>
      </trkpt>
      <trkpt lat="44.61068" lon="2.05823">
        <ele>304.88</ele>
        <time>2014-06-05T13:48:20Z</time>
      </trkpt>
      <trkpt lat="44.61068" lon="2.05823">
        <ele>305.36</ele>
        <time>2014-06-05T13:48:21Z</time>
      </trkpt>
      <trkpt lat="44.61072" lon="2.05819">
        <ele>305.36</ele>
        <time>2014-06-05T13:48:34Z</time>
      </trkpt>
      <trkpt lat="44.61074" lon="2.05818">
        <ele>301.99</ele>
        <time>2014-06-05T13:48:54Z</time>
      </trkpt>
      <trkpt lat="44.61072" lon="2.05815">
        <ele>305.36</ele>
        <time>2014-06-05T13:48:58Z</time>
      </trkpt>
      <trkpt lat="44.6107" lon="2.05801">
        <ele>302.47</ele>
        <time>2014-06-05T13:49:09Z</time>
      </trkpt>
      <trkpt lat="44.61065" lon="2.05773">
        <ele>300.55</ele>
        <time>2014-06-05T13:49:25Z</time>
      </trkpt>
      <trkpt lat="44.61062" lon="2.05755">
        <ele>297.67</ele>
        <time>2014-06-05T13:49:38Z</time>
      </trkpt>
      <trkpt lat="44.61055" lon="2.05733">
        <ele>294.3</ele>
        <time>2014-06-05T13:49:56Z</time>
      </trkpt>
      <trkpt lat="44.6105" lon="2.05709">
        <ele>291.42</ele>
        <time>2014-06-05T13:50:14Z</time>
      </trkpt>
      <trkpt lat="44.61045" lon="2.0569">
        <ele>288.05</ele>
        <time>2014-06-05T13:50:29Z</time>
      </trkpt>
      <trkpt lat="44.61044" lon="2.05689">
        <ele>287.57</ele>
        <time>2014-06-05T13:50:30Z</time>
      </trkpt>
      <trkpt lat="44.61044" lon="2.0566">
        <ele>287.57</ele>
        <time>2014-06-05T13:50:49Z</time>
      </trkpt>
      <trkpt lat="44.61045" lon="2.05653">
        <ele>284.69</ele>
        <time>2014-06-05T13:50:54Z</time>
      </trkpt>
      <trkpt lat="44.61046" lon="2.05625">
        <ele>284.69</ele>
        <time>2014-06-05T13:51:13Z</time>
      </trkpt>
      <trkpt lat="44.61045" lon="2.05603">
        <ele>282.28</ele>
        <time>2014-06-05T13:51:28Z</time>
      </trkpt>
      <trkpt lat="44.61044" lon="2.056">
        <ele>282.28</ele>
        <time>2014-06-05T13:51:46Z</time>
      </trkpt>
      <trkpt lat="44.61044" lon="2.05597">
        <ele>281.8</ele>
        <time>2014-06-05T13:52:03Z</time>
      </trkpt>
      <trkpt lat="44.61046" lon="2.056">
        <ele>282.28</ele>
        <time>2014-06-05T13:52:20Z</time>
      </trkpt>
      <trkpt lat="44.61045" lon="2.056">
        <ele>278.44</ele>
        <time>2014-06-05T13:52:30Z</time>
      </trkpt>
      <trkpt lat="44.61045" lon="2.056">
        <ele>284.21</ele>
        <time>2014-06-05T13:52:31Z</time>
      </trkpt>
      <trkpt lat="44.61044" lon="2.05597">
        <ele>280.84</ele>
        <time>2014-06-05T13:52:35Z</time>
      </trkpt>
      <trkpt lat="44.61043" lon="2.05588">
        <ele>281.32</ele>
        <time>2014-06-05T13:52:43Z</time>
      </trkpt>
      <trkpt lat="44.61042" lon="2.05577">
        <ele>279.88</ele>
        <time>2014-06-05T13:52:57Z</time>
      </trkpt>
      <trkpt lat="44.61037" lon="2.05559">
        <ele>278.44</ele>
        <time>2014-06-05T13:53:11Z</time>
      </trkpt>
      <trkpt lat="44.61031" lon="2.0554">
        <ele>277</ele>
        <time>2014-06-05T13:53:25Z</time>
      </trkpt>
      <trkpt lat="44.61026" lon="2.05519">
        <ele>274.11</ele>
        <time>2014-06-05T13:53:42Z</time>
      </trkpt>
      <trkpt lat="44.61023" lon="2.05498">
        <ele>270.27</ele>
        <time>2014-06-05T13:53:56Z</time>
      </trkpt>
      <trkpt lat="44.6102" lon="2.05488">
        <ele>269.79</ele>
        <time>2014-06-05T13:54:04Z</time>
      </trkpt>
      <trkpt lat="44.61019" lon="2.05485">
        <ele>268.83</ele>
        <time>2014-06-05T13:54:06Z</time>
      </trkpt>
      <trkpt lat="44.61015" lon="2.05464">
        <ele>266.9</ele>
        <time>2014-06-05T13:54:22Z</time>
      </trkpt>
      <trkpt lat="44.6101" lon="2.05442">
        <ele>264.98</ele>
        <time>2014-06-05T13:54:37Z</time>
      </trkpt>
      <trkpt lat="44.61003" lon="2.05418">
        <ele>262.58</ele>
        <time>2014-06-05T13:54:55Z</time>
      </trkpt>
      <trkpt lat="44.61" lon="2.05402">
        <ele>259.21</ele>
        <time>2014-06-05T13:55:07Z</time>
      </trkpt>
      <trkpt lat="44.60998" lon="2.05382">
        <ele>256.33</ele>
        <time>2014-06-05T13:55:18Z</time>
      </trkpt>
      <trkpt lat="44.60995" lon="2.05369">
        <ele>253.44</ele>
        <time>2014-06-05T13:55:30Z</time>
      </trkpt>
      <trkpt lat="44.60992" lon="2.05355">
        <ele>251.04</ele>
        <time>2014-06-05T13:55:42Z</time>
      </trkpt>
      <trkpt lat="44.60992" lon="2.05343">
        <ele>249.6</ele>
        <time>2014-06-05T13:55:50Z</time>
      </trkpt>
      <trkpt lat="44.6099" lon="2.05315">
        <ele>247.68</ele>
        <time>2014-06-05T13:56:08Z</time>
      </trkpt>
      <trkpt lat="44.6099" lon="2.05309">
        <ele>246.72</ele>
        <time>2014-06-05T13:56:13Z</time>
      </trkpt>
      <trkpt lat="44.60994" lon="2.05288">
        <ele>244.79</ele>
        <time>2014-06-05T13:56:25Z</time>
      </trkpt>
      <trkpt lat="44.60995" lon="2.05268">
        <ele>241.43</ele>
        <time>2014-06-05T13:56:42Z</time>
      </trkpt>
      <trkpt lat="44.60993" lon="2.05251">
        <ele>239.02</ele>
        <time>2014-06-05T13:56:56Z</time>
      </trkpt>
      <trkpt lat="44.60989" lon="2.0524">
        <ele>237.1</ele>
        <time>2014-06-05T13:57:08Z</time>
      </trkpt>
      <trkpt lat="44.60988" lon="2.05236">
        <ele>236.14</ele>
        <time>2014-06-05T13:57:12Z</time>
      </trkpt>
      <trkpt lat="44.60988" lon="2.05233">
        <ele>235.66</ele>
        <time>2014-06-05T13:57:14Z</time>
      </trkpt>
      <trkpt lat="44.60986" lon="2.05223">
        <ele>233.74</ele>
        <time>2014-06-05T13:57:24Z</time>
      </trkpt>
      <trkpt lat="44.6098" lon="2.05209">
        <ele>231.81</ele>
        <time>2014-06-05T13:57:37Z</time>
      </trkpt>
      <trkpt lat="44.60983" lon="2.05195">
        <ele>230.37</ele>
        <time>2014-06-05T13:57:46Z</time>
      </trkpt>
      <trkpt lat="44.60982" lon="2.05179">
        <ele>227.97</ele>
        <time>2014-06-05T13:57:58Z</time>
      </trkpt>
      <trkpt lat="44.6098" lon="2.05169">
        <ele>226.53</ele>
        <time>2014-06-05T13:58:07Z</time>
      </trkpt>
      <trkpt lat="44.6098" lon="2.05152">
        <ele>223.16</ele>
        <time>2014-06-05T13:58:18Z</time>
      </trkpt>
      <trkpt lat="44.60979" lon="2.05146">
        <ele>224.12</ele>
        <time>2014-06-05T13:58:22Z</time>
      </trkpt>
      <trkpt lat="44.60979" lon="2.05143">
        <ele>223.64</ele>
        <time>2014-06-05T13:58:25Z</time>
      </trkpt>
      <trkpt lat="44.60981" lon="2.05135">
        <ele>222.68</ele>
        <time>2014-06-05T13:58:32Z</time>
      </trkpt>
      <trkpt lat="44.60983" lon="2.05129">
        <ele>222.68</ele>
        <time>2014-06-05T13:58:36Z</time>
      </trkpt>
      <trkpt lat="44.60985" lon="2.05117">
        <ele>221.24</ele>
        <time>2014-06-05T13:58:45Z</time>
      </trkpt>
      <trkpt lat="44.60991" lon="2.05095">
        <ele>218.84</ele>
        <time>2014-06-05T13:59:02Z</time>
      </trkpt>
      <trkpt lat="44.60992" lon="2.05082">
        <ele>216.91</ele>
        <time>2014-06-05T13:59:17Z</time>
      </trkpt>
      <trkpt lat="44.6099" lon="2.05084">
        <ele>216.91</ele>
        <time>2014-06-05T13:59:27Z</time>
      </trkpt>
      <trkpt lat="44.60981" lon="2.05088">
        <ele>215.47</ele>
        <time>2014-06-05T13:59:39Z</time>
      </trkpt>
      <trkpt lat="44.60969" lon="2.05094">
        <ele>214.99</ele>
        <time>2014-06-05T13:59:49Z</time>
      </trkpt>
      <trkpt lat="44.60959" lon="2.05097">
        <ele>213.55</ele>
        <time>2014-06-05T14:00:04Z</time>
      </trkpt>
      <trkpt lat="44.60959" lon="2.05098">
        <ele>213.55</ele>
        <time>2014-06-05T14:00:29Z</time>
      </trkpt>
      <trkpt lat="44.60961" lon="2.05103">
        <ele>214.03</ele>
        <time>2014-06-05T14:01:01Z</time>
      </trkpt>
      <trkpt lat="44.6096" lon="2.05108">
        <ele>213.55</ele>
        <time>2014-06-05T14:01:27Z</time>
      </trkpt>
      <trkpt lat="44.6096" lon="2.05105">
        <ele>214.03</ele>
        <time>2014-06-05T14:01:56Z</time>
      </trkpt>
      <trkpt lat="44.60959" lon="2.0511">
        <ele>214.51</ele>
        <time>2014-06-05T14:02:25Z</time>
      </trkpt>
      <trkpt lat="44.60958" lon="2.051">
        <ele>214.51</ele>
        <time>2014-06-05T14:02:50Z</time>
      </trkpt>
      <trkpt lat="44.60953" lon="2.05095">
        <ele>214.51</ele>
        <time>2014-06-05T14:03:03Z</time>
      </trkpt>
      <trkpt lat="44.60944" lon="2.05086">
        <ele>213.55</ele>
        <time>2014-06-05T14:03:17Z</time>
      </trkpt>
      <trkpt lat="44.60929" lon="2.05074">
        <ele>212.11</ele>
        <time>2014-06-05T14:03:31Z</time>
      </trkpt>
      <trkpt lat="44.6092" lon="2.05065">
        <ele>212.11</ele>
        <time>2014-06-05T14:03:42Z</time>
      </trkpt>
      <trkpt lat="44.60916" lon="2.05055">
        <ele>211.63</ele>
        <time>2014-06-05T14:03:50Z</time>
      </trkpt>
      <trkpt lat="44.60916" lon="2.05048">
        <ele>212.11</ele>
        <time>2014-06-05T14:03:54Z</time>
      </trkpt>
      <trkpt lat="44.60919" lon="2.05029">
        <ele>211.63</ele>
        <time>2014-06-05T14:04:06Z</time>
      </trkpt>
      <trkpt lat="44.6092" lon="2.05025">
        <ele>211.15</ele>
        <time>2014-06-05T14:04:09Z</time>
      </trkpt>
      <trkpt lat="44.60917" lon="2.05015">
        <ele>211.15</ele>
        <time>2014-06-05T14:04:14Z</time>
      </trkpt>
      <trkpt lat="44.6091" lon="2.04999">
        <ele>211.15</ele>
        <time>2014-06-05T14:04:27Z</time>
      </trkpt>
      <trkpt lat="44.60909" lon="2.04996">
        <ele>211.15</ele>
        <time>2014-06-05T14:04:30Z</time>
      </trkpt>
      <trkpt lat="44.60895" lon="2.04974">
        <ele>210.67</ele>
        <time>2014-06-05T14:04:47Z</time>
      </trkpt>
      <trkpt lat="44.60893" lon="2.04968">
        <ele>210.67</ele>
        <time>2014-06-05T14:04:51Z</time>
      </trkpt>
      <trkpt lat="44.6089" lon="2.04944">
        <ele>210.19</ele>
        <time>2014-06-05T14:05:06Z</time>
      </trkpt>
      <trkpt lat="44.60884" lon="2.04931">
        <ele>210.67</ele>
        <time>2014-06-05T14:05:19Z</time>
      </trkpt>
      <trkpt lat="44.6088" lon="2.04922">
        <ele>210.19</ele>
        <time>2014-06-05T14:05:29Z</time>
      </trkpt>
      <trkpt lat="44.60868" lon="2.04904">
        <ele>210.19</ele>
        <time>2014-06-05T14:05:44Z</time>
      </trkpt>
      <trkpt lat="44.60864" lon="2.04896">
        <ele>209.7</ele>
        <time>2014-06-05T14:05:51Z</time>
      </trkpt>
      <trkpt lat="44.60861" lon="2.04889">
        <ele>210.19</ele>
        <time>2014-06-05T14:05:55Z</time>
      </trkpt>
      <trkpt lat="44.60858" lon="2.04883">
        <ele>210.19</ele>
        <time>2014-06-05T14:06:07Z</time>
      </trkpt>
      <trkpt lat="44.60851" lon="2.04872">
        <ele>209.7</ele>
        <time>2014-06-05T14:06:16Z</time>
      </trkpt>
      <trkpt lat="44.60842" lon="2.04856">
        <ele>209.7</ele>
        <time>2014-06-05T14:06:30Z</time>
      </trkpt>
      <trkpt lat="44.60828" lon="2.04835">
        <ele>210.19</ele>
        <time>2014-06-05T14:06:44Z</time>
      </trkpt>
      <trkpt lat="44.6082" lon="2.04818">
        <ele>209.7</ele>
        <time>2014-06-05T14:07:00Z</time>
      </trkpt>
      <trkpt lat="44.60812" lon="2.04802">
        <ele>209.7</ele>
        <time>2014-06-05T14:07:13Z</time>
      </trkpt>
      <trkpt lat="44.60801" lon="2.04779">
        <ele>209.22</ele>
        <time>2014-06-05T14:07:29Z</time>
      </trkpt>
      <trkpt lat="44.60793" lon="2.04762">
        <ele>209.7</ele>
        <time>2014-06-05T14:07:43Z</time>
      </trkpt>
      <trkpt lat="44.60786" lon="2.04745">
        <ele>209.7</ele>
        <time>2014-06-05T14:07:52Z</time>
      </trkpt>
      <trkpt lat="44.6078" lon="2.04723">
        <ele>209.7</ele>
        <time>2014-06-05T14:08:06Z</time>
      </trkpt>
      <trkpt lat="44.60779" lon="2.04717">
        <ele>210.19</ele>
        <time>2014-06-05T14:08:10Z</time>
      </trkpt>
      <trkpt lat="44.60777" lon="2.04694">
        <ele>213.55</ele>
        <time>2014-06-05T14:08:25Z</time>
      </trkpt>
      <trkpt lat="44.60776" lon="2.04692">
        <ele>208.74</ele>
        <time>2014-06-05T14:08:26Z</time>
      </trkpt>
      <trkpt lat="44.60776" lon="2.0469">
        <ele>212.11</ele>
        <time>2014-06-05T14:08:27Z</time>
      </trkpt>
      <trkpt lat="44.60773" lon="2.04664">
        <ele>210.67</ele>
        <time>2014-06-05T14:08:43Z</time>
      </trkpt>
      <trkpt lat="44.60767" lon="2.04643">
        <ele>210.67</ele>
        <time>2014-06-05T14:08:57Z</time>
      </trkpt>
      <trkpt lat="44.60764" lon="2.04622">
        <ele>211.63</ele>
        <time>2014-06-05T14:09:11Z</time>
      </trkpt>
      <trkpt lat="44.60764" lon="2.04597">
        <ele>213.07</ele>
        <time>2014-06-05T14:09:26Z</time>
      </trkpt>
      <trkpt lat="44.6076" lon="2.0457">
        <ele>213.07</ele>
        <time>2014-06-05T14:09:42Z</time>
      </trkpt>
      <trkpt lat="44.60759" lon="2.04565">
        <ele>213.55</ele>
        <time>2014-06-05T14:09:46Z</time>
      </trkpt>
      <trkpt lat="44.60759" lon="2.04562">
        <ele>213.07</ele>
        <time>2014-06-05T14:09:48Z</time>
      </trkpt>
      <trkpt lat="44.60757" lon="2.04532">
        <ele>214.51</ele>
        <time>2014-06-05T14:10:05Z</time>
      </trkpt>
      <trkpt lat="44.60757" lon="2.04525">
        <ele>213.55</ele>
        <time>2014-06-05T14:10:11Z</time>
      </trkpt>
      <trkpt lat="44.60755" lon="2.04498">
        <ele>214.51</ele>
        <time>2014-06-05T14:10:28Z</time>
      </trkpt>
      <trkpt lat="44.60751" lon="2.04473">
        <ele>215.47</ele>
        <time>2014-06-05T14:10:42Z</time>
      </trkpt>
      <trkpt lat="44.60748" lon="2.0445">
        <ele>214.99</ele>
        <time>2014-06-05T14:10:56Z</time>
      </trkpt>
      <trkpt lat="44.60747" lon="2.04448">
        <ele>215.95</ele>
        <time>2014-06-05T14:10:58Z</time>
      </trkpt>
      <trkpt lat="44.60743" lon="2.04426">
        <ele>216.43</ele>
        <time>2014-06-05T14:11:13Z</time>
      </trkpt>
      <trkpt lat="44.60739" lon="2.04412">
        <ele>216.91</ele>
        <time>2014-06-05T14:11:26Z</time>
      </trkpt>
      <trkpt lat="44.60736" lon="2.04388">
        <ele>217.4</ele>
        <time>2014-06-05T14:11:38Z</time>
      </trkpt>
      <trkpt lat="44.6073" lon="2.04374">
        <ele>217.4</ele>
        <time>2014-06-05T14:11:48Z</time>
      </trkpt>
      <trkpt lat="44.6073" lon="2.0437">
        <ele>217.88</ele>
        <time>2014-06-05T14:11:51Z</time>
      </trkpt>
      <trkpt lat="44.60722" lon="2.04338">
        <ele>217.4</ele>
        <time>2014-06-05T14:12:10Z</time>
      </trkpt>
      <trkpt lat="44.60717" lon="2.04319">
        <ele>216.43</ele>
        <time>2014-06-05T14:12:24Z</time>
      </trkpt>
      <trkpt lat="44.60717" lon="2.04307">
        <ele>215.95</ele>
        <time>2014-06-05T14:12:29Z</time>
      </trkpt>
      <trkpt lat="44.60714" lon="2.04289">
        <ele>214.51</ele>
        <time>2014-06-05T14:12:42Z</time>
      </trkpt>
      <trkpt lat="44.60714" lon="2.0428">
        <ele>214.51</ele>
        <time>2014-06-05T14:12:48Z</time>
      </trkpt>
      <trkpt lat="44.60711" lon="2.04264">
        <ele>213.55</ele>
        <time>2014-06-05T14:13:00Z</time>
      </trkpt>
      <trkpt lat="44.60713" lon="2.04242">
        <ele>212.59</ele>
        <time>2014-06-05T14:13:13Z</time>
      </trkpt>
      <trkpt lat="44.60714" lon="2.04237">
        <ele>212.59</ele>
        <time>2014-06-05T14:13:18Z</time>
      </trkpt>
      <trkpt lat="44.60711" lon="2.04225">
        <ele>212.59</ele>
        <time>2014-06-05T14:13:29Z</time>
      </trkpt>
      <trkpt lat="44.60708" lon="2.04212">
        <ele>212.59</ele>
        <time>2014-06-05T14:13:41Z</time>
      </trkpt>
      <trkpt lat="44.60707" lon="2.04204">
        <ele>213.55</ele>
        <time>2014-06-05T14:13:46Z</time>
      </trkpt>
      <trkpt lat="44.60705" lon="2.04174">
        <ele>212.59</ele>
        <time>2014-06-05T14:14:02Z</time>
      </trkpt>
      <trkpt lat="44.60706" lon="2.04153">
        <ele>213.07</ele>
        <time>2014-06-05T14:14:16Z</time>
      </trkpt>
      <trkpt lat="44.60706" lon="2.04152">
        <ele>213.55</ele>
        <time>2014-06-05T14:14:17Z</time>
      </trkpt>
      <trkpt lat="44.60702" lon="2.04142">
        <ele>213.07</ele>
        <time>2014-06-05T14:14:25Z</time>
      </trkpt>
      <trkpt lat="44.60696" lon="2.04119">
        <ele>213.07</ele>
        <time>2014-06-05T14:14:40Z</time>
      </trkpt>
      <trkpt lat="44.60693" lon="2.04101">
        <ele>211.63</ele>
        <time>2014-06-05T14:14:51Z</time>
      </trkpt>
      <trkpt lat="44.60695" lon="2.04091">
        <ele>212.59</ele>
        <time>2014-06-05T14:14:56Z</time>
      </trkpt>
      <trkpt lat="44.60694" lon="2.0408">
        <ele>213.07</ele>
        <time>2014-06-05T14:15:03Z</time>
      </trkpt>
      <trkpt lat="44.60692" lon="2.04078">
        <ele>212.59</ele>
        <time>2014-06-05T14:15:05Z</time>
      </trkpt>
      <trkpt lat="44.60693" lon="2.04053">
        <ele>211.15</ele>
        <time>2014-06-05T14:15:16Z</time>
      </trkpt>
      <trkpt lat="44.60693" lon="2.04052">
        <ele>214.99</ele>
        <time>2014-06-05T14:15:17Z</time>
      </trkpt>
      <trkpt lat="44.60692" lon="2.04047">
        <ele>213.07</ele>
        <time>2014-06-05T14:15:20Z</time>
      </trkpt>
      <trkpt lat="44.60692" lon="2.0404">
        <ele>213.07</ele>
        <time>2014-06-05T14:15:24Z</time>
      </trkpt>
      <trkpt lat="44.60687" lon="2.0402">
        <ele>214.51</ele>
        <time>2014-06-05T14:15:34Z</time>
      </trkpt>
      <trkpt lat="44.60686" lon="2.04017">
        <ele>214.03</ele>
        <time>2014-06-05T14:15:36Z</time>
      </trkpt>
      <trkpt lat="44.60688" lon="2.04004">
        <ele>213.07</ele>
        <time>2014-06-05T14:15:45Z</time>
      </trkpt>
      <trkpt lat="44.60687" lon="2.04001">
        <ele>213.07</ele>
        <time>2014-06-05T14:15:48Z</time>
      </trkpt>
      <trkpt lat="44.60685" lon="2.03983">
        <ele>213.07</ele>
        <time>2014-06-05T14:16:01Z</time>
      </trkpt>
      <trkpt lat="44.60684" lon="2.03982">
        <ele>213.07</ele>
        <time>2014-06-05T14:16:03Z</time>
      </trkpt>
      <trkpt lat="44.60684" lon="2.03969">
        <ele>213.07</ele>
        <time>2014-06-05T14:16:13Z</time>
      </trkpt>
      <trkpt lat="44.60681" lon="2.03952">
        <ele>213.07</ele>
        <time>2014-06-05T14:16:25Z</time>
      </trkpt>
      <trkpt lat="44.60678" lon="2.03935">
        <ele>213.07</ele>
        <time>2014-06-05T14:16:38Z</time>
      </trkpt>
      <trkpt lat="44.60675" lon="2.03907">
        <ele>212.59</ele>
        <time>2014-06-05T14:16:53Z</time>
      </trkpt>
      <trkpt lat="44.60671" lon="2.03881">
        <ele>212.11</ele>
        <time>2014-06-05T14:17:06Z</time>
      </trkpt>
      <trkpt lat="44.60666" lon="2.03858">
        <ele>212.11</ele>
        <time>2014-06-05T14:17:18Z</time>
      </trkpt>
      <trkpt lat="44.60666" lon="2.03844">
        <ele>212.11</ele>
        <time>2014-06-05T14:17:28Z</time>
      </trkpt>
      <trkpt lat="44.60666" lon="2.03837">
        <ele>212.11</ele>
        <time>2014-06-05T14:17:31Z</time>
      </trkpt>
      <trkpt lat="44.60664" lon="2.03812">
        <ele>212.11</ele>
        <time>2014-06-05T14:17:44Z</time>
      </trkpt>
      <trkpt lat="44.60666" lon="2.03789">
        <ele>212.11</ele>
        <time>2014-06-05T14:17:57Z</time>
      </trkpt>
      <trkpt lat="44.60665" lon="2.0377">
        <ele>210.67</ele>
        <time>2014-06-05T14:18:11Z</time>
      </trkpt>
      <trkpt lat="44.60663" lon="2.03752">
        <ele>211.15</ele>
        <time>2014-06-05T14:18:25Z</time>
      </trkpt>
      <trkpt lat="44.6066" lon="2.03729">
        <ele>210.67</ele>
        <time>2014-06-05T14:18:37Z</time>
      </trkpt>
      <trkpt lat="44.60659" lon="2.03723">
        <ele>210.19</ele>
        <time>2014-06-05T14:18:42Z</time>
      </trkpt>
      <trkpt lat="44.60659" lon="2.03721">
        <ele>209.7</ele>
        <time>2014-06-05T14:18:43Z</time>
      </trkpt>
      <trkpt lat="44.60658" lon="2.03703">
        <ele>210.19</ele>
        <time>2014-06-05T14:18:53Z</time>
      </trkpt>
      <trkpt lat="44.60659" lon="2.037">
        <ele>210.19</ele>
        <time>2014-06-05T14:18:54Z</time>
      </trkpt>
      <trkpt lat="44.60659" lon="2.03697">
        <ele>210.19</ele>
        <time>2014-06-05T14:18:55Z</time>
      </trkpt>
      <trkpt lat="44.60659" lon="2.03688">
        <ele>209.22</ele>
        <time>2014-06-05T14:19:08Z</time>
      </trkpt>
      <trkpt lat="44.60659" lon="2.03687">
        <ele>209.22</ele>
        <time>2014-06-05T14:19:22Z</time>
      </trkpt>
      <trkpt lat="44.60657" lon="2.0368">
        <ele>209.7</ele>
        <time>2014-06-05T14:19:32Z</time>
      </trkpt>
      <trkpt lat="44.60654" lon="2.03663">
        <ele>209.22</ele>
        <time>2014-06-05T14:19:44Z</time>
      </trkpt>
      <trkpt lat="44.6065" lon="2.03654">
        <ele>208.74</ele>
        <time>2014-06-05T14:19:50Z</time>
      </trkpt>
      <trkpt lat="44.60651" lon="2.03651">
        <ele>208.74</ele>
        <time>2014-06-05T14:19:51Z</time>
      </trkpt>
      <trkpt lat="44.60652" lon="2.03648">
        <ele>209.22</ele>
        <time>2014-06-05T14:19:52Z</time>
      </trkpt>
      <trkpt lat="44.60653" lon="2.03631">
        <ele>208.74</ele>
        <time>2014-06-05T14:20:04Z</time>
      </trkpt>
      <trkpt lat="44.60651" lon="2.03608">
        <ele>208.74</ele>
        <time>2014-06-05T14:20:18Z</time>
      </trkpt>
      <trkpt lat="44.60651" lon="2.03607">
        <ele>209.7</ele>
        <time>2014-06-05T14:20:21Z</time>
      </trkpt>
      <trkpt lat="44.60652" lon="2.03612">
        <ele>208.74</ele>
        <time>2014-06-05T14:20:24Z</time>
      </trkpt>
      <trkpt lat="44.60654" lon="2.03624">
        <ele>210.19</ele>
        <time>2014-06-05T14:20:36Z</time>
      </trkpt>
      <trkpt lat="44.60653" lon="2.03623">
        <ele>209.22</ele>
        <time>2014-06-05T14:20:48Z</time>
      </trkpt>
      <trkpt lat="44.60651" lon="2.0362">
        <ele>209.22</ele>
        <time>2014-06-05T14:21:01Z</time>
      </trkpt>
      <trkpt lat="44.60651" lon="2.03618">
        <ele>209.22</ele>
        <time>2014-06-05T14:21:21Z</time>
      </trkpt>
      <trkpt lat="44.60654" lon="2.03631">
        <ele>209.22</ele>
        <time>2014-06-05T14:21:32Z</time>
      </trkpt>
      <trkpt lat="44.60656" lon="2.03643">
        <ele>208.74</ele>
        <time>2014-06-05T14:21:45Z</time>
      </trkpt>
      <trkpt lat="44.60656" lon="2.03646">
        <ele>209.22</ele>
        <time>2014-06-05T14:21:47Z</time>
      </trkpt>
      <trkpt lat="44.60655" lon="2.03671">
        <ele>209.22</ele>
        <time>2014-06-05T14:22:01Z</time>
      </trkpt>
      <trkpt lat="44.60661" lon="2.03683">
        <ele>208.26</ele>
        <time>2014-06-05T14:22:13Z</time>
      </trkpt>
      <trkpt lat="44.60665" lon="2.03677">
        <ele>207.3</ele>
        <time>2014-06-05T14:22:17Z</time>
      </trkpt>
      <trkpt lat="44.60666" lon="2.03674">
        <ele>206.82</ele>
        <time>2014-06-05T14:22:20Z</time>
      </trkpt>
      <trkpt lat="44.60666" lon="2.03672">
        <ele>206.82</ele>
        <time>2014-06-05T14:22:21Z</time>
      </trkpt>
      <trkpt lat="44.60666" lon="2.0367">
        <ele>206.34</ele>
        <time>2014-06-05T14:22:22Z</time>
      </trkpt>
      <trkpt lat="44.60667" lon="2.03668">
        <ele>206.34</ele>
        <time>2014-06-05T14:22:23Z</time>
      </trkpt>
      <trkpt lat="44.60667" lon="2.03666">
        <ele>205.86</ele>
        <time>2014-06-05T14:22:24Z</time>
      </trkpt>
      <trkpt lat="44.60666" lon="2.03653">
        <ele>204.9</ele>
        <time>2014-06-05T14:22:35Z</time>
      </trkpt>
      <trkpt lat="44.60663" lon="2.03645">
        <ele>203.94</ele>
        <time>2014-06-05T14:22:41Z</time>
      </trkpt>
      <trkpt lat="44.60667" lon="2.03635">
        <ele>203.46</ele>
        <time>2014-06-05T14:22:48Z</time>
      </trkpt>
      <trkpt lat="44.60667" lon="2.03632">
        <ele>203.94</ele>
        <time>2014-06-05T14:22:49Z</time>
      </trkpt>
      <trkpt lat="44.60674" lon="2.03606">
        <ele>203.94</ele>
        <time>2014-06-05T14:23:02Z</time>
      </trkpt>
      <trkpt lat="44.60675" lon="2.03605">
        <ele>204.42</ele>
        <time>2014-06-05T14:23:03Z</time>
      </trkpt>
      <trkpt lat="44.60678" lon="2.03594">
        <ele>203.94</ele>
        <time>2014-06-05T14:23:14Z</time>
      </trkpt>
      <trkpt lat="44.60676" lon="2.0359">
        <ele>203.94</ele>
        <time>2014-06-05T14:23:16Z</time>
      </trkpt>
      <trkpt lat="44.60675" lon="2.03588">
        <ele>203.94</ele>
        <time>2014-06-05T14:23:17Z</time>
      </trkpt>
      <trkpt lat="44.60675" lon="2.03586">
        <ele>203.46</ele>
        <time>2014-06-05T14:23:18Z</time>
      </trkpt>
      <trkpt lat="44.60675" lon="2.03583">
        <ele>203.94</ele>
        <time>2014-06-05T14:23:19Z</time>
      </trkpt>
      <trkpt lat="44.60676" lon="2.0358">
        <ele>203.94</ele>
        <time>2014-06-05T14:23:20Z</time>
      </trkpt>
      <trkpt lat="44.60676" lon="2.03578">
        <ele>203.94</ele>
        <time>2014-06-05T14:23:21Z</time>
      </trkpt>
      <trkpt lat="44.60676" lon="2.03576">
        <ele>203.94</ele>
        <time>2014-06-05T14:23:22Z</time>
      </trkpt>
      <trkpt lat="44.60678" lon="2.03554">
        <ele>203.46</ele>
        <time>2014-06-05T14:23:35Z</time>
      </trkpt>
      <trkpt lat="44.60674" lon="2.03531">
        <ele>203.94</ele>
        <time>2014-06-05T14:23:49Z</time>
      </trkpt>
      <trkpt lat="44.60671" lon="2.03524">
        <ele>203.94</ele>
        <time>2014-06-05T14:23:56Z</time>
      </trkpt>
      <trkpt lat="44.6067" lon="2.03523">
        <ele>203.94</ele>
        <time>2014-06-05T14:23:57Z</time>
      </trkpt>
      <trkpt lat="44.60669" lon="2.03521">
        <ele>203.94</ele>
        <time>2014-06-05T14:23:58Z</time>
      </trkpt>
      <trkpt lat="44.60668" lon="2.03505">
        <ele>203.94</ele>
        <time>2014-06-05T14:24:12Z</time>
      </trkpt>
      <trkpt lat="44.60668" lon="2.03502">
        <ele>203.46</ele>
        <time>2014-06-05T14:24:14Z</time>
      </trkpt>
      <trkpt lat="44.60669" lon="2.03484">
        <ele>203.94</ele>
        <time>2014-06-05T14:24:21Z</time>
      </trkpt>
      <trkpt lat="44.60669" lon="2.03482">
        <ele>204.42</ele>
        <time>2014-06-05T14:24:22Z</time>
      </trkpt>
      <trkpt lat="44.60671" lon="2.03477">
        <ele>204.42</ele>
        <time>2014-06-05T14:24:28Z</time>
      </trkpt>
      <trkpt lat="44.6067" lon="2.03471">
        <ele>203.94</ele>
        <time>2014-06-05T14:24:32Z</time>
      </trkpt>
      <trkpt lat="44.60669" lon="2.03469">
        <ele>203.94</ele>
        <time>2014-06-05T14:24:33Z</time>
      </trkpt>
      <trkpt lat="44.60668" lon="2.03467">
        <ele>203.46</ele>
        <time>2014-06-05T14:24:37Z</time>
      </trkpt>
      <trkpt lat="44.60668" lon="2.03468">
        <ele>204.42</ele>
        <time>2014-06-05T14:24:38Z</time>
      </trkpt>
      <trkpt lat="44.60673" lon="2.0348">
        <ele>204.9</ele>
        <time>2014-06-05T14:24:51Z</time>
      </trkpt>
    </trkseg>
  </trk>
</gpx>